     2              OBSERVATION DATA    G (GPS)             RINEX VERSION / TYPE
TRRINEXO V2.3.4 LH UCLA / SCEC 28-JUN-95 11:03              PGM / RUN BY / DATE
PROJECT NAME: LOS ANGELES BASIN 1995                        COMMENT
ARCHIVED BY: SOUTHERN CALIFORNIA EARTHQUAKE CENTER (SCEC)   COMMENT
ANTENNA DELTA H: DIRECT HEIGHT TO PRE-AMP BASE (DHPAB)      COMMENT
NOTE:                                                       COMMENT
FOR FURTHER INFORMATION CONTACT: DAVE JACKSON               COMMENT
UCLA / GEOLOGY BLDG., 595 CIRCLE DR E. RM 3806              COMMENT
LOS ANGELES CA 90024 DJACKSON@CYCLOP.ESS.UCLA.EDU           COMMENT
BIT 2 OF LLI (+4) FLAGS DATA COLLECTED UNDER "AS" CONDITION COMMENT
BIG BEAR 1991                                               MARKER NAME
X. BOB GE UCLA                                              OBSERVER / AGENCY
1051 TRIMBLE 4000 SST 4.81                                  REC # / TYPE / VERS
3574 TRIMBLE 4000 SST                                       ANT # / TYPE
 -2386883.0000 -4708011.0000  3571867.0000                  APPROX POSITION XYZ
        1.2833        0.0000        0.0000                  ANTENNA: DELTA H/E/N
     1     1                                                WAVELENGTH FACT L1/2
     3    C1    L1    L2                                    # / TYPES OF OBSERV
    30                                                      INTERVAL
  1995     6     8     0     1   30.000000                  TIME OF FIRST OBS
                                                            END OF HEADER
 95  6  8  0  1 30.0000000  0  7  6 16  5 17 20 26 23
  20548130.141          -0.95117
  22528021.063          -0.02516
  24597403.070          -0.73215
  21931395.180          -0.10516
  22192078.539          -0.17917
  23574517.672          -0.45316
  23737958.531          -0.85015
 95  6  8  0  2  0.0000000  0  7  6 16  5 17 20 26 23
  20536311.953      -62110.115 7        -0.48538
  22535049.484       36925.869 6        -0.41637
  24610445.570       68574.385 5
  21914374.586      -89421.762 6        -0.31937
  22200428.781       43879.838 6        -0.11437
  23552979.969     -113174.209 5
  23711449.477     -139292.496 5
 95  6  8  0  2 30.0000000  0  7  6 16  5 17 20 26 23
  20524573.656     -123798.035 7    -48069.00028
  22542158.836       74279.483 7     29106.29027
  24623501.852      137182.626 5        -0.03833
  21897404.305     -178600.106 6    -69489.90927
  22208847.984       88149.250 6     34495.47727
  23531499.570     -226040.622 5        -0.09535
  23684994.484     -278319.731 5        -0.32535
 95  6  8  0  3  0.0000000  0  7  6 16  5 17 20 26 23
  20512917.695     -185043.212 7    -95792.49928
  22549346.242      112059.926 7     58545.57427
  24636564.383      205818.000 5     53481.86621
  21880480.422     -267518.947 6   -138777.28827
  22217351.938      132809.854 6     69295.91727
  23510083.883     -338599.915 5    -87708.58325
  23658584.656     -417084.190 5   -108128.37325
 95  6  8  0  3 30.0000000  0  7  6 16  5 17 20 26 23
  20501352.016     -245837.665 7   -143164.78828
  22556613.703      150248.589 6     88302.97027
  24649634.297      274474.236 5    106979.99822
  21863611.523     -356161.583 6   -207849.45027
  22225922.930      177848.928 6    104391.26227
  23488722.641     -450851.050 5   -175176.93325
  23632234.297     -555577.525 5   -216045.14425
 95  6  8  0  4  0.0000000  0  7  6 16  5 17 20 26 23
  20489870.602     -306163.355 7   -190171.81628
  22563957.406      188834.188 7    118369.65527
  24662701.313      343174.480 5    160512.43623
  21846802.508     -444515.184 6   -276696.38027
  22234565.148      223260.195 6    139776.62827
  23467419.680     -562786.404 5   -262399.27925
  23605929.211     -693805.321 5   -323755.01725
 95  6  8  0  4 30.0000000  0  7  6 16  5 17 20 26 23
  20478479.406     -366018.306 7   -236812.01728
  22571368.648      227802.890 7    148734.88227
  24675782.477      411913.762 5    214075.25323
  21830048.531     -532572.757 6   -345312.63527
  22243274.680      269041.806 6    175450.55927
  23446180.547     -674416.755 6   -349383.87325
  23579673.953     -831792.566 5   -431277.46825
 95  6  8  0  5  0.0000000  0  7  6 16  5 17 20 26 23
  20467179.047     -425407.206 7   -283089.06928
  22578856.797      267136.589 6    179384.51627
  24688878.523      480708.785 5    267681.52822
  21813343.102     -620337.688 6   -413700.87127
  22252058.672      315190.609 6    211410.63427
  23424990.773     -785749.421 5   -436136.56425
  23553459.828     -969534.915 5   -538609.07025
 95  6  8  0  5 30.0000000  0  7  6 16  5 17 20 26 23
  20455962.484     -484340.560 7   -329011.16328
  22586407.938      306827.114 6    210312.18427
  24701973.961      549569.330 5    321338.85422
  21796696.508     -707821.295 6   -481869.88327
  22260909.859      361700.645 6    247652.18327
  23403857.758     -896783.241 5   -522656.35325
  23527296.648    -1107011.091 5   -645733.26725
 95  6  8  0  6  0.0000000  0  7  6 16  5 17 20 26 23
  20444835.063     -542822.778 7   -374581.72128
  22594034.445      346880.097 7    241522.30727
  24715084.664      618472.627 5    375029.41721
  21780101.344     -795037.911 7   -549830.86027
  22269827.250      408578.881 6    284180.63927
  23382789.383    -1007522.474 6   -608946.63325
  23501189.906    -1244214.251 5   -752644.75925
 95  6  8  0  6 30.0000000  0  7  6 16  5 17 20 26 23
  20433791.961     -600866.596 7   -419810.66528
  22601723.492      387306.807 7    273023.61227
  24728214.539      687400.429 5    428739.17921
  21763551.469     -881995.083 6   -617589.67526
  22278817.445      455833.655 6    321002.50426
  23361773.437    -1117958.230 6   -695000.41125
  23475129.648    -1381131.299 5   -859333.29225
 95  6  8  0  7  0.0000000  0  7  6 16  5 17 20 26 23
  20422823.070     -658495.311 7   -464716.15528
  22609488.359      428091.039 7    304803.52327
  24741325.242      756327.066 5    482448.00422
  21747046.781     -968727.403 6   -685173.26327
  22287879.078      503431.365 6    358091.58926
  23340818.711    -1228103.880 6   -780828.12425
  23449138.633    -1517770.802 5   -965805.55125
 95  6  8  0  7 30.0000000  0  7  6 16  5 17 20 26 23
  20411939.758     -715693.516 7   -509286.20128
  22617319.586      469255.672 7    336879.84927
  24754433.570      825238.521 5    536144.97922
  21730590.188    -1055221.812 6   -752571.48626
  22296998.531      551379.543 6    395453.76726
  23319910.789    -1337938.017 5   -866413.12325
  23423187.195    -1654129.033 5  -1072058.64925
 95  6  8  0  8  0.0000000  0  7  6 16  5 17 20 26 23
  20401143.297     -772433.908 7   -553499.48428
  22625228.125      510822.510 7    369269.57927
  24767545.586      894141.711 4    589835.46522
  21714176.117    -1141461.851 6   -819771.48927
  22306190.523      599684.650 6    433094.06226
  23299081.023    -1447446.487 6   -951744.33925
  23397282.867    -1790218.351 5  -1178102.18825
 95  6  8  0  8 30.0000000  0  7  6 16  5 17 20 26 23
  20390430.938     -828724.726 7   -597362.46328
  22633215.250      552779.079 7    401963.00627
  24780660.680      963054.059 3    643533.17822
  21697814.617    -1227456.024 6   -886779.92027
  22315447.719      648323.314 6    470994.26226
  23278304.289    -1556642.324 6  -1036831.96725
  23371437.586    -1926054.557 5  -1283948.50525
 95  6  8  0  9  0.0000000  0  7  6 16  5 17 20 26 23
  20379811.195     -884541.402 7   -640855.97528
  22641268.875      595117.249 7    434953.75227
  24793764.992     1031979.776 1    697241.21121
  21681495.906    -1313200.973 6   -953594.14727
  22324768.445      697293.432 6    509152.76326
  23257579.117    -1665531.382 5  -1121680.48625
  23345640.086    -2061637.672 5  -1389597.60525
 95  6  8  0  9 30.0000000  0  6  6 16 17 20 26 23
  20369273.922     -939888.313 7   -683983.42828
  22649394.820      637823.467 7    468231.34827
  21665232.523    -1398688.031 6  -1020207.40027
  22334150.180      746581.594 6    547559.07526
  23236914.125    -1774125.836 6  -1206299.44225
  23319884.891    -2196970.613 5  -1495051.76525
 95  6  8  0 10  0.0000000  0  6  6 16 17 20 26 23
  20358832.438     -994769.796 7   -726748.21628
  22657590.789      680889.645 7    501789.36727
  21649010.625    -1483910.004 6  -1086614.12227
  22343590.516      796186.869 6    586212.48526
  23216305.156    -1882417.589 6  -1290682.53625
  23294181.320    -2332032.408 5  -1600294.63125
 95  6  8  0 10 30.0000000  0  6  6 16 17 20 26 23
  20348475.414    -1049200.775 7   -769161.96428
  22665851.328      724285.996 6    535604.69927
  21632845.391    -1568874.534 7  -1152820.22927
  22353084.422      846102.332 6    625107.60227
  23195759.094    -1990395.769 6  -1374821.32625
  23268535.977    -2466817.894 5  -1705322.19425
 95  6  8  0 11  0.0000000  0  6  6 16 17 20 26 23
  20338204.914    -1103172.014 7   -811217.46828
  22674166.242      768003.067 6    569669.94526
  21616724.281    -1653570.112 7  -1218816.75127
  22362642.250      896333.518 6    664248.72527
  23175279.805    -2098033.948 6  -1458695.17225
  23242935.422    -2601320.514 5  -1810129.34725
 95  6  8  0 11 30.0000000  0  6  6 16 17 20 26 23
  20328019.828    -1156699.795 7   -852927.42828
  22682546.414      812033.355 6    603979.27427
  21600658.742    -1737991.958 6  -1284599.99327
  22372261.398      946871.030 6    703628.57127
  23154858.617    -2205324.207 6  -1542297.89125
  23217401.500    -2735534.470 5  -1914711.56525
 95  6  8  0 12  0.0000000  0  6  6 16 17 20 26 23
  20317925.469    -1209751.366 7   -894266.31728
  22690987.977      856399.577 6    638550.32327
  21584650.836    -1822129.023 7  -1350161.32627
  22381943.563      997750.306 6    743274.70826
  23134517.109    -2312233.086 6  -1625603.43425
  23191909.625    -2869449.128 5  -2019060.54725
 95  6  8  0 12 30.0000000  0  6  6 16 17 20 26 23
  20307918.711    -1262322.575 7   -935230.89228
  22699499.906      901099.157 7    673381.16426
  21568691.547    -1905996.214 6  -1415512.36027
  22391688.883     1048959.162 6    783177.65426
  23114236.234    -2418771.723 5  -1708620.48826
  23166487.453    -3003085.191 5  -2123192.45825
 95  6  8  0 13  0.0000000  0  6  6 16 17 20 26 23
  20298004.633    -1314423.030 7   -975828.64928
  22708066.531      946141.394 6    708478.99627
  21552779.188    -1989603.757 7  -1480661.06627
  22401495.563     1100490.160 6    823331.62626
  23094035.859    -2524956.066 6  -1791361.46826
  23141108.930    -3136440.108 5  -2227105.30225
 95  6  8  0 13 30.0000000  0  6  6 16 17 20 26 23
  20288175.039    -1366069.869 7  -1016072.94828
  22716705.383      991526.203 7    743843.78727
  21536920.813    -2072969.298 7  -1545621.21427
  22411358.320     1152325.771 6    863722.95926
  23073889.008    -2630806.948 6  -1873842.61925
  23115779.594    -3269525.102 5  -2330807.83425
 95  6  8  0 14  0.0000000  0  6  6 16 17 20 26 23
  20278436.094    -1417262.076 7  -1055962.98627
  22725408.109     1037249.745 7    779472.48727
  21521099.414    -2156101.465 7  -1610399.49727
  22421278.508     1204459.910 6    904346.91426
  23053804.242    -2736328.819 5  -1956067.38925
  23090507.953    -3402344.982 5  -2434303.78025
 95  6  8  0 14 30.0000000  0  6  6 16 17 20 26 23
  20268781.820    -1467988.606 7  -1095490.15727
  22734169.297     1083310.980 6    815364.34627
  21505326.242    -2238986.102 7  -1674984.89327
  22431257.406     1256888.264 6    945200.12526
  23033795.516    -2841511.343 6  -2038027.71925
  23065287.797    -3534870.472 6  -2537570.31925
 95  6  8  0 15  0.0000000  0  6  6 16 17 20 26 23
  20259215.555    -1518260.636 7  -1134663.16927
  22742995.859     1129696.900 6    851509.20327
  21489593.930    -2321617.669 6  -1739373.10127
  22441292.719     1309603.326 6    986276.72726
  23013845.508    -2946367.117 6  -2119733.44525
  23040126.844    -3667094.638 6  -2640602.06925
 95  6  8  0 15 30.0000000  0  6  6 16 17 20 26 23
  20249736.281    -1568074.136 7  -1173478.88727
  22751883.133     1176401.801 6    887902.63627
  21473926.945    -2403998.509 7  -1803565.94927
  22451372.109     1362598.550 6   1027571.64826
  22993948.227    -3050891.509 6  -2201180.98825
  23015021.367    -3799012.844 6  -2743395.39425
 95  6  8  0 16  0.0000000  0  6  6 16 17 20 26 23
  20240348.141    -1617408.415 7  -1211921.18827
  22760831.391     1223427.763 6    924546.21727
  21458299.914    -2486123.102 7  -1867559.12527
  22461513.063     1415892.575 6   1069099.39426
  22974129.312    -3155061.677 6  -2282352.48326
  22989979.461    -3930596.803 6  -2845928.29826
 95  6  8  0 16 30.0000000  0  6  6 16 17 20 26 23
  20231050.305    -1666274.552 7  -1249998.69028
  22769841.250     1270767.047 6    961433.93926
  21442712.477    -2568008.718 7  -1931366.06827
  22471710.953     1469465.427 6   1110844.41226
  22954374.328    -3258881.843 6  -2363251.26425
  22965004.477    -4061855.325 6  -2948207.60425
 95  6  8  0 17  0.0000000  0  6  6 16 17 20 26 23
  20221839.609    -1714665.625 7  -1287706.01528
  22778913.234     1318435.126 6    998577.88027
  21427181.164    -2649647.183 7  -1994980.43727
  22481958.391     1523324.620 6   1152812.56126
  22934690.023    -3362330.011 6  -2443860.16225
  22940094.188    -4192779.820 6  -3050226.63525
 95  6  8  0 17 30.0000000  0  6  6 16 17 20 26 23
  20212722.969    -1762572.596 7  -1325036.12328
  22788042.922     1366414.132 6   1035964.09626
  21411685.289    -2731059.734 7  -2058418.76927
  22492260.008     1577461.944 6   1194997.42526
  22915076.789    -3465389.811 6  -2524166.39225
  22915242.094    -4323379.133 6  -3151992.24925
 95  6  8  0 18  0.0000000  0  6  6 16 17 20 26 23
  20203700.852    -1809985.601 7  -1361981.31828
  22797230.914     1414687.694 6   1073579.85026
  21396236.445    -2812240.034 7  -2121676.10727
  22502610.984     1631866.685 6   1237390.66926
  22895537.758    -3568062.252 6  -2604170.83126
  22890448.305    -4453674.415 6  -3253520.97625
 95  6  8  0 18 30.0000000  0  6  6 16 17 20 26 23
  20194774.797    -1856898.131 7  -1398536.53428
  22806468.563     1463261.193 6   1111429.31727
  21380839.672    -2893160.146 7  -2184730.73027
  22513016.359     1686532.176 6   1279987.09926
  22876070.727    -3670352.708 6  -2683877.60626
  22865706.656    -4583679.602 6  -3354823.66425
 95  6  8  0 18 59.9990000  0  6  6 16 17 20 26 23
  20185943.730    -1903306.076 7  -1434698.56627
  22815770.308     1512119.605 6   1149500.76926
  21365494.925    -2973809.376 7  -2247574.27427
  22523471.354     1741467.989 6   1322794.17226
  22856682.019    -3772256.337 6  -2763282.95526
  22841026.175    -4713399.070 6  -3455903.69526
 95  6  8  0 19 29.9990000  0  6  6 16 17 20 26 23
  20177205.019    -1949228.267 7  -1470482.09227
  22825120.347     1561256.878 7   1187789.54626
  21350195.237    -3054199.523 7  -2310215.92627
  22533970.144     1796668.195 6   1365807.26526
  22837354.222    -3873795.939 6  -2842404.66926
  22816387.808    -4842854.729 6  -3556778.18726
 95  6  8  0 19 59.9990000  0  6  6 16 17 20 26 23
  20168559.737    -1994649.616 7  -1505875.34727
  22834528.120     1610710.073 6   1226324.48127
  21334955.878    -3134289.872 7  -2372623.96127
  22544531.972     1852168.532 6   1409054.24226
  22818109.409    -3974935.544 6  -2921214.69626
  22791813.222    -4972014.039 6  -3657421.73426
 95  6  8  0 20 29.9990000  0  6  6 16 17 20 26 23
  20160007.839    -2039606.382 7  -1540906.60127
  22843999.831     1660461.421 6   1265091.71926
  21319766.956    -3214119.600 7  -2434828.92828
  22555148.604     1907956.617 6   1452525.41226
  22798940.026    -4075687.997 6  -2999723.03126
  22767291.581    -5100879.551 6  -3757836.34126
 95  6  8  0 20 59.9990000  0  6  6 16 17 20 26 23
  20151544.206    -2084090.987 7  -1575569.93127
  22853522.440     1710526.477 6   1304103.43526
  21304616.386    -3293708.550 7  -2496846.27528
  22565826.433     1964044.815 6   1496230.44526
  22779842.472    -4176029.755 6  -3077911.35426
  22742827.409    -5229428.170 6  -3858004.03626
 95  6  8  0 21 29.9990000  0  6  6 16 17 20 26 23
  20143163.714    -2128114.554 7  -1609874.02027
  22863107.612     1760895.953 6   1343352.34726
  21289509.081    -3373079.153 7  -2558693.48627
  22576548.706     2020403.356 6   1540146.12826
  22760823.597    -4275966.650 6  -3155784.21626
  22718425.823    -5357667.379 6  -3957930.64626
 95  6  8  0 21 59.9990000  0  6  6 16 17 20 26 23
  20134882.120    -2171636.833 7  -1643787.48227
  22872755.987     1811583.945 6   1382849.44926
  21274453.651    -3452211.176 7  -2620354.77227
  22587322.323     2077039.211 6   1584277.89226
  22741891.151    -4375481.032 6  -3233327.83326
  22694082.230    -5485583.060 6  -4057605.14026
 95  6  8  0 22 29.9990000  0  6  6 16 17 20 26 23
  20126693.597    -2214659.501 7  -1677311.64027
  22882459.784     1862569.317 6   1422578.30226
  21259443.909    -3531117.358 7  -2681840.09128
  22598147.472     2133905.474 6   1628589.19526
  22723028.456    -4474610.581 6  -3310571.58426
  22669799.847    -5613194.330 6  -4157042.42926
 95  6  8  0 22 59.9990000  0  6  6 16 17 20 26 23
  20118609.519    -2257158.333 7  -1710427.61827
  22892218.940     1913863.208 6   1462547.54326
  21244474.737    -3609756.433 7  -2743117.28528
  22609013.917     2191008.124 6   1673084.69026
  22704238.081    -4573339.775 6  -3387503.35226
  22645579.495    -5740486.240 6  -4256230.87926
 95  6  8  0 23 29.9990000  0  6  6 16 17 20 26 23
  20110623.604    -2299121.078 7  -1743125.86827
  22902035.565     1965452.594 6   1502747.03126
  21229565.011    -3688104.637 7  -2804167.81028
  22619926.925     2248343.070 6   1717761.20926
  22685523.628    -4671677.342 6  -3464129.98526
  22621419.128    -5867445.931 6  -4355160.43626
 95  6  8  0 23 59.9990000  0  6  6 16 17 20 26 23
  20102736.456    -2340565.757 7  -1775420.42528
  22911903.698     2017320.884 6   1543163.86226
  21214712.136    -3766164.212 7  -2864993.42428
  22630875.737     2305906.425 6   1762615.70926
  22666882.729    -4769649.740 6  -3540472.04826
  22597315.214    -5994073.034 6  -4453830.85726
 95  6  8  0 24 29.9990000  0  6  6 16 17 20 26 23
  20094945.753    -2381514.184 7  -1807328.30128
  22921824.956     2069458.069 6   1583790.20426
  21199911.394    -3843945.967 7  -2925602.57728
  22641878.284     2363707.094 6   1807655.12826
  22648305.339    -4867245.042 6  -3616520.29226
  22573285.823    -6120347.136 6  -4552226.20926
 95  6  8  0 24 59.9990000  0  6  6 16 17 20 26 23
  20087243.519    -2421978.948 7  -1838859.28728
  22931798.120     2121861.919 6   1624624.35826
  21185162.214    -3921456.137 7  -2986000.09928
  22652931.159     2421769.604 6   1852898.57726
  22629812.886    -4964440.799 6  -3692257.20326
  22549327.644    -6246259.246 6  -4650339.47926
 95  6  8  0 25 29.9990000  0  6  6 16 17 20 26 23
  20079635.792    -2461952.296 7  -1870007.33828
  22941820.745     2174539.673 6   1665671.98325
  21170462.011    -3998704.511 7  -3046193.60928
  22664027.112     2480094.110 6   1898346.16526
  22611394.550    -5061222.493 6  -3767671.47326
  22525437.503    -6371806.030 6  -4748168.07526
 95  6  8  0 25 59.9990000  0  6  6 16 17 20 26 23
  20072121.401    -2501448.690 7  -1900783.74228
  22951899.636     2227477.868 6   1706922.47126
  21155808.339    -4075709.950 7  -3106197.83228
  22675172.894     2538670.342 6   1943989.93426
  22593062.331    -5157578.195 6  -3842753.80126
  22501609.542    -6497025.497 6  -4845741.61926
 95  6  8  0 26 29.9990000  0  6  6 16 17 20 26 23
  20064695.065    -2540457.960 7  -1931180.57728
  22962022.503     2280676.384 6   1748375.80826
  21141199.948    -4152476.553 7  -3166015.94928
  22686362.479     2597484.435 6   1989819.01426
  22574804.964    -5253492.110 6  -3917491.85526
  22477839.058    -6621937.759 6  -4943075.77526
 95  6  8  0 26 59.9990000  0  6  6 16 17 20 26 23
  20057369.847    -2578958.890 7  -1961181.30127
  22972197.362     2334140.368 6   1790036.02026
  21126638.042    -4228993.758 7  -3225639.71727
  22697599.495     2656525.727 6   2035825.14526
  22556637.636    -5348965.602 6  -3991886.74626
  22454132.519    -6746549.568 6  -5040175.82026
 95  6  8  0 27 29.9990000  0  6  6 16 17 20 26 23
  20050148.894    -2616913.664 7  -1990756.45527
  22982422.675     2387879.062 6   1831910.32626
  21112126.972    -4305253.897 7  -3285063.19527
  22708874.542     2715792.663 6   2082007.11826
  22538557.440    -5443989.311 6  -4065931.15926
  22430475.870    -6870834.791 6  -5137021.39026
 95  6  8  0 27 59.9990000  0  6  6 16 17 20 26 23
  20043030.362    -2654335.614 7  -2019916.41327
  22992694.901     2441874.365 6   1873984.54426
  21097659.714    -4381275.319 7  -3344300.64627
  22720199.065     2775278.519 6   2128359.66226
  22520562.378    -5538578.028 6  -4139636.59326
  22406891.089    -6994790.992 6  -5233610.58226
 95  6  8  0 28 29.9990000  0  6  6 16 17 20 26 23
  20036003.229    -2691254.760 7  -2048684.59427
  23003018.644     2496115.218 6   1916250.10726
  21083233.886    -4457080.253 7  -3403369.39827
  22731549.222     2834944.009 6   2174852.19525
  22502637.683    -5632752.790 6  -4213019.46826
  22383367.519    -7118404.327 6  -5329932.58226
 95  6  8  0 28 59.9990000  0  7  6 16 22 17 20 26 23
  20029071.511    -2727673.868 7  -2077063.12927
  23013385.722     2550602.471 6   1958707.69826
  24313724.831          -0.49213
  21068855.229    -4532658.185 7  -3462261.27527
  22742939.784     2894803.999 5   2221496.27826
  22484796.073    -5726505.274 6  -4286073.28726
  22359911.183    -7241645.513 6  -5425964.63626
 95  6  8  0 29 29.9990000  0  7  6 16 22 17 20 26 23
  20022231.901    -2763614.015 7  -2105068.43527
  23023799.511     2605331.553 6   2001353.71326
  24294635.370     -100319.642 3
  21054512.722    -4608012.983 7  -3520979.28128
  22754368.761     2954857.753 5   2268291.35826
  22467037.198    -5819831.969 6  -4358795.33526
  22336527.761    -7364534.033 6  -5521721.86826
 95  6  8  0 29 59.9990000  0  7  6 16 22 17 20 26 23
  20015482.479    -2799086.024 7  -2132708.96527
  23034264.815     2660311.869 6   2044195.48226
  24275637.112     -200185.979 3
  21040225.605    -4683117.197 7  -3579502.03128
  22765829.081     3015108.526 5   2315239.94126
  22449365.503    -5912721.109 6  -4431176.43926
  22313208.323    -7487077.395 6  -5617210.15526
 95  6  8  0 30 29.9990000  0  7  6 16 22 17 20 26 23
  20008823.190    -2834085.850 7  -2159981.55927
  23044774.370     2715544.730 6   2087234.05626
  24256722.370     -299581.279 3
  21025980.878    -4757959.377 7  -3637820.61328
  22777342.089     3075545.785 6   2362333.84025
  22431769.112    -6005172.009 6  -4503216.05426
  22289952.698    -7609299.497 6  -5712448.09226
 95  6  8  0 30 59.9990000  0  7  6 16 22 17 20 26 23
  20002260.948    -2868574.756 7  -2186856.04027
  23055332.425     2771025.580 6   2130465.85326
  24237892.651     -398488.695 3
  21011787.964    -4832522.822 7  -3695921.97428
  22788882.167     3136199.822 6   2409596.63826
  22414264.120    -6097166.087 6  -4574899.69425
  22266754.956    -7731198.671 6  -5807434.41626
 95  6  8  0 31 29.9990000  0  7  6 16 22 17 20 26 23
  19995797.097    -2902542.269 7  -2213324.24227
  23065934.104     2826742.426 6   2173881.56226
  24219163.831     -496950.018 2        -0.04731
  20997649.581    -4906829.017 7  -3753822.89528
  22800460.073     3197053.294 6   2457014.84726
  22396846.136    -6188706.674 6  -4646229.99826
  22243618.128    -7852774.574 6  -5902168.82926
 95  6  8  0 31 59.9990000  0  7  6 16 22 17 20 26 23
  19989431.956    -2935980.616 7  -2239380.10327
  23076576.190     2882680.432 6   2217469.59426
  24200506.151     -594947.225 3    -76361.43521
  20983559.581    -4980889.513 7  -3811532.36528
  22812078.839     3258092.746 6   2504577.97726
  22379508.159    -6279793.471 6  -4717206.67826
  22220548.433    -7974011.041 6  -5996638.73626
 95  6  8  0 32 29.9990000  0  7  6 16 22 17 20 26 23
  19983171.159    -2968883.130 7  -2265018.42627
  23087261.167     2938826.740 5   2261219.94226
  24181957.815     -692460.994 3   -152346.12621
  20969509.901    -5054721.983 7  -3869064.13628
  22823725.550     3319316.914 6   2552285.05926
  22362263.722    -6370416.808 6  -4787822.21626
  22197540.823    -8094896.496 6  -6090835.13526
 95  6  8  0 32 59.9990000  0  7  6 16 22 17 20 26 23
  19977012.065    -3001249.299 7  -2290238.81827
  23097986.417     2995172.466 5   2305125.65726
  24163494.159     -789496.749 5   -227958.45721
  20955497.862    -5128334.330 7  -3926424.38528
  22835415.175     3380734.969 6   2600143.18926
  22345102.480    -6460579.093 6  -4858078.49026
  22174613.089    -8215401.746 6  -6184735.26726
 95  6  8  0 33 29.9990000  0  7  6 16 22 17 20 26 23
  19970950.964    -3033102.161 7  -2315059.22027
  23108742.534     3051723.428 5   2349191.28726
  24145118.854     -886054.542 5   -303198.24121
  20941534.909    -5201729.380 7  -3983615.31528
  22847133.183     3442332.405 6   2648141.10225
  22328033.706    -6550291.666 6  -4927984.33926
  22151747.753    -8335543.068 6  -6278351.84026
 95  6  8  0 33 59.9990000  0  7  6 16 22 17 20 26 23
  19964981.245    -3064471.809 7  -2339503.09627
  23119544.706     3108470.690 6   2393409.90426
  24126826.417     -982140.635 4   -378070.48121
  20927607.659    -5274910.294 7  -4040639.39328
  22858891.933     3504092.700 6   2696265.93325
  22311046.081    -6639565.404 6  -4997548.24926
  22128951.394    -8455343.594 6  -6371702.82626
 95  6  8  0 34 29.9990000  0  7  6 16 22 17 20 26 23
  19959106.175    -3095345.100 7  -2363560.21427
  23130389.206     3165439.518 6   2437801.16426
  24108628.894    -1077768.867 3   -452585.97921
  20913725.815    -5347848.463 7  -4097474.31428
  22870673.823     3566040.018 6   2744536.48525
  22294146.269    -6728387.190 6  -5066759.99426
  22106224.190    -8574785.045 6  -6464774.04226
 95  6  8  0 34 59.9990000  0  7  6 16 22 17 20 26 23
  19953324.839    -3125729.984 7  -2387236.76827
  23141272.776     3222641.924 6   2482374.43526
  24090515.347    -1172960.352 3   -526761.14522
  20899893.362    -5420541.397 7  -4154118.13428
  22882498.636     3628165.930 6   2792946.20125
  22277324.722    -6816782.434 6  -5135639.34626
  22083561.792    -8693887.876 6  -6557581.38426
 95  6  8  0 35 29.9990000  0  7  6 16 22 17 20 26 23
  19947634.026    -3155634.267 7  -2410538.81827
  23152203.300     3280086.179 6   2527136.17226
  24072476.378    -1267707.031 3   -600589.67021
  20886107.448    -5492990.081 7  -4210571.63127
  22894352.644     3690442.330 6   2841473.18725
  22260582.089    -6904751.730 6  -5204186.80926
  22060954.980    -8812670.792 6  -6650139.44726
 95  6  8  0 35 59.9990000  0  7  6 16 22 17 20 26 23
  19942040.800    -3185030.401 7  -2433444.89927
  23163187.167     3337783.541 6   2572095.10925
  24054544.425    -1361986.224 3   -674053.88221
  20872373.433    -5565172.780 7  -4266817.86128
  22906227.511     3752883.452 5   2890128.51525
  22243930.487    -6992284.086 6  -5272393.78426
  22038422.229    -8931102.676 6  -6742423.96326
 95  6  8  0 36 29.9990000  0  7  6 16 22 17 20 26 23
  19936547.714    -3213894.999 7  -2455936.79227
  23174210.269     3395726.729 6   2617245.63025
  24036691.917    -1455778.705 2   -747138.91521
  20858686.706    -5637087.007 7  -4322854.92028
  22918142.597     3815491.265 5   2938913.75825
  22227353.956    -7079375.649 6  -5340257.27726
  22015948.292    -9049181.284 6  -6834433.22326
 95  6  8  0 36 59.9990000  0  7  6 16 22 17 20 26 23
  19931159.097    -3242216.337 7  -2478005.37027
  23185277.620     3453907.809 6   2662581.52125
  24018953.433    -1549051.514 3   -819819.03521
  20845055.503    -5708742.178 7  -4378690.10927
  22930090.019     3878257.976 5   2987822.80425
  22210865.253    -7166018.226 6  -5407770.93326
  21993550.089    -9166910.585 6  -6926170.30027
 95  6  8  0 37 29.9990000  0  7  6 16 22 17 20 26 23
  19925872.331    -3269998.011 7  -2499653.44028
  23196392.440     3512301.719 6   2708083.23325
  24001297.776    -1641799.171 4   -892089.90721
  20831466.300    -5780146.704 7  -4434329.96828
  22942061.698     3941185.412 5   3036857.09225
  22194471.097    -7252179.429 6  -5474909.47826
  21971212.659    -9284271.669 6  -7017620.43527
 95  6  8  0 37 59.9990000  0  7  6 16 22 17 20 26 23
  19920686.151    -3297249.256 7  -2520888.19327
  23207539.589     3570879.510 5   2753728.21825
  23983753.620    -1734043.071 5   -963968.25221
  20817919.019    -5851308.642 7  -4489780.82928
  22954069.683     4004280.115 5   3086021.74225
  22178166.237    -7337860.136 6  -5541673.60926
  21948949.136    -9401273.651 6  -7108790.75527
 95  6  8  0 38 29.9990000  0  7  6 16 22 17 20 26 23
  19915599.229    -3323982.901 7  -2541719.61328
  23218721.409     3629634.790 6   2799511.50725
  23966286.753    -1825802.009 4  -1035468.73423
  20804424.323    -5922245.952 7  -4545056.63428
  22966107.128     4067531.658 5   3135308.54625
  22161956.698    -7423048.600 6  -5608054.18526
  21926745.933    -9517926.127 6  -7199688.73927
 95  6  8  0 38 59.9990000  0  7  6 16 22 17 20 26 23
  19910608.323    -3350199.233 7  -2562147.93028
  23229939.167     3688581.412 6   2845443.90721
  23948917.058    -1917080.000 5  -1106594.40622
  20790968.065    -5992953.851 7  -4600153.68728
  22978172.925     4130940.593 5   3184718.02925
  22145842.706    -7507733.459 6  -5674042.33526
  21904620.690    -9634214.482 6  -7290303.00727
 95  6  8  0 39 29.9980000  0  7  6 16 22 17 20 26 23
  19905717.850    -3375908.785 7  -2582181.34728
  23241183.318     3747703.577 5   2891513.10722
  23931624.834    -2007907.034 3  -1177368.68222
  20777555.053    -6063431.787 7  -4655071.55128
  22990262.459     4194488.426 6   3234235.72125
  22129821.889    -7591916.748 6  -5739639.66026
  21882560.857    -9750134.311 6  -7380630.12027
 95  6  8  0 39 59.9980000  0  7  6 16 22 17 20 26 23
  19900927.529    -3401085.427 7  -2601799.51828
  23252474.670     3807023.049 6   2937736.03923
  23914429.428    -2098281.805 4  -1247790.52521
  20764193.920    -6133663.174 7  -4709797.29928
  23002381.162     4258169.980 5   3283857.61625
  22113888.647    -7675608.568 6  -5804854.00526
  21860573.584    -9865693.295 6  -7470676.04327
 95  6  8  0 40 29.9980000  0  7  6 16 22 17 20 26 23
  19896240.311    -3425708.722 7  -2620986.50627
  23263804.498     3866554.098 5   2984123.83024
  23897323.740    -2188178.021 5  -1317839.53521
  20750876.139    -6203646.521 7  -4764329.75628
  23014527.014     4321973.850 6   3333574.83225
  22098066.217    -7758790.049 6  -5869670.71526
  21838656.068    -9980867.482 6  -7560422.12927
 95  6  8  0 40 59.9980000  0  7  6 16 22 17 20 26 23
  19891656.795    -3449784.733 7  -2639747.04027
  23275170.428     3926280.870 5   3030664.12225
  23880313.186    -2277573.605 5  -1387498.42921
  20737605.014    -6273386.480 7  -4818672.57528
  23026689.170     4385890.516 5   3383379.94025
  22082330.865    -7841469.985 6  -5934096.57426
  21816810.521   -10095658.122 6  -7649869.33527
 95  6  8  0 41 29.9980000  0  7  6 16 22 17 20 26 23
  19887178.959    -3473325.311 7  -2658090.34927
  23286575.717     3986199.772 5   3077354.12825
  23863405.842    -2366456.103 5  -1456757.47822
  20724379.592    -6342880.690 7  -4872823.88828
  23038873.045     4449912.232 5   3433266.89825
  22066692.943    -7923654.977 6  -5998136.76626
  21795037.662   -10210076.710 6  -7739026.66027
 95  6  8  0 41 59.9980000  0  7  6 16 22 17 20 26 23
  19882802.678    -3496325.073 7  -2676012.24027
  23298017.545     4046317.555 5   3124199.13624
  23846592.717    -2454795.183 5  -1525593.09222
  20711200.428    -6412131.013 7  -4926785.17628
  23051075.420     4514050.626 5   3483244.78725
  22051146.850    -8005343.344 6  -6061789.98726
  21773336.764   -10324123.622 6  -7827894.34027
 95  6  8  0 42 29.9980000  0  7  6 16 22 17 20 26 23
  19878526.475    -3518802.389 7  -2693527.05027
  23309489.443     4106624.932 5   3171191.86924
  23829878.506    -2542587.408 3  -1594002.59522
  20698066.811    -6481155.079 7  -4980570.14128
  23063304.459     4578315.036 5   3533320.86325
  22035694.967    -8086533.618 6  -6125055.06726
  21751707.178   -10437797.009 6  -7916470.95627
 95  6  8  0 42 59.9980000  0  7  6 16 22 17 20 26 23
  19874343.506    -3540769.812 7  -2710644.53427
  23320999.959     4167125.600 5   3218335.20724
  23813282.373    -2629840.073 3  -1661991.65122
  20684977.107    -6549939.494 7  -5034168.37728
  23075561.467     4642709.472 5   3583498.25225
  22020342.850    -8167226.325 6  -6187932.47226
  21730144.162   -10551097.038 6  -8004756.66127
 95  6  8  0 43 29.9980000  0  7  6 16 22 17 20 26 23
  19870262.287    -3562219.644 7  -2727358.69727
  23332552.732     4227819.430 5   3265629.07325
  23796774.326    -2716576.465 3  -1729578.41422
  20671933.678    -6618479.245 7  -5087575.96628
  23087838.264     4707243.631 5   3633784.54025
  22005081.967    -8247417.971 6  -6250419.41926
  21708653.912   -10664017.870 6  -8092746.88627
 95  6  8  0 43 59.9980000  0  7  6 16 22 17 20 26 23
  19866279.365    -3583168.139 7  -2743682.21727
  23344127.615     4288666.407 5   3313042.23624
  23780362.404    -2802840.512 4  -1796797.10921
  20658931.725    -6686813.605 7  -5140823.49828
  23100140.818     4771898.343 5   3684164.72425
  21989911.662    -8327126.842 6  -6312530.18126
  21687241.381   -10776574.448 6  -8180453.27627
 95  6  8  0 44 29.9980000  0  7  6 16 22 17 20 26 23
  19862389.607    -3603607.064 7  -2759608.66227
  23355740.162     4349687.422 5   3360591.05823
  23764034.678    -2888621.016 4  -1863639.04023
  20645974.201    -6754915.980 7  -5193890.28328
  23112468.068     4836684.948 5   3734647.72524
  21974840.709    -8406334.112 6  -6374250.09126
  21665890.904   -10888741.856 6  -8267856.40227
 95  6  8  0 44 59.9980000  0  7  6 16 22 17 20 26 23
  19858602.357    -3623505.704 7  -2775114.09927
  23367388.193     4410905.169 5   3408293.17924
  23747810.740    -2973889.230 5  -1930081.76623
  20633061.678    -6822753.231 7  -5246750.46028
  23124832.107     4901622.630 5   3785248.41424
  21959868.881    -8485020.191 6  -6435563.88626
  21644625.084   -11000491.532 6  -8354934.04327
 95  6  8  0 45 29.9980000  0  7  6 16 22 17 20 26 23
  19854917.107    -3642866.184 7  -2790200.20228
  23379070.092     4472279.571 5   3456117.36124
  23731676.811    -3058667.812 4  -1996142.94623
  20620199.834    -6890358.566 7  -5299429.93328
  23137215.717     4966680.062 5   3835942.39522
  21944988.975    -8563211.930 6  -6496492.46627
  21623435.842   -11111853.824 6  -8441709.83327
 95  6  8  0 45 59.9980000  0  7  6 16 22 17 20 26 23
  19851335.725    -3661683.934 7  -2804863.40027
  23390779.592     4533820.561 5   3504071.34023
  23715637.357    -3142934.331 4  -2061805.17623
  20607376.537    -6957724.221 7  -5351922.63228
  23149606.967     5031834.081 5   3886711.65023
  21930203.162    -8640902.612 6  -6557030.61126
  21602317.662   -11222828.725 6  -8528183.74827
 95  6  8  0 46 29.9980000  0  7  6 16 22 17 20 26 23
  19847855.084    -3679974.217 7  -2819115.57628
  23402517.529     4595513.566 5   3552143.73924
  23699705.107    -3226688.810 4  -2127068.41322
  20594602.857    -7024860.066 7  -5404236.27028
  23162017.537     5097050.862 5   3937529.80223
  21915512.248    -8718104.400 6  -6617187.81226
  21581271.553   -11333432.772 6  -8614368.68027
 95  6  8  0 46 59.9980000  0  7  6 16 22 17 20 26 23
  19844476.857    -3697724.455 7  -2832946.94727
  23414290.139     4657355.528 5   3600332.21121
  23683863.881    -3309934.837 4  -2191935.40524
  20581872.350    -7091760.126 7  -5456366.18628
  23174441.303     5162325.939 5   3988393.38822
  21900916.865    -8794800.327 6  -6676950.82226
  21560293.615   -11443666.987 6  -8700265.42527
 95  6  8  0 47 29.9980000  0  7  6 16 22 17 20 26 23
  19841197.897    -3714950.187 7  -2846369.60327
  23426082.389     4719335.251 5   3648627.99521
  23668113.162    -3392689.297 5  -2256419.36923
  20569188.764    -7158426.843 7  -5508314.25828
  23186873.764     5227638.747 5   4039286.37121
  21886417.451    -8870986.847 6  -6736316.88826
  21539387.178   -11553549.488 7  -8785888.11227
 95  6  8  0 47 59.9980000  0  7  6 16 22 17 20 26 23
  19838022.522    -3731651.647 7  -2859383.72927
  23437909.264     4781475.624 5   3697049.04222
  23652467.350    -3474934.755 5  -2320506.72323
  20556549.037    -7224839.074 7  -5560064.02728
  23199307.381     5293011.274 5   4090225.90222
  21872023.701    -8946635.887 6  -6795264.16526
  21518541.592   -11663053.404 6  -8871215.80327
 95  6  8  0 48 29.9980000  0  7  6 16 22 17 20 26 23
  19834944.514    -3747823.071 7  -2871984.85127
  23449765.584     4843775.046 5   3745593.99722
  23636912.311    -3556670.375 5  -2384196.78823
  20543963.139    -7290989.981 7  -5611610.18228
  23211764.529     5358473.293 5   4141235.13723
  21857732.990    -9021739.223 6  -6853786.20226
  21497784.037   -11772168.301 6  -8956240.35427
 95  6  8  0 48 59.9980000  0  7  6 16 22 17 20 26 23
  19831969.740    -3763453.177 7  -2884164.17128
  23461646.670     4906232.511 5   3794262.12321
  23621449.248    -3637904.734 5  -2447496.30324
  20531422.287    -7356875.687 7  -5662949.66628
  23224240.818     5424038.110 5   4192324.50123
  21843548.803    -9096298.267 6  -6911884.13926
  21477092.865   -11880897.137 6  -9040964.08327
 95  6  8  0 49 29.9980000  0  7  6 16 22 17 20 26 23
  19829097.818    -3778546.350 7  -2895925.09928
  23473566.170     4968841.597 5   3843048.40822
  23606086.865    -3718635.620 5  -2510403.44823
  20518927.896    -7422522.574 7  -5714103.07728
  23236739.287     5489702.062 5   4243491.07723
  21829452.107    -9170334.289 6  -6969574.51226
  21456473.701   -11989238.875 6  -9125386.19227
 95  6  8  0 49 59.9980000  0  7  6 16 22 17 20 26 23
  19826327.678    -3793105.862 7  -2907270.17228
  23485503.342     5031589.570 5   3891942.90922
  23590830.279    -3798855.412 5  -2572912.31524
  20506482.506    -7487948.726 7  -5765084.49328
  23249246.240     5555473.883 5   4294741.74024
  21815462.084    -9243860.725 6  -7026867.80427
  21435934.201   -12097181.963 6  -9209497.64827
 95  6  8  0 50 29.9980000  0  7  6 16 22 17 20 26 23
  19823660.022    -3807124.932 7  -2918194.13528
  23497474.107     5094471.579 3   3940941.83423
  23575663.061    -3878550.399 5  -2635012.31422
  20494072.998    -7553157.358 7  -5815896.40028
  23261793.936     5621352.033 5   4346075.26524
  21801567.756    -9316872.212 6  -7083759.86626
  21415470.139   -12204722.166 6  -9293295.15627
 95  6  8  0 50 59.9980000  0  7  6 16 22 17 20 26 23
  19821092.061    -3820601.551 7  -2928695.40428
  23509455.756     5157503.794 3   3990057.79222
  23560599.928    -3957705.377 5  -2696691.48022
  20481705.146    -7618143.169 7  -5866534.67728
  23274343.053     5687331.668 5   4397487.87825
  21787776.350    -9389351.001 6  -7140236.78827
  21395079.561   -12311849.890 6  -9376771.28027
 95  6  8  0 51 29.9980000  0  7  6 16 22 17 20 26 23
  19818632.529    -3833545.378 7  -2938781.52028
  23521486.045     5220684.163 3   4039289.19624
  23545640.373    -4036303.855 5  -2757937.05123
  20469381.615    -7682897.005 7  -5916992.20928
  23286919.318     5753412.406 5   4448979.24624
  21774090.514    -9461283.803 6  -7196288.28627
  21374779.334   -12418549.012 6  -9459913.40727
 95  6  8  0 51 59.9980000  0  7  6 16 22 17 20 26 23
  19816268.584    -3845967.215 7  -2948460.88227
  23533540.615     5283995.616 3   4088622.69525
  23530779.631    -4114368.709 5  -2818766.77424
  20457107.654    -7747416.988 7  -5967267.51928
  23299509.912     5819572.669 4   4500532.63125
  21760507.803    -9532665.146 6  -7251910.07326
  21354551.342   -12524839.798 6  -9542737.36628
 95  6  8  0 52 29.9980000  0  7  6 16 22 17 20 26 23
  19814003.373    -3857864.378 7  -2957731.41127
  23545605.725     5347438.155 3   4138058.38125
  23516029.920    -4191916.649 5  -2879193.70324
  20444872.068    -7811698.026 7  -6017356.61828
  23312115.779     5885778.199 5   4552121.22825
  21747030.350    -9603498.314 6  -7307104.72526
  21334403.537   -12630747.648 7  -9625262.93127
 95  6  8  0 52 59.9980000  0  7  6 16 22 17 20 26 23
  19811842.818    -3869222.601 7  -2966581.98828
  23557711.053     5411022.859 3   4187604.90823
  23501368.779    -4268941.894 5  -2939213.40724
  20432687.857    -7875716.201 7  -6067240.90929
  23324723.389     5952042.355 5   4603755.53724
  21733652.115    -9673789.741 6  -7361877.22126
  21314319.693   -12736271.275 7  -9707489.08827
 95  6  8  0 53 29.9980000  0  7  6 16 22 17 20 26 23
  19809786.920    -3880022.058 7  -2974997.17227
  23569830.561     5474745.496 2   4237258.87124
  23486815.990    -4345450.183 5  -2998830.20324
  20420560.357    -7939465.135 7  -6116915.39428
  23337335.412     6018359.126 4   4655430.83224
  21720376.975    -9743535.413 6  -7416224.48326
  21294314.170   -12841413.486 7  -9789418.04427
 95  6  8  0 53 59.9980000  0  7  6 16 22 17 20 26 23
  19807843.959    -3890234.872 7  -2982955.22527
  23581980.006     5538630.960 2   4287039.61823
  23472360.553    -4421424.052 5  -3058030.64123
  20408484.576    -8002924.397 7  -6166364.16528
  23349976.428     6084739.786 5   4707155.90525
  21707210.615    -9812723.028 6  -7470136.87926
  21274375.639   -12946159.908 6  -9871038.58728
 95  6  8  0 54 29.9980000  0  7  6 16 22 17 20 26 23
  19806006.732    -3899884.991 7  -2990474.81327
  23594167.631     5602654.737 3   4336928.24722
  23458000.600    -4496864.847 5  -3116815.64724
  20396458.514    -8066113.816 7  -6215602.67329
  23362605.436     6151170.402 5   4758919.89123
  21694150.834    -9881379.896 6  -7523635.66827
  21254516.709   -13050522.055 6  -9952359.71528
 95  6  8  0 54 59.9980000  0  7  6 16 22 17 20 26 23
  19804280.061    -3908965.387 7  -2997550.45228
  23606383.982     5666822.692 3   4386929.24221
  23443749.834    -4571759.944 5  -3175175.46924
  20384485.295    -8129035.093 7  -6264632.24028
  23375271.607     6217683.880 5   4810748.44024
  21681187.139    -9949483.591 6  -7576703.46527
  21234736.318   -13154474.798 6 -10033361.81928
 95  6  8  0 55 29.9980000  0  7  6 16 22 17 20 26 23
  19802657.615    -3917485.303 7  -3004189.35828
  23618622.873     5731123.701 3   4437033.95022
  23429598.467    -4646110.206 5  -3233110.75024
  20372561.146    -8191704.504 7  -6313465.53828
  23387934.061     6284259.293 5   4862625.27722
  21668331.053   -10017024.606 6  -7629332.79127
  21215029.928   -13258009.544 6 -10114038.21528
 95  6  8  0 55 59.9980000  0  7  6 16 22 17 20 26 23
  19801140.131    -3925469.523 7  -3010410.83728
  23630879.740     5795550.587 2   4487236.61321
  23415558.693    -4719906.259 5  -3290614.16624
  20360676.615    -8254144.186 7  -6362119.82528
  23400626.295     6350897.565 5   4914551.02022
  21655584.857   -10084017.207 6  -7681534.80427
  21195415.295   -13361125.574 7 -10194388.33527
 95  6  8  0 56 29.9980000  0  8  6 16 22 17 20 26 23 21
  19799720.053    -3932929.355 7  -3016223.70428
  23643155.717     5860094.838 1   4537530.79121
  23401621.834    -4793154.075 5  -3347690.37124
  20348836.475    -8316376.175 7  -6410612.28829
  23413312.311     6417593.093 5   4966521.44622
  21642940.670   -10150461.692 6  -7733309.70526
  21175869.787   -13463835.541 6 -10274422.04427
  24392127.904          -0.36614
 95  6  8  0 56 59.9980000  0  7  6 22 17 20 26 23 21
  19798401.311    -3939862.680 7  -3021626.32128
  23387786.686    -4865858.059 5  -3404342.84123
  20337031.271    -8378399.334 7  -6458942.00528
  23426015.248     6484336.575 5   5018529.20821
  21630410.334   -10216343.845 7  -7784646.38026
  21156402.506   -13566130.277 6 -10354132.20028
  24366809.912     -133000.385 3
 95  6  8  0 57 29.9980000  0  8  6 16 22 17 20 26 23 21
  19797177.014    -3946278.566 7  -3026625.73128
  23667805.225          -0.39613
  23374048.553    -4938017.002 5  -3460570.58624
  20325267.826    -8440208.447 7  -6507104.95528
  23438716.217     6551109.355 5   5070559.79821
  21617977.936   -10281667.071 6  -7835547.55126
  21137017.865   -13668010.156 7 -10433519.09628
  24341547.232     -265838.471 3        -0.16431
 95  6  8  0 57 59.9980000  0  8  6 16 22 17 20 26 23 21
  19796056.779    -3952176.285 7  -3031221.37828
  23680153.170       64903.359 3
  23360412.498    -5009651.407 5  -3516389.59025
  20313546.998    -8501815.543 7  -6555110.48629
  23451435.553     6617907.573 5   5122610.22421
  21605651.428   -10346435.413 6  -7886016.37326
  21117706.693   -13769487.773 7 -10512592.52827
  24316296.740     -398515.765 3   -103384.93721
 95  6  8  0 58 29.9980000  0  8  6 16 22 17 20 26 23 21
  19795036.170    -3957538.562 7  -3035399.80428
  23692513.436      129904.410 2        -0.43335
  23346889.334    -5080771.121 5  -3571807.52024
  20301863.943    -8563197.603 7  -6602940.66528
  23464144.389     6684720.502 4   5174672.07422
  21593437.584   -10410635.989 6  -7936042.76026
  21098477.357   -13870558.299 7 -10591348.74828
  24291072.748     -531023.179 3   -206637.32521
 95  6  8  0 58 59.9980000  0  8  6 16 22 17 20 26 23 21
  19794113.037    -3962369.715 7  -3039164.35527
  23704903.865      194992.775 3     50717.70125
  23333441.811    -5151377.500 5  -3626825.47024
  20290235.959    -8624345.754 7  -6650588.56628
  23476842.225     6751538.448 3   5226737.91322
  21581324.756   -10474269.602 6  -7985627.37726
  21079318.248   -13971221.663 7 -10669787.69528
  24265890.709     -663358.581 3   -309755.67821
 95  6  8  0 59 29.9980000  0  8  6 16 22 17 20 26 23 21
  19793300.514    -3966652.414 7  -3042501.54427
  23717299.982      260156.519 3    101494.57725
  23320111.748    -5221472.002 5  -3681444.58024
  20278638.443    -8685256.621 7  -6698051.57929
  23489568.217     6818365.903 4   5278811.11822
  21569326.646   -10537339.195 6  -8034772.47326
  21060238.600   -14071485.760 7 -10747915.52928
  24240742.311     -795520.075 3   -412738.58021
 95  6  8  0 59 59.9980000  0  8  6 16 22 17 20 26 23 21
  19792595.107    -3970368.358 7  -3045397.10627
  23729715.748      325389.497 3    152325.40625
  23306871.459    -5291051.549 5  -3735662.40624
  20267094.693    -8745928.768 7  -6745328.57728
  23502298.795     6885196.833 4   5330887.05521
  21557427.803   -10599851.352 6  -8083483.22126
  21041230.537   -14171359.361 7 -10825739.07828
  24215620.076     -927507.056 3   -515585.44821
 95  6  8  1  0 29.9980000  0  8  6 16 22 17 20 26 23 21
  19791998.420    -3973516.444 7  -3047850.17728
  23742153.365      390704.037 4    203219.81125
  23293736.881    -5360092.198 5  -3789460.29725
  20255593.936    -8806345.502 7  -6792406.54828
  23515015.732     6952041.246 3   5382973.45123
  21545642.607   -10661796.245 7  -8131751.91626
  21022301.920   -14270835.911 6 -10903253.25628
  24190547.021    -1059318.835 4   -618295.76721
 95  6  8  1  0 59.9970000  0  8  6 16 22 17 20 26 23 21
  19791500.759    -3976107.788 7  -3049869.42928
  23754594.032      456103.072 4    254180.07224
  23280690.454    -5428592.842 5  -3842837.40925
  20244145.353    -8866518.162 7  -6839294.32228
  23527731.149     7018903.103 3   5435073.46824
  21533959.462   -10723179.714 6  -8179583.16227
  21003446.657   -14369914.254 6 -10980457.11828
  24165505.142    -1190959.873 5   -720873.10621
 95  6  8  1  1 29.9970000  0  8  6 16 22 17 20 26 23 21
  19791120.493    -3978121.378 7  -3051438.47928
  23767058.407      521599.969 5    305216.60422
  23267758.774    -5496552.783 5  -3895793.17124
  20232744.696    -8926441.158 7  -6885987.56328
  23540469.939     7085792.253 4   5487194.79824
  21522385.360   -10783999.388 6  -8226975.10727
  20984674.657   -14468580.706 7 -11057340.04028
  24140467.876    -1322437.165 5   -823322.79923
 95  6  8  1  1 59.9970000  0  8  6 16 22 17 20 26 23 21
  19790836.884    -3979599.193 7  -3052590.03428
  23779542.196      587199.192 5    356332.84922
  23254931.673    -5563973.688 5  -3948328.94323
  20221384.196    -8986130.126 7  -6932498.44328
  23553190.603     7152691.567 4   5539323.97024
  21510917.978   -10844269.115 6  -8273938.53427
  20965974.556   -14566834.281 7 -11133901.23828
  24115492.876    -1453763.720 5   -925655.06222
 95  6  8  1  2 29.9970000  0  8  6 16 22 17 20 26 23 21
  19790650.978    -3980579.510 7  -3053353.92528
  23792042.173      652897.171 4    407525.98521
  23242197.876    -5630869.103 5  -4000455.24524
  20210069.813    -9045597.082 7
  23565927.907     7219587.733 5   5591450.71023
  21499555.353   -10903988.197 6
  20947359.017   -14664672.467 7 -11210138.75628
  24090527.524    -1584954.692 5  -1027881.66622
 95  6  8  1  2 59.9970000  0  8  6 16 22 17 20 26 23 21
  19790558.915    -3981069.220 7
  23804558.431      718697.433 3    458798.80821
  23229571.704    -5697241.017 5  -4052173.59925
  20198791.314    -9104845.642 7  -7025004.01828
  23578651.306     7286465.256 5   5643562.93824
  21488292.345   -10963161.483 6  -8366581.89327
  20928818.782   -14762087.190 7 -11286046.29828
  24065581.610    -1716014.921 5  -1130006.38121
 95  6  8  1  3 29.9970000  0  8  6 16 22 17 20 26 23 21
  19790562.571    -3981066.511 7
  23817107.001      784620.258 4    510167.14622
  23217048.274    -5763080.282 5  -4103476.92322
  20187563.938    -9163863.549 7  -7070991.99829
  23591375.532     7353321.134 5   5695658.27723
  21477137.368   -11021772.868 6  -8412253.08526
  20910364.110   -14859076.808 7 -11361622.59328
  24040669.720    -1846934.612 4  -1232021.58221
 95  6  8  1  3 59.9970000  0  8  6 16 22 17 20 26 23 21
  19790650.720    -3980588.589 7
  23829678.962      850670.067 4    561634.48922
  23204624.993    -5828377.999 5  -4154358.29023
  20176376.673    -9222651.390 7  -7116800.69529
  23604099.032     7420162.441 5   5747742.26023
  21466092.868   -11079814.517 6  -8457480.30726
  20891984.118   -14955651.238 7 -11436875.36028
  24015788.220    -1977712.435 4  -1333926.29823
 95  6  8  1  4 29.9970000  0  8  6 16 22 17 20 26 23 21
  19790835.892    -3979618.881 7  -3052605.43428
  23842266.884      916819.984 2    613179.80421
  23192292.610    -5893150.199 5  -4204830.10525
  20165232.782    -9281215.546 7  -7162435.10428
  23616809.720     7486976.423 5   5799804.97122
  21455155.001   -11137289.459 6  -8502265.98627
  20873687.220   -15051830.908 7 -11511820.53228
  23990911.681    -2108349.558 3  -1435721.36422
 95  6  8  1  4 59.9970000  0  8  6 16 22 17 20 26 23 21
  19791123.657    -3978105.391 7  -3051426.12127
  23854865.071      983088.407 1    664817.54821
  23180075.954    -5957367.096 5  -4254869.25225
  20154135.446    -9339529.511 7  -7207874.53828
  23629525.618     7553805.257 5   5851879.23522
  21444330.392   -11194168.456 6  -8546587.25027
  20855459.743   -15147597.578 7 -11586443.88228
  23966098.165    -2238803.118 3  -1537373.40223
 95  6  8  1  5 29.9970000  0  7  6 22 17 20 26 23 21
  19791512.040    -3976060.507 7  -3049832.72827
  23167955.064    -6021055.550 5  -4304496.63124
  20143085.149    -9397622.115 7  -7253141.48928
  23642240.954     7620625.771 5   5903947.03122
  21433614.876   -11250473.533 6  -8590461.32127
  20837309.399   -15242981.544 7 -11660769.01828
  23941307.970    -2369083.439 3  -1638890.45222
 95  6  8  1  5 59.9970000  0  7  6 22 17 20 26 23 21
  19792006.610    -3973466.557 7  -3047811.49227
  23155936.282    -6084201.337 5  -4353701.12025
  20132067.985    -9455494.954 7  -7298237.19829
  23654955.024     7687434.576 5   5956005.67521
  21423015.813   -11306205.181 7  -8633888.56427
  20819231.399   -15337967.834 7 -11734784.27528
  23916554.267    -2499181.745 4  -1740265.68423
 95  6  8  1  6 29.9970000  0  7  6 22 17 20 26 23 21
  19792607.868    -3970307.093 7  -3045349.58127
  23144019.884    -6146797.424 5  -4402477.29425
  20121098.149    -9513141.330 7  -7343156.45129
  23667668.892     7754230.392 5   6008054.20021
  21412515.970   -11361360.894 7  -8676867.00927
  20801233.642   -15432533.508 7 -11808471.76928
  23891820.157    -2629081.489 4  -1841486.16722
 95  6  8  1  6 59.9970000  0  7  6 22 17 20 26 23 21
  19793313.837    -3966607.489 7  -3042466.80228
  23132217.564    -6208850.718 5  -4450830.53024
  20110171.009    -9570565.448 7  -7387902.51028
  23680365.290     7820998.986 5   6060081.50222
  21402126.118   -11415949.598 6  -8719403.64627
  20783322.251   -15526680.164 7 -11881832.77728
  23867145.024    -2758794.850 5  -1942561.41423
 95  6  8  1  7 29.9970000  0  7  6 22 17 20 26 23 21
  19794120.118    -3962357.373 7  -3039155.02828
  23120519.712    -6270336.469 5  -4498741.52623
  20099292.556    -9627746.602 7  -7432459.24028
  23693082.189     7887749.092 5   6112094.36522
  21391852.235   -11469951.250 7  -8761482.84327
  20765492.626   -15620384.223 7 -11954848.90328
  23842500.056    -2888315.703 5  -2043486.68022
 95  6  8  1  7 59.9970000  0  7  6 22 17 20 26 23 21
  19795028.767    -3957582.062 7  -3035434.01528
  23108913.563    -6331285.161 5  -4546234.00324
  20088452.439    -9684694.368 7  -7476834.12929
  23705768.368     7954464.166 5   6164079.98621
  21381686.173   -11523380.618 6  -8803116.09527
  20747739.329   -15713672.207 7 -12027540.80128
  23817886.274    -3017667.342 5  -2144280.02822
 95  6  8  1  8 29.9970000  0  7  6 22 17 20 26 23 21
  19796037.368    -3952274.497 7  -3031298.26828
  23097424.165    -6391703.777 5  -4593313.43625
  20077660.915    -9741399.214 7  -7521019.71028
  23718460.282     8021157.933 3   6216048.99721
  21371630.251   -11576222.568 6  -8844291.62927
  20730062.110   -15806552.027 7 -12099914.65428
  23793299.470    -3146841.297 5  -2244934.93523
 95  6  8  1  8 59.9970000  0  7  6 22 17 20 26 23 21
  19797152.712    -3946421.032 7  -3026737.15128
  23086028.243    -6451598.636 5  -4639984.75323
  20066917.274    -9797859.593 7  -7565014.80028
  23731152.470     8087833.611 4
  21361687.978   -11628473.793 6  -8885006.84427
  20712462.478   -15899047.361 7 -12171988.91328
  23768743.587    -3275841.098 5  -2345454.16924
 95  6  8  1  9 29.9970000  0  7  6 22 17 20 26 23 21
  19798372.774    -3940002.899 7  -3021736.05028
  23074727.704    -6510960.345 5  -4686240.66424
  20056218.884    -9854079.820 7  -7608822.76728
  23743831.470     8154491.101 4
  21351855.946   -11680136.950 6  -8925263.83927
  20694938.001   -15991150.386 7 -12243757.46728
  23744250.907    -3404665.193 5  -2445836.44923
 95  6  8  1  9 59.9970000  0  7  6 22 17 20 26 23 21
  19799701.798    -3933029.849 7  -3016302.52628
  23063532.571    -6569815.341 5  -4732101.70625
  20045563.212    -9910075.744 7  -7652455.94829
  23756512.478     8221109.151 3        -0.35631
  21342134.806   -11731236.724 6  -8965081.81027
  20677480.993   -16082878.798 7 -12315234.11728
  23719759.157    -3533327.023 5  -2546092.32022
 95  6  8  1 10 29.9970000  0  7  6 22 17 20 26 23 21
  19801136.618    -3925479.601 7  -3010419.23428
  23052422.446    -6628139.971 5  -4777549.48525
  20034955.899    -9965837.509 7  -7695906.67129
  23769180.978     8287697.314 3
  21332515.313   -11781758.942 6  -9004449.77627
  20660105.509   -16174197.209 7 -12386391.30328
  23695311.181    -3661806.600 5  -2646206.15024
 95  6  8  1 10 59.9970000  0  7  6 22 17 20 26 23 21
  19802679.993    -3917367.608 7  -3004098.23028
  23041435.923    -6685933.431 5  -4822583.33725
  20024382.860   -10021368.087 7  -7739177.24829
  23781844.134     8354241.871 3
  21323016.118   -11831709.453 7  -9043372.23327
  20642807.821   -16265087.278 7 -12457214.70428
  23670887.563    -3790101.340 4  -2746175.98923
 95  6  8  1 11 29.9970000  0  7  6 22 17 20 26 23 21
  19804328.774    -3908700.444 7  -2997344.61427
  23030536.814    -6743174.091 5  -4867186.47325
  20013861.595   -10076658.471 7  -7782260.65629
  23794485.884     8420737.744 2
  21313620.235   -11881062.045 6  -9081828.78027
  20625599.407   -16355517.202 7 -12527679.56628
  23646525.837    -3918193.087 5  -2845987.62823
 95  6  8  1 11 59.9970000  0  7  6 22 17 20 26 23 21
  19806082.423    -3899512.164 7  -2990184.94528
  23019746.587    -6799868.973 5  -4911364.27824
  20003387.892   -10131718.482 7  -7825164.55029
  23807146.314     8487170.803 4        -0.32231
  21304346.384   -11929809.311 7  -9119813.64127
  20608471.360   -16445501.194 7 -12597796.93328
  23622189.103    -4046074.044 5  -2945635.01522
 95  6  8  1 12 29.9970000  0  7  6 22 17 20 26 23 21
  19807918.915    -3889831.809 7  -2982641.82827
  23009067.728    -6856003.546 5  -4955105.51624
  19992951.939   -10186555.129 7  -7867894.41129
  23819775.938     8553525.664 3     51704.57921
  21295182.110   -11977946.178 6  -9157322.85627
  20591436.860   -16535040.411 7 -12667567.73528
  23597888.767    -4173746.609 5  -3045120.04422
 95  6  8  1 12 59.9970000  0  7  6 22 17 20 26 23 21
  19809855.509    -3879671.091 7  -2974724.42927
  22998495.806    -6911561.521 5  -4998397.44023
  19982558.626   -10241167.456 7  -7910449.44629
  23832380.345     8619805.407 3    103350.92421
  21286143.782   -12025461.395 6  -9194347.69427
  20574478.532   -16624147.405 7 -12737001.72628
  23573638.376    -4301213.430 5  -3144444.74423
 95  6  8  1 13 29.9970000  0  7  6 22 17 20 26 23 21
  19811878.774    -3869026.178 7  -2966429.69928
  22988038.540    -6966535.384 5  -5041234.23325
  19972207.165   -10295563.794 7  -7952836.19429
  23844983.290     8686011.972 5    154940.25722
  21277222.806   -12072354.655 6  -9230887.89527
  20557605.399   -16712842.249 7 -12806114.56028
  23549411.564    -4428492.911 5  -3243623.44522
 95  6  8  1 13 59.9970000  0  7  6 22 17 20 26 23 21
  19814001.478    -3857886.396 7  -2957749.36828
  22977688.220    -7020925.883 5
  19961901.368   -10349725.602 7
  23857572.040     8752171.601 4    206493.03021
  21268410.642   -12118631.625 6  -9266947.87927
  20540807.978   -16801115.263 7 -12874898.70028
  23525230.751    -4555584.021 5  -3342655.40522
 95  6  8  1 14 29.9970000  0  7  6 22 17 20 26 23 21
  19816216.470    -3846238.442 7  -2948673.06828
  22967445.618    -7074764.519 5
  19951639.220   -10403655.996 7  -8037063.87429
  23870148.571     8818275.324 4    258002.21922
  21259717.337   -12164316.431 6  -9302546.39527
  20524090.290   -16888971.727 7 -12943358.26628
  23501078.040    -4682512.784 5  -3441560.83322
 95  6  8  1 14 59.9970000  0  7  6 22 17 20 26 23 21
  19818532.782    -3834058.417 7  -2939182.16928
  22957296.587    -7128059.272 5
  19941420.017   -10457353.491 7  -8078906.08229
  23882730.501     8884333.396 4    309475.84122
  21251136.079   -12209410.690 6  -9337684.78127
  20507448.892   -16976410.400 7 -13011492.26828
  23476950.142    -4809277.040 5  -3540338.06822
 95  6  8  1 15 29.9970000  0  7  6 22 17 20 26 23 21
  19820954.673    -3821327.767 7  -2929262.19328
  22947259.899    -7180804.187 5        -0.47235
  19931251.915   -10510797.990 7  -8120551.13729
  23895285.610     8950351.642 5    360918.42822
  21242669.196   -12253917.285 6  -9372365.22427
  20490888.798   -17063411.762 7 -13079285.50128
  23452867.181    -4935853.470 4  -3638968.98124
 95  6  8  1 15 59.9970000  0  7  6 22 17 20 26 23 21
  19823479.954    -3808064.158 7  -2918926.93728
  22937333.407    -7233023.568 5    -40690.88425
  19921125.938   -10563999.407 7  -8162006.78329
  23907828.735     9016298.280 4    412305.22622
  21234304.048   -12297862.422 7  -9406608.17327
  20474418.204   -17149987.899 7 -13146747.40228
  23428814.306    -5062239.085 5  -3737451.18224
 95  6  8  1 16 29.9970000  0  7  6 22 17 20 26 23 21
  19826103.587    -3794272.658 7  -2908180.33028
  22927486.438    -7284716.840 5    -80971.36525
  19911043.064   -10616974.106 7  -8203285.75029
  23920364.321     9082145.536 5    463614.57124
  21226051.696   -12341248.040 7  -9440415.14327
  20458019.384   -17236162.419 7 -13213896.35128
  23404802.954    -5188430.356 4  -3835781.97225
 95  6  8  1 16 59.9970000  0  7  6 22 17 20 26 23 21
  19828827.970    -3779972.237 7  -2897037.17928
  22917743.118    -7335881.893 4   -120840.23023
  19901007.220   -10669727.439 7  -8244392.24229
  23932873.056     9147886.889 5    514841.42623
  21217898.751   -12384067.005 7  -9473780.54827
  20441689.806   -17321957.026 7 -13280749.27628
  23380814.540    -5314425.924 4  -3933960.28424
 95  6  8  1 17 29.9970000  0  7  6 22 17 20 26 23 21
  19831648.001    -3765145.923 7  -2885484.23428
  22908115.189    -7386512.928 5   -160292.97125
  19891015.306   -10722234.820 7  -8285307.08629
  23945373.517     9213525.761 5    565988.40824
  21209863.649   -12426292.695 6  -9506683.65527
  20425440.493   -17407355.010 7 -13347293.13129
  23356892.235    -5440203.068 5  -4031968.35125
 95  6  8  1 17 59.9970000  0  6  6 22 17 26 23 21
  19834573.946    -3749780.581 7  -2873511.27027
  22898577.899    -7436615.179 5   -199333.67824
  19881071.321   -10774487.911 7  -8326023.77829
  21201950.587   -12467896.240 6  -9539101.98427
  20409266.610   -17492345.743 7 -13413519.64728
  23332990.392    -5565755.558 4  -4129801.37224
 95  6  8  1 18 29.9970000  0  6  6 22 17 26 23 21
  19837596.689    -3733892.675 7  -2861131.10228
  22889153.407    -7486207.452 5   -237977.03925
  19871174.642   -10826499.483 7  -8366552.26329
  21194152.056   -12508869.336 6  -9571029.03627
  20393173.743   -17576934.655 7 -13479433.05629
  23309147.360    -5691091.945 5  -4227466.04125
 95  6  8  1 18 59.9970000  0  6  6 22 17 26 23 21
  19840711.962    -3717509.204 7  -2848364.77528
  22879807.204    -7535306.328 5   -276235.86523
  19861317.704   -10878292.461 7  -8406910.42529
  21186470.149   -12549230.840 6  -9602479.55927
  20377157.282   -17661108.696 7 -13545023.19229
  23285339.181    -5816226.703 5  -4324973.55425
 95  6  8  1 19 29.9970000  0  6  6 22 17 26 23 21
  19843930.478    -3700616.385 7  -2835201.56728
  22870560.064    -7583881.935 5   -314086.97224
  19851505.954   -10929859.329 7  -8447092.38429
  21178909.274   -12588982.471 6  -9633454.84227
  20361221.642   -17744834.285 7 -13610263.88729
  23261571.353    -5941135.218 5  -4422304.79625
 95  6  8  1 19 59.9970000  0  6  6 22 17 26 23 21
  19847235.454    -3683235.091 7  -2821657.72028
  22861411.134    -7631935.902 5   -351531.63724
  19841732.142   -10981223.411 7  -8487116.34129
  21171453.462   -12628151.140 6  -9663975.88727
  20345371.610   -17828126.154 7 -13675166.62529
  23237838.267    -6065829.448 5  -4519469.06724
 95  6  8  1 20 29.9970000  0  6  6 22 17 26 23 21
  19850637.540    -3665361.687 7  -2807730.41428
  22852372.165    -7679443.025 5   -388550.22424
  19831996.353   -11032377.633 7  -8526976.77029
  21164110.384   -12666740.990 7  -9694045.89027
  20329610.438   -17910969.502 7 -13739719.85329
  23214149.126    -6190307.135 5  -4616464.54724
 95  6  8  1 20 59.9970000  0  6  6 22 17 26 23 21
  19854137.407    -3646961.843 7  -2793392.90328
  22843448.376    -7726368.018 5   -425115.13424
  19822304.071   -11083296.505 7  -8566653.81329
  21156876.728   -12704747.295 6  -9723661.18727
  20313928.110   -17993354.030 7 -13803915.57029
  23190510.884    -6314566.225 5  -4713289.73423
 95  6  8  1 21 29.9970000  0  6  6 22 17 26 23 21
  19857743.548    -3628024.439 7  -2778636.50428
  22834626.610    -7772726.892 5   -461238.92124
  19812663.821   -11133971.096 7  -8606140.50129
  21149757.962   -12742163.321 7  -9752816.52527
  20298333.251   -18075320.638 7 -13867785.63529
  23166896.517    -6438626.733 5  -4809960.15422
 95  6  8  1 21 59.9970000  0  6  6 22 17 26 23 21
  19861446.689    -3608546.391 7  -2763458.83428
  22825905.048    -7818533.540 5   -496932.42725
  19803067.282   -11184396.574 7  -8645433.08329
  21142752.251   -12778969.931 6  -9781496.98027
  20282812.517   -18156868.607 7 -13931329.47829
  23143321.501    -6562505.372 5  -4906488.86823
 95  6  8  1 22 29.9970000  0  6  6 22 17 26 23 21
  19865262.267    -3588507.649 7  -2747844.26028
  22817300.470    -7863779.899 5   -532189.28324
  19793522.149   -11234558.258 7  -8684520.09529
  21135873.728   -12815134.619 7  -9809677.24727
  20267375.134   -18237982.788 7 -13994535.30929
  23119769.220    -6686192.673 4  -5002868.48723
 95  6  8  1 22 59.9970000  0  6  6 22 17 26 23 21
  19869181.353    -3567915.649 7  -2731798.56828
  22808788.431    -7908475.108 5   -567016.73124
  19784025.149   -11284473.608 7  -8723415.17229
  21129109.118   -12850660.815 6  -9837359.97527
  20252018.946   -18318685.297 7 -14057420.36729
  23096274.485    -6809688.751 4  -5099099.08823
 95  6  8  1 23 29.9960000  0  6  6 22 17 26 23 21
  19873196.918    -3546797.559 7  -2715342.95428
  22800383.770    -7952638.573 5   -601429.81025
  19774569.059   -11334164.799 7  -8762135.57329
  21122471.395   -12885560.651 7  -9864554.65727
  20236739.816   -18398976.023 7 -14119984.54029
  23072826.293    -6932992.578 5  -5195179.92024
 95  6  8  1 23 59.9960000  0  6  6 22 17 26 23 21
  19877314.348    -3525163.743 7  -2698485.45128
  22792088.691    -7996252.977 5   -635415.04825
  19765151.473   -11383641.081 7  -8800688.52829
  21115947.723   -12919847.960 7  -9891272.00627
  20221545.840   -18478834.441 7 -14182211.86329
  23049407.496    -7056097.877 5  -5291106.02723
 95  6  8  1 24 29.9960000  0  6  6 22 17 26 23 21
  19881528.020    -3503034.427 7  -2681241.84828
  22783897.184    -8039320.530 5   -668974.17525
  19755780.582   -11432911.236 7  -8839080.85029
  21109530.793   -12953555.110 7  -9917537.31827
  20206426.387   -18558282.498 7 -14244119.43129
  23026007.066    -7178997.274 4  -5386871.70023
 95  6  8  1 24 59.9960000  0  6  6 22 17 26 23 21
  19885832.059    -3480425.523 7  -2663624.54628
  22775803.777    -8081832.124 5   -702100.09025
  19746443.184   -11481962.652 7  -8877302.73129
  21103224.332   -12986698.782 7  -9943363.55527
  20191390.426   -18637310.204 7 -14305699.42029
  23002661.106    -7301688.205 5  -5482474.97124
 95  6  8  1 25 29.9960000  0  6  6 22 17 26 23 21
  19890221.418    -3457335.029 7  -2645631.97528
  22767822.184    -8123788.831 5   -734793.64025
  19737158.449   -11530771.274 7  -8915335.41829
  21097026.254   -13019273.382 6  -9968746.36027
  20176432.129   -18715894.293 7 -14366933.75829
  22979358.887    -7424160.123 5  -5577907.56324
 95  6  8  1 25 59.9960000  0  6  6 22 17 26 23 21
  19894707.856    -3433773.402 7  -2627272.28627
  22759944.473    -8165209.217 5   -767069.30725
  19727913.121   -11579339.952 7  -8953181.13929
  21090939.082   -13051279.671 6  -9993686.32227
  20161557.645   -18794047.128 7 -14427832.06429
  22956089.270    -7546413.755 5  -5673170.07024
 95  6  8  1 26 29.9960000  0  6  6 22 17 26 23 21
  19899280.395    -3409736.661 7  -2608542.39228
  22752154.223    -8206119.385 5   -798947.34825
  19718715.066   -11627673.237 7  -8990843.43829
  21084958.527   -13082704.693 6 -10018173.34627
  20146768.699   -18871772.984 7 -14488397.63828
  22932865.684    -7668450.082 5  -5768263.23023
 95  6  8  1 26 59.9960000  0  6  6 22 17 26 23 21
  19903952.465    -3385190.294 7  -2589415.38128
  22744463.004    -8246511.385 5   -830421.64325
  19709566.965   -11675753.359 7  -9028308.47629
  21079093.043   -13113505.612 6 -10042174.05527
  20132065.184   -18949042.558 7 -14548607.68028
  22909693.090    -7790252.205 5  -5863173.90825
 95  6  8  1 27 29.9960000  0  6  6 22 17 26 23 21
  19908726.488    -3360101.032 7  -2569865.34828
  22736880.934    -8286389.056 5   -861495.16125
  19700470.301   -11723565.919 7  -9065565.02129
  21073356.199   -13143648.632 6 -10065662.11527
  20117450.387   -19025859.826 7 -14608465.26928
  22886566.207    -7911794.086 5  -5957881.80724
 95  6  8  1 27 59.9960000  0  6  6 22 17 26 23 21
  19913599.145    -3334484.413 7  -2549904.37128
  22729377.699    -8325774.980 5   -892185.51125
  19691412.926   -11771148.398 7  -9102642.27929
  21067742.832   -13173153.240 6 -10088652.71927
  20102911.348   -19102266.334 7 -14668002.79128
  22863481.566    -8033108.610 5  -6052412.51524
 95  6  8  1 28 29.9960000  0  6  6 22 17 26 23 21
  19918575.699    -3308339.068 7  -2529531.40428
  22721983.582    -8364656.020 5   -922482.45325
  19682403.004   -11818496.460 7  -9139536.88729
  21062248.098   -13202028.879 6 -10111153.22727
  20088447.449   -19178265.322 7 -14727222.76028
  22840430.480    -8154203.833 5  -6146772.37524
 95  6  8  1 28 59.9960000  0  6  6 22 17 26 23 21
  19923646.121    -3281692.720 7  -2508768.04828
  22714675.949    -8403033.333 5   -952386.87824
  19673436.316   -11865618.417 7  -9176255.28629
  21056866.137   -13230307.155 6 -10133188.24027
  20074053.887   -19253891.520 7 -14786152.24528
  22817430.168    -8275105.791 5  -6240981.61323
 95  6  8  1 29 29.9960000  0  6  6 22 17 26 23 21
  19928809.629    -3254561.553 7  -2487626.91128
  22707474.848    -8440890.486 5   -981885.95524
  19664508.637   -11912521.242 7  -9212802.93729
  21051597.527   -13258007.300 7 -10154772.75927
  20059734.176   -19329149.573 7 -14844794.85828
  22794454.270    -8395816.499 5  -6335041.83123
 95  6  8  1 29 59.9960000  0  6  6 22 17 26 23 21
  19934062.840    -3226946.135 7  -2466108.44728
  22700373.926    -8478190.858 5  -1010951.23325
  19655628.980   -11959201.761 7  -9249177.36929
  21046434.941   -13285125.585 7 -10175903.85927
  20045492.879   -19404004.749 7 -14903123.54828
  22771523.660    -8516335.663 5  -6428952.79723
 95  6  8  1 30 29.9960000  0  6  6 22 17 26 23 21
  19939410.809    -3198848.153 7  -2444213.94328
  22693389.090    -8514924.762 5  -1039575.04524
  19646791.465   -12005642.064 7  -9285364.61329
  21041385.231   -13311652.090 7 -10196573.86227
  20031325.231   -19478438.364 7 -14961123.74628
  22748629.441    -8636647.777 5  -6522702.43622
 95  6  8  1 30 59.9960000  0  6  6 22 17 26 23 21
  19944853.004    -3170255.221 7  -2421933.76828
  22686509.301    -8551074.239 5  -1067743.46725
  19638000.637   -12051834.221 7  -9321358.50429
  21036455.309   -13337568.952 7 -10216768.79127
  20017245.340   -19552434.577 7 -15018783.10928
  22725772.926    -8756735.092 5  -6616276.92024
 95  6  8  1 31 29.9960000  0  6  6 22 17 26 23 21
  19950390.488    -3141162.078 7  -2399263.81628
  22679740.262    -8586645.094 5  -1095461.06124
  19629256.809   -12097778.501 7  -9357159.23829
  21031643.223   -13362863.608 6 -10236478.92027
  20003252.684   -19625967.312 7 -15076081.32028
  22702968.113    -8876583.013 5  -6709664.84525
 95  6  8  1 31 59.9960000  0  6  6 22 17 26 23 21
  19956024.371    -3111554.297 7  -2376192.85227
  22673081.840    -8621649.433 5  -1122737.15924
  19620564.379   -12143452.972 7  -9392749.73629
  21026951.246   -13387518.179 7 -10255690.28627
  19989353.238   -19699020.934 7 -15133006.20628
  22680204.848    -8996182.503 5  -6802859.18024
 95  6  8  1 32 29.9960000  0  6  6 22 17 26 23 21
  19961754.707    -3081426.948 7  -2352717.02827
  22666516.871    -8656104.954 5  -1149585.62324
  19611922.871   -12188865.789 7  -9428136.34629
  21022374.356   -13411549.979 6 -10274416.34627
  19975534.980   -19771612.249 7 -15189570.84428
  22657493.059    -9115533.764 5  -6895860.11325
 95  6  8  1 32 59.9960000  0  6  6 22 17 26 23 21
  19967589.270    -3050784.821 7  -2328840.08128
  22660057.504    -8690029.094 5  -1176020.10423
  19603325.309   -12234038.216 7  -9463335.63929
  21017923.277   -13434973.741 7 -10292668.62927
  19961813.137   -19843747.271 7 -15245779.93428
  22634834.410    -9234641.492 5  -6988671.27825
 95  6  8  1 33 29.9960000  0  6  6 22 17 26 23 21
  19973510.652    -3019656.913 7  -2304584.58628
  22653702.113    -8723459.933 5  -1202070.12525
  19594776.254   -12278987.330 7  -9498360.92329
  21013576.285   -13457815.492 7 -10310467.38127
  19948166.176   -19915445.851 7 -15301648.93729
  22612203.402    -9353523.411 5  -7081306.48125
 95  6  8  1 33 59.9960000  0  6  6 22 17 26 23 21
  19979524.410    -2988046.308 7  -2279952.98227
  22647439.160    -8756390.318 5  -1227730.15425
  19586263.574   -12323716.163 7  -9533214.55329
  21009338.277   -13480083.549 7 -10327819.11327
  19934600.910   -19986729.562 7 -15357194.66928
  22589623.324    -9472185.516 5  -7173770.39925
 95  6  8  1 34 29.9960000  0  6  6 22 17 26 23 21
  19985633.684    -2955954.432 7  -2254946.35027
  22641267.910    -8788798.937 5  -1252983.66125
  19577793.863   -12368226.794 7  -9567898.16429
  21005212.379   -13501765.025 7 -10344713.76327
  19921112.395   -20057609.929 7 -15412426.10129
  22567088.215    -9590618.023 5  -7266055.42225
 95  6  8  1 34 59.9960000  0  6  6 22 17 26 23 21
  19991829.777    -2923391.050 7  -2229572.32427
  22635201.246    -8820683.917 5  -1277829.11225
  19569366.723   -12412500.765 7  -9602397.35829
  21001199.207   -13522837.011 7 -10361133.49727
  19907702.488   -20128090.486 7 -15467345.98929
  22544595.254    -9708816.118 5  -7358157.78625
 95  6  8  1 35 29.9960000  0  6  6 22 17 26 23 21
  19998111.254    -2890373.916 7  -2203844.71327
  22629236.473    -8852043.473 5  -1302265.16825
  19560987.770   -12456534.368 7  -9636709.26029
  20997306.723   -13543299.985 7 -10377078.65527
  19894361.066   -20198197.936 7 -15521975.14829
  22522152.918    -9826789.591 5  -7450085.10925
 95  6  8  1 35 59.9960000  0  6  6 22 17 26 23 21
  20004489.613    -2856867.387 7  -2177735.75927
  22623376.332    -8882851.782 5  -1326271.67125
  19552659.527   -12500318.661 7  -9670826.89529
  20993533.191   -13563120.536 6 -10392523.24727
  19881092.902   -20267907.696 7 -15576294.41729
  22499747.215    -9944518.467 5  -7541821.83325
 95  6  8  1 36 29.9960000  0  6  6 22 17 26 23 21
  20010960.738    -2822872.056 7  -2151245.92127
  22617619.871    -8913126.403 5  -1349862.27025
  19544373.660   -12543853.989 7  -9704750.52929
  20989883.895   -13582296.592 6 -10407465.62427
  19867907.426   -20337209.311 7 -15630295.66229
  22477397.684   -10061995.918 5  -7633362.65425
 95  6  8  1 36 59.9960000  0  6  6 22 17 26 23 21
  20017517.316    -2788379.569 7  -2124368.68727
  22611953.520    -8942865.307 5  -1373035.45025
  19536138.371   -12587131.620 7  -9738473.35129
  20986356.582   -13600834.614 6 -10421910.82127
  19854802.098   -20406076.722 7 -15683958.55328
  22455085.184   -10179208.793 5  -7724697.30725
 95  6  8  1 37 29.9960000  0  6  6 22 17 26 23 21
  20024182.629    -2753386.185 7  -2097101.14127
  22606394.738    -8972069.162 5  -1395791.74124
  19527947.098   -12630167.320 7  -9772007.66629
  20982949.551   -13618744.604 6 -10435866.67026
  19841779.066   -20474502.398 7 -15737277.25628
  22432830.582   -10296163.731 5  -7815830.95525
 95  6  8  1 37 59.9960000  0  6  6 22 17 26 23 21
  20030931.645    -2717897.745 6  -2069447.84327
  22600939.262    -9000762.540 5  -1418150.23625
  19519802.379   -12672977.722 7  -9805366.41529
  20979655.309   -13636050.347 7 -10449351.65827
  19828845.324   -20542489.184 7 -15790253.95328
  22410622.785   -10412888.366 5  -7906785.15025
 95  6  8  1 38 29.9960000  0  6  6 22 17 26 23 21
  20037779.879    -2681910.976 6  -2041406.23027
  22595575.754    -9028934.404 5  -1440102.38225
  19511700.879   -12715537.312 7  -9838529.73329
  20976477.715   -13652753.046 6 -10462366.75527
  19815991.043   -20610043.765 7 -15842893.86128
  22388443.293   -10529379.897 5  -7997557.71325
 95  6  8  1 38 59.9960000  0  6  6 22 17 26 23 21
  20044718.160    -2645443.801 6  -2012990.29127
  22590316.246    -9056588.712 5  -1461651.20425
  19503646.004   -12757862.355 7  -9871510.29029
  20973412.801   -13668867.672 7 -10474923.61327
  19803209.980   -20677186.734 7 -15895213.04128
  22366324.926   -10645658.711 5  -8088164.50225
 95  6  8  1 39 29.9960000  0  6  6 22 17 26 23 21
  20051750.106    -2608510.821 6  -1984211.37627
  22585140.699    -9083746.464 5  -1482813.09624
  19495636.020   -12799956.363 7  -9904310.80729
  20970453.137   -13684405.216 7 -10487030.76927
  19790507.238   -20743941.113 7 -15947229.42329
  22344228.559   -10761744.789 5  -8178621.13025
 95  6  8  1 39 59.9960000  0  6  6 22 17 26 23 21
  20058865.871    -2571115.972 7  -1955072.56727
  22580074.246    -9110405.450 5  -1503586.34925
  19487672.879   -12841799.859 7  -9936916.12429
  20967606.918   -13699368.500 7 -10498690.48127
  19777881.098   -20810300.944 7 -15998938.35529
  22322177.715   -10877620.668 5  -8268913.95825
 95  6  8  1 40 29.9960000  0  6  6 22 17 26 23 21
  20066067.043    -2533268.900 7  -1925581.37827
  22575093.176    -9136556.724 5  -1523963.97625
  19479760.066   -12883395.051 7  -9969327.97429
  20964869.473   -13713748.629 7 -10509895.77527
  19765330.160   -20876252.469 7 -16050329.14129
  22300170.793   -10993256.791 5  -8359019.96425
 95  6  8  1 40 59.9960000  0  6  6 22 17 26 23 21
  20073354.973    -2494975.135 7  -1895742.11328
  22570213.996    -9162207.776 5  -1543951.83024
  19471895.020   -12924741.217 7 -10001545.76929
  20962245.395   -13727538.420 7 -10520641.07227
  19752858.152   -20941776.857 7 -16101387.08728
  22278226.605   -11108642.588 5  -8448930.95025
 95  6  8  1 41 29.9960000  0  6  6 22 17 26 23 21
  20080730.129    -2456224.542 7  -1865546.86727
  22565431.605    -9187359.357 5  -1563550.49225
  19464071.551   -12965824.287 7 -10033558.54629
  20959736.559   -13740720.709 7 -10530913.01027
  19740479.145   -21006862.137 7 -16152102.87429
  22256308.246   -11223775.137 5  -8538644.57025
 95  6  8  1 41 59.9960000  0  6  6 22 17 26 23 21
  20088186.215    -2417030.878 7  -1835006.38327
  22560735.426    -9212030.005 5  -1582774.39525
  19456301.543   -13006677.157 7 -10065391.95429
  20957343.066   -13753299.318 6 -10540714.50126
  19728168.824   -21071517.315 7 -16202483.51528
  22234446.527   -11338666.586 5  -8628170.31725
 95  6  8  1 42 29.9960000  0  6  6 22 17 26 23 21
  20095732.145    -2377380.232 7  -1804109.81627
  22556122.660    -9236211.598 5  -1601617.22925
  19448571.160   -13047305.971 7 -10097050.77629
  20955066.512   -13765253.697 6 -10550029.61827
  19715953.676   -21135737.792 7 -16252525.41628
  22212630.731   -11453320.794 5  -8717511.19625
 95  6  8  1 42 59.9960000  0  6  6 22 17 26 23 21
  20103370.176    -2337242.163 7  -1772833.44627
  22551632.207    -9259865.329 5  -1620048.71524
  19440883.973   -13087679.857 7 -10128510.94329
  20952917.090   -13776560.430 7 -10558840.05226
  19703817.731   -21199510.312 7 -16302218.29828
  22190856.863   -11567733.211 5  -8806663.66725
 95  6  8  1 43 29.9960000  0  6  6 22 17 26 23 21
  20111098.918    -2296635.473 7  -1741191.90727
  22547231.113    -9282989.676 5  -1638067.71924
  19433247.137   -13127828.385 7 -10159795.51429
  20950882.316   -13787250.719 6 -10567170.11126
  19691763.059   -21262851.635 7 -16351575.12928
  22169126.051   -11681916.854 5  -8895637.86125
 95  6  8  1 43 59.9960000  0  6  6 22 17 26 23 21
  20118912.152    -2255554.377 7  -1709180.70227
  22542939.754    -9305558.929 5  -1655654.16224
  19425644.988   -13167749.499 7 -10190902.89029
  20948965.418   -13797335.850 6 -10575028.65726
  19679796.262   -21325752.254 7 -16400588.58528
  22147451.379   -11795849.206 6  -8984416.27325
 95  6  8  1 44 29.9960000  0  6  6 22 17 26 23 21
  20126822.215    -2213998.125 7  -1676799.23527
  22538746.840    -9327559.957 5  -1672797.85724
  19418098.402   -13207436.493 7 -10221827.82129
  20947156.316   -13806835.727 6 -10582431.15727
  19667908.621   -21388220.091 7 -16449264.80528
  22125814.098   -11909531.984 5  -9073000.18625
 95  6  8  1 44 59.9960000  0  6  6 22 17 26 23 21
  20134822.199    -2171965.978 7  -1644046.94827
  22534660.887    -9349003.491 5  -1689507.15424
  19410592.590   -13246886.019 7 -10252567.71429
  20945458.871   -13815764.534 7 -10589388.67627
  19656100.402   -21450262.060 7 -16497609.18228
  22104231.988   -12022957.315 5  -9161383.52925
 95  6  8  1 45 29.9960000  0  6  6 22 17 26 23 21
  20142902.715    -2129484.845 6  -1610944.80727
  22530690.543    -9369931.258 5  -1705814.51225
  19403122.512   -13286118.862 7 -10283138.76229
  20943863.082   -13824145.948 7 -10595919.64127
  19644372.824   -21511895.794 7 -16545635.44528
  22082696.551   -12136119.928 5  -9249562.15025
 95  6  8  1 45 59.9960000  0  6  6 22 17 26 23 21
  20151075.465    -2086548.493 6  -1577487.94927
  22526797.996    -9390362.759 5  -1721735.18124
  19395702.379   -13325122.311 7 -10313531.06629
  20942375.566   -13831970.396 7 -10602016.61227
  19632716.988   -21573136.141 7 -16593355.17328
  22061211.004   -12249026.239 5  -9337541.03825
 95  6  8  1 46 29.9960000  0  6  6 22 17 26 23 21
  20159330.520    -2043168.424 6  -1543685.32127
  22522997.043    -9410326.481 5  -1737291.37424
  19388321.504   -13363892.959 7 -10343741.96629
  20940992.254   -13839234.084 7 -10607676.64027
  19621134.106   -21634004.907 7 -16640785.36328
  22039775.512   -12361686.393 5  -9425328.12625
 95  6  8  1 46 59.9950000  0  6  6 22 17 26 23 21
  20167664.202    -1999370.305 7  -1509556.96327
  22519272.288    -9429837.882 5  -1752495.09225
  19380988.905   -13402423.016 7 -10373765.39129
  20939717.624   -13845933.914 7 -10612897.28227
  19609624.312   -21694505.619 7 -16687928.77428
  22018385.874   -12474097.514 5  -9512921.15325
 95  6  8  1 47 29.9950000  0  6  6 22 17 26 23 21
  20176082.562    -1955134.176 7  -1475087.29427
  22515665.062    -9448862.411 5  -1767319.43325
  19373714.241   -13440680.390 7 -10403576.33029
  20938554.413   -13852034.135 7 -10617650.69627
  19598185.288   -21754610.653 7 -16734763.84328
  21997040.655   -12586251.612 5  -9600313.91125
 95  6  8  1 47 59.9950000  0  7  6 28 22 17 26 23 21
  20184579.241    -1910478.264 6  -1440290.52327
  23198625.179          -0.54813
  22512133.296    -9467427.747 5  -1781785.94625
  19366480.398   -13478683.143 7 -10433188.86529
  20937508.374   -13857542.325 6 -10621942.80627
  19586817.335   -21814337.572 7 -16781304.28928
  21975743.187   -12698190.309 5  -9687538.82725
 95  6  8  1 48 29.9950000  0  7  6 28 22 17 26 23 21
  20193159.647    -1865404.331 6  -1405168.00227
  23172305.983     -138359.413 3
  22508689.999    -9485517.150 5  -1795881.60524
  19359300.179   -13516432.452 7 -10462603.92129
  20936577.765   -13862443.291 6 -10625761.75827
  19575529.069   -21873664.008 7 -16827532.65628
  21954485.327   -12809898.137 5  -9774583.84425
 95  6  8  1 48 59.9950000  0  7  6 28 22 17 26 23 21
  20201813.280    -1819913.405 6  -1369720.57727
  23145987.296     -276587.057 3
  22505345.366    -9503116.849 5  -1809595.70025
  19352162.194   -13553935.382 7 -10491826.98629
  20935757.991   -13866736.060 6 -10629106.75227
  19564318.085   -21932570.699 7 -16873433.97328
  21933264.296   -12921380.290 5  -9861453.00625
 95  6  8  1 49 29.9950000  0  7  6 28 22 17 26 23 21
  20210552.999    -1773998.733 6  -1333942.94327
  23119704.757     -414687.640 3
  22502081.405    -9520244.394 5  -1822941.88024
  19345067.671   -13591205.067 7 -10520868.30329
  20935054.413   -13870424.434 6 -10631980.81827
  19553191.257   -21991061.252 7 -16919011.00528
  21912097.280   -13032639.726 5  -9948148.63625
 95  6  8  1 49 59.9950000  0  7  6 28 22 17 26 23 21
  20219373.319    -1727631.279 6  -1297812.50827
  23093465.780     -552635.784 2
  22498912.523    -9536882.619 5  -1835906.77625
  19338024.437   -13628225.129 7 -10549715.10029
  20934471.804   -13873496.732 7 -10634374.84027
  19542141.663   -22049118.733 7 -16964250.59628
  21890972.226   -13143639.322 5 -10034641.77725
 95  6  8  1 50 29.9950000  0  7  6 28 22 17 26 23 21
  20228287.046    -1680808.619 6  -1261327.36327
  23067235.608     -690430.816 2
  22495846.015    -9553022.325 5  -1848483.20325
  19331027.858   -13664986.331 7 -10578360.20229
  20933999.155   -13875978.955 7 -10636309.02627
  19531172.562   -22106750.732 7 -17009158.63828
  21869902.976   -13254376.781 6 -10120930.65725
 95  6  8  1 50 59.9950000  0  7  6 28 22 17 26 23 21
  20237279.577    -1633533.920 6  -1224489.96727
  23041036.718     -828086.559 2
  22492860.562    -9568681.542 5  -1860685.22825
  19324082.382   -13701488.679 7 -10606803.59329
  20933635.554   -13877896.120 7 -10637802.93527
  19520282.351   -22163974.393 7 -17053748.48728
  21848873.796   -13364870.427 5 -10207029.55625
 95  6  8  1 51 29.9950000  0  7  6 28 22 17 26 23 21
  20246361.733    -1585816.315 6  -1187307.45727
  23014866.312     -965619.694 3
  22489971.358    -9583883.919 5  -1872531.27825
  19317181.218   -13737740.312 7 -10635051.61529
  20933375.405   -13879263.963 7 -10638868.76927
  19509469.241   -22220818.130 7 -17098042.29928
  21827891.030   -13475137.643 5 -10292952.01025
 95  6  8  1 51 59.9950000  0  7  6 28 22 17 26 23 21
  20255528.116    -1537649.112 6  -1149774.61827
  22988720.194    -1103014.805 2        -0.10331
  22487163.851    -9598600.554 5  -1883998.82725
  19310336.280   -13773731.491 7 -10663096.68829
  20933221.530   -13880072.106 7 -10639498.50127
  19498722.952   -22277270.164 7 -17142030.88528
  21806953.069   -13585177.506 6 -10378697.31425
 95  6  8  1 52 29.9950000  0  7  6 28 22 17 26 23 21
  20264777.835    -1489032.350 6  -1111891.46927
  22962611.874    -1240256.524 3
  22484459.226    -9612823.149 5  -1895081.41425
  19303538.835   -13809453.540 7 -10690932.05029
  20933178.702   -13880299.832 7
  19488058.038   -22333316.244 7 -17185703.14428
  21786056.812   -13694986.172 6 -10464262.47625
 95  6  8  1 52 59.9950000  0  7  6 28 22 17 26 23 21
  20274111.296    -1439990.376 6  -1073676.98327
  22936522.601    -1377343.297 3
  22481847.718    -9626560.806 5  -1905786.12424
  19296785.069   -13844929.514 7 -10718575.66429
  20933250.679   -13879931.098 7
  19477472.187   -22388960.942 7 -17229062.63328
  21765203.148   -13804550.544 5 -10549637.28425
 95  6  8  1 53 29.9950000  0  7  6 28 22 17 26 23 21
  20283520.624    -1390544.999 6  -1035148.14127
  22910469.616    -1514277.591 3
  22479323.390    -9639821.095 5  -1916118.85825
  19290083.413   -13880175.905 7 -10746040.37929
  20933430.694   -13878967.499 7 -10638637.77527
  19466956.858   -22444209.353 7 -17272113.33328
  21744407.140   -13913861.918 6 -10634814.94325
 95  6  8  1 53 59.9950000  0  7  6 28 22 17 26 23 21
  20293003.632    -1340710.787 6   -996316.33027
  22884427.632    -1651057.567 3        -0.26931
  22476894.382    -9652604.523 5  -1926079.99124
  19283414.663   -13915205.499 7 -10773336.18529
  20933727.382   -13877422.530 7 -10637433.89426
  19456518.366   -22499059.169 7 -17314853.44428
  21723657.585   -14022908.722 6 -10719786.42925
 95  6  8  1 54 29.9950000  0  7  6 28 22 17 26 23 21
  20302560.944    -1290486.423 6   -957180.50127
  22858444.179    -1787672.618 3   -106453.55221
  22474548.468    -9664907.483 5  -1935666.76825
  19276792.101   -13950007.944 7 -10800454.97929
  20934133.796   -13875296.854 7 -10635777.54527
  19446162.327   -22553495.709 7 -17357271.51128
  21702951.874   -14131671.429 6 -10804536.56125
 95  6  8  1 54 59.9950000  0  7  6 28 22 17 26 23 21
  20312194.616    -1239865.559 6   -917735.71827
  22832479.874    -1924120.988 3   -212776.92221
  22472306.101    -9676732.104 5  -1944880.79125
  19270213.624   -13984566.846 7 -10827383.99029
  20934645.929   -13872596.179 7 -10633673.13927
  19435882.366   -22607508.605 7 -17399359.46728
  21682314.554   -14240141.677 6 -10889058.78925
 95  6  8  1 55 29.9950000  0  7  6 28 22 17 26 23 21
  20321911.835    -1188823.006 6   -877962.33227
  22806543.413    -2060391.656 4   -318961.84621
  22470146.249    -9688074.617 5  -1953719.15625
  19263689.046   -14018863.506 7 -10854108.65429
  20935269.819   -13869324.538 6 -10631123.80927
  19425688.265   -22661085.792 7 -17441107.90628
  21661731.147   -14348330.781 6 -10973361.93125
 95  6  8  1 55 59.9950000  0  7  6 28 22 17 26 23 21
  20331702.202    -1137359.192 6   -837860.70427
  22780647.632    -2196488.333 4   -425011.13821
  22468081.319    -9698949.977 5  -1962193.50025
  19257212.069   -14052898.334 7 -10880629.30429
  20935996.569   -13865494.493 7 -10628139.37527
  19415574.429   -22714237.969 7 -17482525.17128
  21641189.663   -14456264.863 6 -11057466.35325
 95  6  8  1 56 29.9950000  0  7  6 28 22 17 26 23 21
  20341573.929    -1085476.666 6   -797432.80927
  22754780.640    -2332418.354 5   -530930.65122
  22466087.093    -9709378.999 5  -1970320.08225
  19250786.046   -14086669.975 7 -10906944.85829
  20936829.054   -13861109.821 6 -10624722.76326
  19405536.733   -22766978.727 7 -17523621.85628
  21620695.483   -14563959.107 6 -11141383.93325
 95  6  8  1 56 59.9950000  0  7  6 28 22 17 26 23 21
  20351531.929    -1033150.324 6   -756659.10327
  22728951.562    -2468168.161 5   -636709.67421
  22464194.648    -9719359.930 5  -1978097.45125
  19244408.632   -14120172.204 7 -10933050.48829
  20937773.421   -13856154.477 6 -10620861.45526
  19395577.515   -22819314.714 7 -17564403.13628
  21600251.702   -14671406.320 6 -11225108.99125
 95  6  8  1 57 29.9950000  0  7  6 28 22 17 26 23 21
  20361572.155     -980378.059 6   -715537.90827
  22703152.616    -2603727.426 5   -742340.21821
  22462377.491    -9728874.695 5  -1985511.61424
  19238087.968   -14153403.481 7 -10958944.98929
  20938824.616   -13850622.309 6 -10616550.70026
  19385693.304   -22871256.694 7 -17604877.39428
  21579850.358   -14778608.541 6 -11308643.15025
 95  6  8  1 57 59.9950000  0  7  6 28 22 17 26 23 21
  20371695.819     -927176.062 6   -674081.85427
  22677389.233    -2739099.431 5   -847824.88322
  22460663.077    -9737915.891 5  -1992556.72725
  19231814.944   -14186371.356 7 -10984634.22929
  20939986.671   -13844501.417 6 -10611781.17226
  19375881.273   -22922816.270 7 -17645053.68828
  21559498.405   -14885549.360 6 -11391973.61125
 95  6  8  1 58 29.9950000  0  7  6 28 22 17 26 23 21
  20381898.765     -873575.478 6   -632315.23027
  22651661.616    -2874307.606 5   -953181.86022
  22459022.015    -9746500.372 5  -1999245.99625
  19225584.507   -14219102.646 7 -11010139.13529
  20941264.194   -13837805.749 6 -10606563.78826
  19366135.812   -22974024.874 7 -17684956.48028
  21539193.515   -14992242.423 6 -11475111.01625
 95  6  8  1 58 59.9950000  0  7  6 28 22 17 26 23 21
  20392167.921     -819582.125 6   -590242.52827
  22625968.226    -3009341.627 5  -1058403.08622
  22457484.038    -9754608.529 5  -2005564.07124
  19219402.007   -14251594.172 7 -11035457.20529
  20942649.601   -13830523.679 6 -10600889.43526
  19356459.358   -23024872.555 7 -17724578.03428
  21518935.655   -15098684.355 6 -11558052.73826
 95  6  8  1 59 29.9950000  0  7  6 28 22 17 26 23 21
  20402510.468     -765249.837 6   -547905.73327
  22600294.702    -3144238.455 5  -1163517.44723
  22456026.405    -9762273.083 5  -2011536.50424
  19213254.765   -14283884.011 7 -11060618.12629
  20944138.476   -13822697.534 6 -10594791.13926
  19346849.187   -23075380.084 7 -17763934.54828
  21498730.366   -15204900.482 6 -11640818.50526
 95  6  8  1 59 59.9950000  0  7  6 28 22 17 26 23 21
  20412920.874     -710541.656 6   -505276.03527
  22574659.694    -3278958.359 5  -1268493.98124
  22454653.249    -9769469.028 5  -2017143.79325
  19207154.788   -14315942.928 7 -11085599.11329
  20945736.726   -13814296.545 6 -10588244.93527
  19337312.538   -23125496.910 7 -17802986.60728
  21478570.108   -15310842.910 6 -11723371.00726
 95  6  8  2  0 29.9950000  0  7  6 28 22 17 26 23 21
  20423412.343     -655402.804 6   -462310.73527
  22549066.460    -3413446.830 5  -1373290.14424
  22453379.968    -9776158.716 5  -2022356.59425
  19201110.515   -14347708.617 7 -11110351.59729
  20947450.835   -13805302.202 6 -10581236.36826
  19327861.202   -23175167.494 7 -17841690.94628
  21458467.944   -15416479.151 6 -11805684.91226
 95  6  8  2  0 59.9950000  0  7  6 28 22 17 26 23 21
  20433984.640     -599851.576 6   -419024.11227
  22523515.140    -3547722.823 5  -1477920.74924
  22452199.905    -9782374.011 5  -2027199.72125
  19195116.858   -14379202.222 7 -11134892.06529
  20949266.694   -13795751.403 6 -10573794.19827
  19318491.866   -23224407.563 7 -17880059.81828
  21438422.929   -15521826.910 6 -11887774.03926
 95  6  8  2  1 29.9950000  0  7  6 28 22 17 26 23 21
  20444623.866     -543927.644 6   -375447.05526
  22497989.765    -3681825.786 5  -1582416.52525
  22451096.937    -9788171.590 5  -2031717.34725
  19189168.897   -14410463.973 7 -11159251.87029
  20951176.944   -13785696.494 6 -10565959.23026
  19309191.444   -23273270.516 7 -17918134.83128
  21418420.944   -15626930.159 6 -11969672.62926
 95  6  8  2  1 59.9950000  0  7  6 28 22 17 26 23 21
  20455339.241     -487641.250 6   -331587.58426
  22472511.210    -3815749.622 5  -1686772.71125
  22450077.741    -9793557.894 5  -2035914.52023
  19183264.343   -14441483.191 7 -11183422.68729
  20953190.835   -13775130.690 6 -10557726.15026
  19299964.085   -23321772.713 7 -17955928.74528
  21398459.663   -15731809.588 6 -12051396.81226
 95  6  8  2  2 29.9950000  0  7  6 28 22 17 26 23 21
  20466124.327     -430970.288 6   -287428.43026
  22447061.913    -3949466.132 5  -1790967.34524
  22449137.460    -9798507.294 5  -2039771.21725
  19177414.866   -14472226.199 7 -11207378.28029
  20955302.905   -13764019.897 6 -10549068.38826
  19290803.788   -23369893.876 7 -17993425.73828
  21378547.062   -15836445.767 6 -12132931.46826
 95  6  8  2  2 59.9950000  0  7  6 28 22 17 26 23 21
  20476977.694     -373928.023 6   -242979.95926
  22421659.679    -4082982.733 5  -1895006.23224
  22448273.296    -9803025.312 5  -2043291.78325
  19171614.913   -14502718.697 7 -11231138.67829
  20957525.601   -13752354.998 6 -10539978.90226
  19281717.874   -23417640.565 7 -18030630.93728
  21358679.351   -15940838.237 6 -12214276.19826
 95  6  8  2  3 29.9950000  0  7  6 28 22 17 26 23 21
  20487904.788     -316490.433 6   -198223.45926
  22396293.390    -4216263.645 5  -1998861.44225
  22447499.827    -9807076.665 5  -2046448.72825
  19165865.585   -14532927.372 7 -11254677.90829
  20959853.663   -13740101.840 6 -10530430.98226
  19272708.085   -23464976.252 7 -18067515.87628
  21338871.022   -16044958.779 6 -12295409.04326
 95  6  8  2  3 59.9950000  0  7  6 28 22 17 26 23 21
  20498909.483     -258686.251 6   -153181.28426
  22370970.460    -4349337.178 5  -2102555.06525
  22446806.179    -9810680.698 5  -2049257.12124
  19160166.038   -14562873.068 7 -11278012.21729
  20962293.241   -13727297.226 6 -10520453.36626
  19263779.444   -23511918.975 7 -18104094.61228
  21319105.390   -16148828.690 6 -12376346.61326
 95  6  8  2  4 29.9950000  0  7  6 28 22 17 26 23 21
  20509986.796     -200487.479 6   -107831.65526
  22345690.624    -4482197.370 5  -2206082.43925
  22446211.835    -9813828.484 5  -2051709.93925
  19154519.952   -14592558.350 7 -11301143.60829
  20964828.241   -13713950.093 6 -10510052.99926
  19254922.562   -23558453.021 7 -18140354.89428
  21299392.866   -16252418.260 6 -12457065.71926
 95  6  8  2  4 59.9950000  0  7  6 28 22 17 26 23 21
  20521136.530     -141889.932 6    -62171.29626
  22320454.148    -4614828.983 6  -2309431.73025
  22445707.585    -9816512.348 5  -2053801.30524
  19148922.976   -14621963.795 7 -11324056.95529
  20967475.835   -13700055.715 6 -10499226.23826
  19246146.421   -23604564.117 7 -18176285.60828
  21279735.312   -16355708.171 6 -12537551.32726
 95  6  8  2  5 29.9950000  0  7  6 28 22 17 26 23 21
  20532356.218      -82909.962 6    -16212.93126
  22295253.319    -4747240.502 5  -2412609.48325
  22445279.163    -9818745.767 5  -2055541.69424
  19143378.187   -14651088.200 7 -11346751.28429
  20970222.530   -13685632.368 6 -10487987.29926
  19237452.687   -23650268.296 7 -18211899.24928
  21260133.554   -16458706.192 6 -12617809.48626
 95  6  8  2  5 59.9950000  0  7  6 28 22 17 26 23 21
  20543644.085      -23602.977 6     30000.25126
  22270085.054    -4879491.423 5  -2515662.09525
  22444927.640    -9820591.095 5  -2056979.65525
  19137877.257   -14680000.418 7 -11369280.29229
  20973054.866   -13670737.234 6 -10476380.71326
  19228818.155   -23695637.396 7 -18247251.77528
  21240577.140   -16561467.193 6 -12697882.95026
 95  6  8  2  6 29.9950000  0  7  6 28 22 17 26 23 21
  20555005.194       36097.890 6     76520.35026
  22244965.405    -5011509.610 5  -2618533.38725
  22444661.546    -9821988.649 5  -2058068.68124
  19132432.413   -14708643.821 7 -11391599.82329
  20975995.991   -13655283.291 6 -10464338.70226
  19220256.515   -23740606.891 7 -18282292.93328
  21221079.655   -16663924.747 6 -12777719.97626
 95  6  8  2  6 59.9950000  0  7  6 28 22 17 26 23 21
  20566452.460       96278.315 6    123414.14326
  22219907.858    -5143189.857 5  -2721141.33225
  22444498.460    -9822840.306 5  -2058732.36724
  19127045.468   -14736910.318 7 -11413625.67229
  20979061.968   -13639159.918 6 -10451775.05026
  19211800.366   -23785076.801 7 -18316944.80428
  21201666.179   -16765993.701 6 -12857254.20226
 95  6  8  2  7 29.9950000  0  7  6 28 22 17 26 23 21
  20577980.397      156850.787 6    170613.41626
  22194892.015    -5274629.420 5  -2823561.72925
  22444422.905    -9823242.785 5
  19121722.233   -14764911.024 7 -11435444.40629
  20982243.960   -13622457.881 6 -10438760.47026
  19203408.030   -23829157.522 7 -18351293.39627
  21182295.741   -16867784.347 6 -12936571.55126
 95  6  8  2  7 59.9950000  0  7  6 28 22 17 26 23 21
  20589578.288      217787.970 6    218096.87626
  22169924.390    -5405843.731 4  -2925806.61625
  22444430.288    -9823215.721 5
  19116438.163   -14792654.745 7 -11457062.89829
  20985530.983   -13605191.974 6 -10425306.52526
  19195093.421   -23872872.646 7 -18385357.12328
  21162965.929   -16969331.864 6 -13015699.45526
 95  6  8  2  8 29.9950000  0  7  6 28 22 17 26 23 21
  20601242.093      279080.981 6    265857.60726
  22144994.249    -5536830.594 4  -3027874.25325
  22444513.218    -9822768.405 5
  19111211.374   -14820128.998 7 -11478471.39029
  20988923.530   -13587371.202 6 -10411420.23026
  19186846.421   -23916217.219 7 -18419132.10928
  21143688.054   -17070647.968 6 -13094647.04926
 95  6  8  2  8 59.9950000  0  7  6 28 22 17 26 23 21
  20612974.366      340737.921 6    313901.90226
  22120118.991    -5667566.094 5  -3129746.04224
  22444677.233    -9821895.146 5  -2057995.99924
  19106042.366   -14847308.902 7 -11499650.54029
  20992418.804   -13568989.069 6 -10397096.50126
  19178668.890   -23959173.267 7 -18452604.35728
  21124452.843   -17171719.396 6 -13173403.97426
 95  6  8  2  9 29.9950000  0  7  6 28 22 17 26 23 21
  20624769.062      402729.321 6    362206.83726
  22095285.733    -5798068.201 5  -3231435.99823
  22444926.108    -9820620.677 5  -2057002.97224
  19100920.898   -14874216.383 7 -11520617.40129
  20996017.741   -13550069.562 6 -10382354.01526
  19170562.108   -24001766.397 7 -18485793.78628
  21105268.671   -17272561.657 6 -13251982.32026
 95  6  8  2  9 59.9950000  0  7  6 28 22 17 26 23 21
  20636635.233      465055.500 6    410772.63026
  22070505.437    -5928327.478 5  -3332936.74822
  22445245.772    -9818945.097 5  -2055697.35724
  19095852.179   -14900843.435 7 -11541365.75229
  20999718.343   -13530625.400 6 -10367202.72826
  19162531.921   -24043983.059 7 -18518689.87528
  21086124.944   -17373157.129 6 -13330368.36226
 95  6  8  2 10 29.9950000  0  7  6 28 22 17 26 23 21
  20648552.655      527716.202 6    459599.09626
  22045763.398    -6058347.898 5  -3434251.29622
  22445629.780    -9816887.325 5  -2054093.94124
  19090833.585   -14927222.744 7 -11561921.05229
  21003513.437   -13510678.008 6 -10351659.31526
  19154571.960   -24085818.443 7 -18551288.88128
  21067024.124   -17473497.269 6 -13408555.44226
 95  6  8  2 10 59.9950000  0  7  6 28 22 17 26 23 21
  20660541.663      590707.786 6    508683.38826
  22021065.929    -6188125.000 5  -3535376.28324
  22446093.687    -9814433.119 5  -2052181.63125
  19085859.741   -14953358.046 7 -11582286.23329
  21007408.882   -13490222.585 6 -10335720.05626
  19146679.210   -24127281.598 7 -18583597.81128
  21047981.358   -17573574.759 6 -13486537.86326
 95  6  8  2 11 29.9940000  0  7  6 28 22 17 26 23 21
  20672589.557      654038.148 6    558031.65526
  21996410.940    -6317658.732 5  -3636311.64524
  22446646.815    -9811569.929 5  -2049950.65324
  19080932.752   -14979250.837 7 -11602462.43529
  21011395.315   -13469271.522 6 -10319394.56026
  19138859.830   -24168373.475 7 -18615617.45428
  21028993.924   -17673381.442 6 -13564309.26425
 95  6  8  2 11 59.9940000  0  7  6 28 22 17 26 23 21
  20684714.572      717717.565 6    607651.93726
  21971807.424    -6446960.793 5  -3737066.42624
  22447263.900    -9808303.087 5  -2047405.09823
  19076050.994   -15004908.767 7 -11622455.62829
  21015474.049   -13447833.387 6 -10302689.52726
  19131107.588   -24209103.720 7 -18647355.29228
  21010054.471   -17772929.477 6 -13641879.12226
 95  6  8  2 12 29.9940000  0  7  6 28 22 17 26 23 21
  20696896.611      781754.133 6    657550.49526
  21947252.244    -6576011.952 5  -3837625.72824
  22447969.197    -9804620.193 5  -2044535.37723
  19071212.900   -15030316.845 7 -11642254.13529
  21019647.025   -13425886.633 6 -10285588.15726
  19123429.104   -24249474.421 7 -18678812.96928
  20991150.729   -17872208.937 6 -13719239.70526
 95  6  8  2 12 59.9940000  0  7  6 28 22 17 26 23 21
  20709148.447      846140.362 6    707721.54026
  21922743.877    -6704815.571 5  -3937992.14124
  22448743.557    -9800526.614 5  -2041345.61722
  19066430.041   -15055458.860 7 -11661845.30129
  21023922.510   -13403427.257 6 -10268087.36026
  19115810.315   -24289503.982 7 -18710004.84028
  20972307.908   -17971224.134 6 -13796394.36426
 95  6  8  2 13 29.9940000  0  7  6 28 22 17 26 23 21
  20721473.955      910893.746 6    758178.63826
  21898281.104    -6833358.429 5  -4038155.41223
  22449600.736    -9796026.003 5  -2037838.68223
  19061698.940   -15080324.065 7 -11681220.80329
  21028295.994   -13380451.357 6 -10250184.07526
  19108258.190   -24329172.958 7 -18740915.72128
  20953522.252   -18069962.799 6 -13873333.55026
 95  6  8  2 13 59.9940000  0  7  6 28 22 17 26 23 21
  20733858.119      975994.058 6    808906.08926
  21873865.057    -6961641.871 5  -4138116.51725
  22450533.877    -9791133.743 5  -2034026.57623
  19057015.315   -15104921.508 7 -11700387.63929
  21032767.690   -13356960.897 6 -10231879.83426
  19100778.697   -24368495.173 7 -18771556.40328
  20934782.049   -18168433.334 6 -13950063.79326
 95  6  8  2 14 29.9940000  0  7  6 28 22 17 26 23 21
  20746313.322     1041441.987 6    859904.40625
  21849506.393    -7089649.015 5  -4237862.34725
  22451547.799    -9785839.614 5  -2029901.31424
  19052390.861   -15129234.910 7 -11719333.15629
  21037338.525   -13332938.771 6 -10213161.26926
  19093363.299   -24407448.834 7 -18801909.88928
  20916103.674   -18266615.183 6 -14026569.09826
 95  6  8  2 14 59.9940000  0  7  6 28 22 17 26 23 21
  20758838.221     1107226.023 6    911164.62326
  21825195.721    -7217381.793 5  -4337394.36924
  22452631.900    -9780148.148 5  -2025466.44823
  19047816.377   -15153267.966 7 -11738060.21729
  21042008.174   -13308396.240 6 -10194037.22427
  19086025.658   -24446018.632 7 -18831964.27527
  20897469.596   -18364511.996 6 -14102852.30126
 95  6  8  2 15 29.9940000  0  7  6 28 22 17 26 23 21
  20771413.682     1173333.242 6    962676.66726
  21800942.885    -7344845.917 5  -4436717.07323
  22453790.572    -9774072.425 5  -2020732.17823
  19043293.229   -15177039.301 7 -11756583.34329
  21046773.611   -13283345.010 6 -10174516.79226
  19078759.596   -24484204.885 7 -18861719.78928
  20878890.916   -18462146.500 6 -14178931.09326
 95  6  8  2 15 59.9940000  0  7  6 28 22 17 26 23 21
  20784057.596     1239769.387 6   1014445.03026
  21776741.518    -7472025.163 5  -4535817.78423
  22455017.197    -9767597.792 5  -2015687.05124
  19038824.377   -15200527.514 7 -11774885.85029
  21051643.330   -13257762.588 6 -10154582.45526
  19071563.986   -24522002.568 7 -18891172.52028
  20860366.986   -18559504.153 6 -14254794.15926
 95  6  8  2 16 29.9940000  0  7  6 28 22 17 26 23 21
  20796760.127     1306515.954 6   1066455.25126
  21752593.611    -7598934.436 5  -4634708.09223
  22456316.611    -9760736.311 5  -2010340.50122
  19034407.736   -15223739.670 7 -11792973.23829
  21056611.791   -13231663.541 6 -10134245.51726
  19064445.822   -24559424.523 7 -18920332.47528
  20841887.713   -18656588.335 6 -14330444.12626
 95  6  8  2 16 59.9940000  0  7  6 28 22 17 26 23 21
  20809521.963     1373594.932 6   1118724.52326
  21728501.447    -7725559.193 5  -4733376.66722
  22457700.666    -9753478.483 5  -2004685.08723
  19030043.166   -15246658.684 7 -11810832.22329
  21061676.838   -13205043.303 6 -10113502.50226
  19057401.447   -24596462.837 7 -18949193.49528
  20823470.150   -18753386.537 6 -14405871.26026
 95  6  8  2 17 29.9940000  0  7  6 28 22 17 26 23 21
  20822346.908     1440990.917 6   1171240.80726
  21704453.354    -7851914.441 5  -4831835.24725
  22459150.815    -9745849.664 5  -1998740.61522
  19025736.049   -15269301.889 7 -11828476.28629
  21066836.002   -13177920.496 6 -10092367.85426
  19050420.205   -24633143.432 7 -18977775.77128
  20805102.666   -18849915.853 6 -14481088.88526
 95  6  8  2 17 59.9940000  0  7  6 28 22 17 26 23 21
  20835231.268     1508724.630 5   1224020.26526
  21680465.815    -7977978.416 5  -4930066.89324
  22460681.463    -9737817.707 5  -1992481.99923
  19021482.650   -15291649.181 7 -11845889.77629
  21072093.611   -13150289.202 6 -10070836.98626
  19043511.057   -24669451.089 7 -19006067.44328
  20786792.877   -18946139.238 6 -14556068.12026
 95  6  8  2 18 29.9940000  0  7  6 28 22 17 26 23 21
  20848187.783     1576793.815 5   1277061.11826
  21656533.096    -8103748.471 5  -5028069.49925
  22462283.119    -9729390.955 5  -1985915.75523
  19017283.190   -15313711.412 7 -11863081.13029
  21077445.971   -13122165.661 6 -10048922.53026
  19036674.057   -24705372.752 7 -19034058.33828
  20768534.768   -19042067.572 6 -14630817.43326
 95  6  8  2 18 59.9940000  0  7  6 28 22 17 26 23 21
  20861198.291     1645178.378 6   1330347.71426
  21632656.455    -8229240.508 5  -5125855.45925
  22463962.768    -9720601.779 5  -1979067.09924
  19013133.400   -15335515.946 7 -11880071.67729
  21082887.690   -13093574.788 6 -10026643.93726
  19029908.900   -24740919.454 7 -19061757.05828
  20750329.447   -19137748.869 6 -14705374.25826
 95  6  8  2 19 29.9940000  0  7  6 28 22 17 26 23 21
  20874273.736     1713876.480 6   1383878.66126
  21608826.119    -8354438.742 6  -5223412.49325
  22465702.815    -9711426.348 5  -1971917.47223
  19009038.299   -15357048.725 7 -11896850.47329
  21088419.846   -13064498.674 6 -10003987.25526
  19023218.588   -24776094.501 7 -19089166.18428
  20732170.393   -19233180.890 6 -14779736.83426
 95  6  8  2 19 59.9940000  0  8  6 28 22 17  1 26 23 21
  20887401.229     1782864.987 6   1437635.86326
  21585060.260    -8479350.603 6  -5320746.41024
  22467522.150    -9701870.952 5  -1964471.75023
  19004992.940   -15378314.293 7 -11913421.04429
  22908901.744          -0.71013
  21094044.354   -13034947.653 6  -9980960.47826
  19016584.955   -24810920.594 7 -19116303.37928
  20714056.908   -19328376.715 6 -14853915.38026
 95  6  8  2 20 29.9940000  0  8  6 28 22 17  1 26 23 21
  20900583.182     1852147.413 6   1491622.08926
  21561345.244    -8603959.876 5  -5417844.52225
  22469408.463    -9691939.744 5  -1956733.21122
  19001001.627   -15399300.946 7 -11929774.28729
  22881779.330     -142547.920 2
  21099760.127   -13004899.160 6  -9957546.08926
  19010024.979   -24845386.878 7 -19143160.22828
  20695985.221   -19423335.032 6 -14927908.83126
 95  6  8  2 20 59.9940000  0  8  6 28 22 17  1 26 23 21
  20913825.283     1921708.504 6   1545825.47026
  21537686.150    -8728267.262 5  -5514707.38225
  22471368.408    -9681631.230 4  -1948700.63924
  18997057.283   -15420009.621 7 -11945910.90829
  22854662.588     -285108.636 3
  21105572.760   -12974356.849 6  -9933746.91026
  19003533.119   -24879523.248 7 -19169759.99528
  20677962.158   -19518047.671 6 -15001710.85926
 95  6  8  2 21 29.9940000  0  8  6 28 22 17  1 26 23 21
  20927112.010     1991539.619 6   1600239.24426
  21514093.799    -8852269.256 5  -5611332.28625
  22473390.455    -9670947.278 3  -1940375.52222
  18993173.338   -15440441.271 7 -11961831.68929
  22827532.400     -427663.360 3        -0.04432
  21111476.416   -12943326.720 6  -9909567.57826
  18997097.440   -24913340.266 7 -19196110.89828
  20659990.604   -19612495.721 6 -15075306.72226
 95  6  8  2 21 59.9940000  0  8  6 28 22 17  1 26 23 21
  20940460.111     2061658.695 6   1654877.38826
  21490557.705    -8975955.052 5  -5707710.80124
  22475513.408    -9659902.705 5  -1931769.41024
  18989336.283   -15460596.929 7 -11977537.40329
  22800409.658     -570179.135 3   -111051.12021
  21117476.525   -12911808.017 6  -9885007.58826
  18990724.924   -24946808.023 7 -19222189.65128
  20642069.494   -19706656.199 6 -15148678.48126
 95  6  8  2 22 29.9940000  0  8  6 28 22 17  1 26 23 21
  20953854.604     2132066.308 6   1709740.36626
  21467077.221    -9099334.454 5  -5803850.57725
  22477672.838    -9648519.473 4  -1922899.42522
  18985550.791   -15480480.015 7 -11993030.72629
  22773310.057     -712643.238 4   -222061.94321
  21123563.486   -12879822.239 6  -9860083.63526
  18984429.002   -24979931.336 7 -19248000.02428
  20624206.619   -19800543.472 6 -15221837.36526
 95  6  8  2 22 59.9940000  0  8  6 28 22 17  1 26 23 21
  20967310.815     2202781.418 6   1764842.97926
  21443658.221    -9222386.057 5  -5899734.95025
  22479915.268    -9636769.687 5  -1913743.86921
  18981827.197   -15500052.598 7 -12008282.10329
  22746197.768     -855021.579 4   -333006.03021
  21129741.494   -12847350.671 6  -9834781.11526
  18978192.104   -25012690.820 7 -19273526.87928
  20606392.775   -19894131.056 6 -15294762.73226
 95  6  8  2 23 29.9940000  0  8  6 28 22 17  1 26 23 21
  20980824.010     2273796.089 6   1820179.01425
  21420305.736    -9345128.766 5  -5995378.56225
  22482207.479    -9624676.867 5  -1904320.93822
  18978154.557   -15519329.778 7 -12023303.27229
  22719136.174     -997329.000 5   -443894.80321
  21136009.705   -12814411.035 6  -9809113.88226
  18972024.002   -25045098.695 7 -19298779.75627
  20588639.955   -19987441.505 6 -15367472.12926
 95  6  8  2 23 59.9940000  0  8  6 28 22 17  1 26 23 21
  20994395.736     2345111.386 6   1875749.29125
  21397005.963    -9467556.342 5  -6090776.63625
  22484581.315    -9612226.935 5  -1894619.71122
  18974550.236   -15538299.289 7 -12038084.71129
  22692060.861    -1139576.436 5   -554736.76422
  21142366.822   -12780996.666 6  -9783076.73126
  18965925.283   -25077152.358 7 -19323756.63828
  20570933.650   -20080470.900 6 -15439962.53926
 95  6  8  2 24 29.9940000  0  8  6 28 22 17  1 26 23 21
  21008017.205     2416703.037 5   1931534.91025
  21373765.549    -9589668.410 5  -6185928.89725
  22487017.424    -9599406.846 5  -1884630.06323
  18970998.346   -15556954.305 7 -12052621.09529
  22664998.174    -1281773.147 5   -665539.33322
  21148819.525   -12747097.956 6  -9756662.15726
  18959892.690   -25108862.675 7 -19348465.96628
  20553286.502   -20173222.747 6 -15512236.68026
 95  6  8  2 24 59.9940000  0  8  6 28 22 17  1 26 23 21
  21021691.166     2488566.590 5   1987532.41125
  21350595.682    -9711449.963 5  -6280823.58125
  22489534.502    -9586206.085 5  -1874343.78724
  18967507.369   -15575308.996 7 -12066923.46929
  22637953.643    -1423925.393 5   -776307.13822
  21155363.822   -12712689.192 6  -9729850.15526
  18953922.182   -25140224.311 7 -19372903.60928
  20535693.494   -20265673.030 6 -15584275.83226
 95  6  8  2 25 29.9940000  0  8  6 28 22 17  1 26 23 21
  21035418.893     2560710.852 5   2043748.64725
  21327483.979    -9832897.948 5  -6375458.32625
  22492113.955    -9572636.709 5  -1863770.25023
  18964064.463   -15593383.773 7 -12081007.74029
  22610904.283    -1566047.370 5   -887051.41223
  21162008.736   -12677781.863 6  -9702649.64226
  18948024.424   -25171236.807 7 -19397069.19228
  20518156.080   -20357830.898 6 -15656087.12026
 95  6  8  2 25 59.9940000  0  8  6 28 22 17  1 26 23 21
  21049205.932     2633121.999 5   2100172.86725
  21304430.838    -9954020.353 5  -6469839.41825
  22494763.338    -9558715.632 5  -1852922.68922
  18960677.963   -15611198.199 7 -12094889.10629
  22583864.119    -1708137.145 5   -997770.56723
  21168746.299   -12642390.140 6  -9675071.69626
  18942183.182   -25201911.158 7 -19420971.29528
  20500673.744   -20449717.505 6 -15727687.04426
 95  6  8  2 26 29.9940000  0  8  6 28 22 17  1 26 23 21
  21063034.268     2705825.645 5   2156824.98425
  21281444.869   -10074806.112 5  -6563958.15725
  22497475.604    -9544449.454 4  -1841806.21822
  18957338.705   -15628745.785 7 -12108562.54729
  22556840.986    -1850174.208 5  -1108448.60723
  21175569.424   -12606518.042 6  -9647119.41026
  18936411.807   -25232243.530 7 -19444606.91828
  20483237.627   -20541331.372 6 -15799074.44626
 95  6  8  2 26 59.9940000  0  8  6 28 22 17  1 26 23 21
  21076927.908     2778835.825 5   2213715.96525
  21258533.549   -10195255.461 6  -6657814.76325
  22500255.275    -9529852.123 4  -1830431.73022
  18954045.018   -15646040.138 7 -12122038.67329
  22529817.807    -1992164.701 5  -1219090.44123
  21182476.361   -12570201.191 6  -9618820.59426
  18930704.510   -25262243.997 7 -19467983.91928
  20465855.111   -20632679.539 6 -15870254.80526
 95  6  8  2 27 29.9940000  0  8  6 28 22 17  1 26 23 21
  21090885.416     2852152.027 6   2270845.39925
  21235671.502   -10315372.398 5  -6751412.34125
  22503100.111    -9514931.837 5  -1818805.54422
  18950801.385   -15663071.701 7 -12135310.02329
  22502811.119    -2134094.365 5  -1329684.82223
  21189470.619   -12533460.989 6  -9590191.88825
  18925056.229   -25291918.636 7 -19491107.01528
  20448517.822   -20723773.396 6 -15941237.00226
 95  6  8  2 27 59.9940000  0  8  6 28 22 17  1 26 23 21
  21104890.135     2925770.678 5   2328210.49925
  21212879.494   -10435138.160 5  -6844736.29925
  22506002.900    -9499679.008 5  -1806920.27822
  18947619.065   -15679813.879 7 -12148355.84929
  22475810.479    -2275937.628 5  -1440211.88924
  21196548.150   -12496281.039 6  -9561220.48925
  18919473.986   -25321255.161 7 -19513966.63128
  20431237.580   -20814580.343 6 -16011995.63426
 95  6  8  2 28 29.9940000  0  8  6 28 22 17  1 26 23 21
  21118956.322     2999670.831 6   2385794.96725
  21190157.385   -10554554.180 5  -6937787.71525
  22508967.697    -9484101.534 4  -1794782.04222
  18944490.838   -15696263.627 7 -12161173.83029
  22448832.229    -2417718.465 5  -1550690.26823
  21203707.783   -12458666.171 6  -9531910.19125
  18913955.244   -25350252.168 7 -19536561.68928
  20414016.611   -20905086.366 6 -16082519.77526
 95  6  8  2 28 59.9940000  0  8  6 28 22 17  1 26 23 21
  21133072.682     3073834.835 6   2443585.00525
  21167499.580   -10673622.265 5  -7030568.02225
  22511992.744    -9468205.901 4  -1782395.86821
  18941417.486   -15712424.583 7 -12173766.78729
  22421858.971    -2559442.015 5  -1661124.02224
  21210948.744   -12420609.511 6  -9502255.65926
  18908501.557   -25378903.585 7 -19558887.47128
  20396848.666   -20995301.865 6 -16152817.53926
 95  6  8  2 29 29.9940000  0  8  6 28 22 17  1 26 23 21
  21147230.791     3148263.862 6   2501581.56425
  21144910.260   -10792329.127 6  -7123066.87125
  22515076.127    -9451984.331 5  -1769755.74322
  18938396.486   -15728278.192 7 -12186120.25829
  22394910.041    -2701095.305 5  -1771503.00623
  21218277.275   -12382082.287 6  -9472234.47026
  18903119.025   -25407187.549 7 -19580926.92928
  20379732.033   -21085236.759 6 -16222896.64926
 95  6  8  2 29 59.9940000  0  8  6 28 22 17  1 26 23 21
  21161438.838     3222932.362 5   2559764.73925
  21122392.010   -10910690.992 6  -7215296.88225
  22518213.127    -9435451.736 5  -1756873.22721
  18935437.330   -15743836.339 7 -12198243.49129
  22367951.213    -2842712.491 5  -1881853.90524
  21225695.408   -12343102.387 6  -9441860.56326
  18897808.135   -25435109.130 7 -19602684.00628
  20362667.354   -21174922.351 6 -16292781.49626
 95  6  8  2 30 29.9940000  0  8  6 28 22 17  1 26 23 21
  21175698.174     3297862.667 5   2618151.91825
  21099932.291   -11028688.034 6  -7307242.58025
  22521424.924    -9418580.774 5  -1743727.08722
  18932535.549   -15759082.143 7 -12210123.35829
  22341027.135    -2984268.484 5  -1992157.10423
  21233203.190   -12303649.359 6  -9411117.94626
  18892567.330   -25462647.467 7 -19624142.44828
  20345646.322   -21264354.955 6 -16362469.21526
 95  6  8  2 30 59.9940000  0  8  6 28 22 17  1 26 23 21
  21190007.885     3373053.636 5   2676742.20325
  21077548.674   -11146325.309 6  -7398907.96925
  22524703.830    -9401384.140 4  -1730327.17922
  18929692.346   -15774028.685 7 -12221770.03029
  22314096.869    -3125749.311 4  -2102401.73824
  21240801.361   -12263739.429 6  -9380019.30626
  18887393.955   -25489827.755 7 -19645321.90028
  20328675.119   -21353553.160 6 -16431974.29026
 95  6  8  2 31 29.9940000  0  8  6 28 22 17  1 26 23 21
  21204362.893     3448491.467 5   2735524.84725
  21055228.815   -11263607.724 6  -7490296.84325
  22528036.338    -9383863.658 3  -1716674.91322
  18926906.268   -15788670.541 7 -12233179.27729
  22287184.932    -3267165.211 3  -2212595.78923
  21248477.807   -12223383.318 6  -9348573.00426
  18882284.893   -25516668.216 7 -19666236.53928
  20311744.643   -21442503.801 6 -16501286.44926
 95  6  8  2 31 59.9940000  0  8  6 28 22 17  1 26 23 21
  21218759.994     3524163.605 5   2794490.07225
  21032980.150   -11380534.580 6  -7581408.65226
  22531426.533    -9366025.854 3  -1702775.31421
  18924179.299   -15803005.558 7 -12244349.43129
  22260288.182    -3408500.172 3  -2322726.76924
  21256244.869   -12182589.556 6  -9316785.65926
  18877239.932   -25543183.533 7 -19686897.82228
  20294874.510   -21531168.046 6 -16570375.43326
 95  6  8  2 32 29.9940000  0  8  6 28 22 17  1 26 23 21
  21233203.955     3600083.910 5   2853648.69125
  21010798.815   -11497088.970 6  -7672230.23325
  22534895.346    -9347869.091 5  -1688627.24221
  18921507.322   -15817029.939 7 -12255277.53529
  22233419.244    -3549725.950 3  -2432772.67923
  21264092.104   -12141351.228 6  -9284651.89426
  18872255.432   -25569382.041 7 -19707312.24927
  20278063.229   -21619518.170 6 -16639219.65826
 95  6  8  2 32 59.9940000  0  8  6 28 22 17  1 26 23 21
  21247698.424     3676254.833 5   2913002.57825
  20988691.283   -11613266.380 6  -7762758.08425
  22538404.315    -9329397.144 4  -1674233.56022
  18918897.955   -15830745.248 7 -12265964.81129
  22206554.549    -3690842.799 3  -2542733.73022
  21272018.088   -12099670.801 6  -9252173.66426
  18867331.275   -25595266.137 7 -19727481.67627
  20261307.838   -21707545.440 6 -16707812.29926
 95  6  8  2 33 29.9940000  0  8  6 28 22 17  1 26 23 21
  21262239.080     3752645.321 5   2972527.55924
  20966651.010   -11729084.401 6  -7853005.87325
  22541982.971    -9310622.060 4  -1659603.71821
  18916343.713   -15844158.004 7 -12276416.29828
  22179718.815    -3831867.388 3  -2652622.85223
  21280035.307   -12057564.218 6  -9219363.36226
  18862467.463   -25620843.755 7 -19747412.29028
  20244617.525   -21795266.683 6 -16776166.48426
 95  6  8  2 33 59.9940000  0  8  6 28 22 17  1 26 23 21
  21276825.268     3829286.348 5   3032247.78025
  20944686.939   -11844510.590 6  -7942948.31726
  22545610.979    -9291520.541 4  -1644719.45421
  18913851.900   -15857255.209 7 -12286621.92128
  22152906.916    -3972763.862 3  -2762412.16722
  21288134.885   -12015005.662 6  -9186200.85426
  18857661.197   -25646086.224 7 -19767081.75127
  20227990.408   -21882664.910 6 -16844268.98026
 95  6  8  2 34 29.9940000  0  8  6 28 22 17  1 26 23 21
  21291463.455     3906179.126 5   3092164.14724
  20922792.338   -11959555.570 6  -8032593.74125
  22549298.549    -9272102.138 3  -1629588.26622
  18911414.369   -15870063.756 7 -12296602.61729
  22126116.018    -4113557.340 3  -2872121.21322
  21296315.596   -11971999.736 6  -9152689.76926
  18852918.322   -25671006.593 7 -19786500.21927
  20211416.846   -21969775.172 6 -16912147.09026
 95  6  8  2 34 59.9940000  0  8  6 28 22 17  1 26 23 21
  21306141.174     3983313.534 5   3152268.79925
  20900975.416   -12074224.256 6  -8121945.97025
  22553064.525    -9252369.099 4  -1614211.87522
  18909034.463   -15882582.800 7 -12306357.71929
  22099347.502    -4254261.989 3  -2981761.05321
  21304583.565   -11928548.475 6  -9118831.66526
  18848239.182   -25695592.790 7 -19805658.29328
  20194885.111   -22056615.206 6 -16979814.60726
 95  6  8  2 35 29.9940000  0  8  6 28 22 17  1 26 23 21
  21320857.963     4060696.004 5   3212566.75525
  20879229.127   -12188508.726 6  -8210998.83125
  22556877.150    -9232312.702 4  -1598583.59822
  18906709.799   -15894811.326 7 -12315886.45229
  22072586.830    -4394886.108 3  -3091338.14022
  21312936.439   -11884650.381 6  -9084625.36226
  18843624.471   -25719842.475 7 -19824554.15327
  20178413.471   -22143184.921 6 -17047271.51326
 95  6  8  2 35 59.9940000  0  8  6 28 22 17  1 26 23 21
  21335641.760     4138332.833 5   3273062.90224
  20857549.721   -12302403.457 6  -8299747.95225
  22560758.236    -9211945.992 4  -1582713.46121
  18904431.596   -15906771.696 7 -12325206.23029
  22045828.674    -4535439.186 4  -3200859.83722
  21321377.869   -11840304.934 6  -9050070.46326
  18839072.713   -25743763.301 7 -19843193.76327
  20161988.947   -22229487.724 6 -17114520.42326
 95  6  8  2 36 29.9940000  0  8  6 28 22 17  1 26 23 21
  21350457.197     4216207.674 5   3333744.50525
  20835950.994   -12415912.843 6  -8388196.82225
  22564687.393    -9191291.177 4  -1566618.87521
  18902204.549   -15918458.241 7 -12334312.63729
  22019112.479    -4675929.114 5  -3310332.38521
  21329897.666   -11795533.477 6  -9015183.64626
  18834585.893   -25767359.127 7 -19861580.11728
  20145619.221   -22315536.414 6 -17181571.33726
 95  6  8  2 36 59.9930000  0  8  6 28 22 17  1 26 23 21
  21365314.208     4294303.636 5   3394598.41625
  20814428.536   -12529025.566 6  -8476336.57826
  22568667.146    -9170348.380 4  -1550299.86922
  18900039.763   -15929845.302 7 -12343185.68229
  21992388.755    -4816339.050 5  -3419742.61121
  21338493.716   -11750354.276 6  -8979979.05626
  18830156.169   -25790619.469 7 -19879705.06028
  20129293.005   -22401331.193 6 -17248424.36926
 95  6  8  2 37 29.9930000  0  8  6 28 22 17  1 26 23 21
  21380216.333     4372618.908 5   3455623.21425
  20792981.341   -12641744.290 6  -8564169.34426
  22572700.474    -9149124.930 3  -1533762.19022
  18897929.841   -15940934.518 7 -12351826.62729
  21965683.856    -4956654.193 5  -3529078.89822
  21347168.177   -11704773.005 6  -8944461.21426
  18825786.106   -25813565.829 7 -19897585.33727
  20113011.083   -22486863.698 6 -17315073.03826
 95  6  8  2 37 59.9930000  0  8  6 28 22 17  1 26 23 21
  21395167.989     4451149.841 5   3516816.06825
  20771603.271   -12754057.129 6  -8651685.83125
  22576788.271    -9127636.448 3  -1517017.92721
  18895875.294   -15951709.642 7 -12360222.82629
  21939014.513    -5096831.761 5  -3638308.01022
  21355916.060   -11658798.248 6  -8908636.73826
  18821489.146   -25836180.011 7 -19915206.76828
  20096785.755   -22572130.032 6 -17381514.32527
 95  6  8  2 38 29.9930000  0  8  6 28 22 17  1 26 23 21
  21410150.896     4529893.677 5   3578174.79725
  20750307.653   -12865961.113 6  -8738883.74625
  22580937.122    -9105873.333 3  -1500059.70321
  18893894.263   -15962140.278 7 -12368350.61029
  21912372.677    -5236851.348 5  -3747414.04822
  21364734.185   -11612440.612 6  -8872513.93626
  18817248.458   -25858449.272 7 -19932559.44828
  20080616.872   -22657115.746 6 -17447736.93327
 95  6  8  2 38 59.9930000  0  8  6 28 22 17  1 26 23 21
  21425174.856     4608838.251 5   3639689.92925
  20729089.919   -12977478.798 6  -8825780.65026
  22585129.208    -9083852.291 3  -1482900.50722
  18891971.606   -15972260.291 7 -12376236.34329
  21885752.286    -5376719.165 5  -3856401.80923
  21373623.935   -11565714.586 5  -8836104.10626
  18813066.763   -25880411.605 7 -19949672.98428
  20064497.591   -22741830.234 6 -17513748.19426
 95  6  8  2 39 29.9930000  0  8  6 28 22 17  1 26 23 21
  21440241.911     4688002.864 5   3701376.59325
  20707942.263   -13088596.303 6  -8912365.67925
  22589369.802    -9061574.500 3  -1465541.23721
  18890102.669   -15982064.806 7 -12383876.24629
  21859172.341    -5516419.760 5  -3965259.24423
  21382596.653   -11518605.843 6  -8799395.98926
  18808948.638   -25902062.286 7 -19966543.65228
  20048430.817   -22826259.586 6 -17579537.27927
 95  6  8  2 39 59.9930000  0  8  6 28 22 17  1 26 23 21
  21455338.239     4767408.872 5   3763251.29525
  20686883.935   -13199296.379 6  -8998625.47025
  22593658.403    -9039024.258 3  -1447969.66121
  18888301.841   -15991528.055 7 -12391250.20829
  21832613.442    -5655955.543 5  -4073988.30824
  21391630.114   -11471095.349 6  -8762374.83726
  18804896.302   -25923374.185 7 -19983150.32528
  20032419.192   -22910392.816 6 -17645095.59227
 95  6  8  2 40 29.9930000  0  8  6 28 22 17  1 26 23 21
  21470500.763     4847054.749 5   3825312.92925
  20665890.982   -13309572.451 6  -9084554.84126
  22597995.442    -9016187.956 3  -1430175.18221
  18886567.802   -16000645.848 7 -12398354.99929
  21806093.896    -5795335.758 5  -4182596.10425
  21400754.028   -11423161.398 6  -8725023.72626
  18800898.200   -25944371.695 7 -19999511.99528
  20016465.325   -22994228.004 6 -17710421.68926
 95  6  8  2 40 59.9930000  0  8  6 28 22 17  1 26 23 21
  21485696.028     4926918.433 5   3887544.24125
  20644983.247   -13419441.209 6  -9170166.85726
  22602392.341    -8993088.061 3  -1412175.29522
  18884887.528   -16009458.879 7 -12405222.29529
  21779592.732    -5934587.359 5  -4291103.69924
  21409949.036   -11374823.174 5  -8687357.59925
  18796954.911   -25965088.674 7 -20015655.09428
  20000566.708   -23077799.300 6 -17775542.14726
 95  6  8  2 41 29.9930000  0  8  6 28 22 17  1 26 23 21
  21500928.888     5006972.347 5   3949923.80624
  20624155.263   -13528901.742 6  -9255460.74226
  22606852.356    -8969717.061 3  -1393964.15421
  18883269.513   -16017971.436 7 -12411855.45829
  21753118.185    -6073728.507 5  -4399525.23825
  21419228.575   -11326089.629 6  -8649383.39425
  18793069.521   -25985520.502 7 -20031575.99828
  19984707.356   -23161114.040 6 -17840462.71027
 95  6  8  2 41 59.9930000  0  8  6 28 22 17  1 26 23 21
  21516202.153     5087210.268 5   4012446.77524
  20603403.247   -13637944.277 6  -9340428.92926
  22611345.060    -8946055.630 3  -1375526.72122
  18881706.067   -16026182.757 7 -12418253.89029
  21726657.310    -6212763.888 5  -4507864.36824
  21428581.310   -11276942.884 6  -8611087.21025
  18789234.130   -26005675.163 7 -20047280.92328
  19968907.997   -23244155.125 6 -17905170.01427
 95  6  8  2 42 29.9930000  0  8  6 28 22 17  1 26 23 21
  21531506.583     5167614.597 5   4075099.43924
  20582736.153   -13746570.777 6  -9425072.93326
  22615914.419    -8922108.555 3  -1356866.70721
  18880199.185   -16034114.391 7 -12424434.38729
  21700218.716    -6351697.046 5  -4616123.84825
  21438008.177   -11227396.938 6  -8572480.02225
  18785445.513   -26025567.727 7 -20062781.61528
  19953157.778   -23326929.084 6 -17969669.17727
 95  6  8  2 42 59.9930000  0  8  6 28 22 17  1 26 23 21
  21546828.341     5248186.552 5   4137882.73523
  20562149.044   -13854771.647 6  -9509385.28926
  22620523.653    -8897873.726 3  -1337982.49621
  18878742.333   -16041769.187 7 -12430399.15929
  21673799.958    -6490524.398 5  -4724300.86525
  21447509.317   -11177464.662 6  -8533571.75125
  18781714.099   -26045176.584 7 -20078061.24228
  19937456.067   -23409425.069 6 -18033951.74827
 95  6  8  2 43 29.9930000  0  8  6 28 22 17  1 26 23 21
  21562198.716     5328933.096 5   4200802.00223
  20541639.200   -13962543.532 6  -9593363.38226
  22625185.981    -8873357.537 3  -1318879.01522
  18877337.278   -16049135.791 7 -12436139.38829
  21647393.716    -6629250.302 4  -4832398.85025
  21457084.130   -11127139.719 6  -8494357.55725
  18778041.317   -26064488.208 7 -20093109.25727
  19921806.575   -23491650.801 6 -18098023.71927
 95  6  8  2 43 59.9930000  0  8  6 28 22 17  1 26 23 21
  21577605.841     5409883.340 5   4263880.04924
  20521212.794   -14069882.296 6  -9677003.99526
  22629902.052    -8848580.680 3  -1299572.45021
  18875991.763   -16056209.899 7 -12441651.66729
  21621024.716    -6767863.364 5  -4940408.88425
  21466738.716   -11076419.648 6  -8454835.44625
  18774425.880   -26083483.273 7 -20107910.59828
  19906213.263   -23573607.360 6 -18161885.94227
 95  6  8  2 44 29.9930000  0  8  6 28 22 17  1 26 23 21
  21593043.450     5491037.367 5   4327116.83324
  20500866.677   -14176790.539 6  -9760309.13026
  22634670.685    -8823563.942 3  -1280078.96421
  18874704.278   -16062992.614 7 -12446936.92629
  21594679.278    -6906345.239 5  -5048316.72625
  21476463.099   -11025332.693 6  -8415027.45825
  18770874.833   -26102137.970 7 -20122446.73828
  19890664.958   -23655305.518 6 -18225546.81627
 95  6  8  2 44 59.9930000  0  8  6 28 22 17  1 26 23 21
  21608537.052     5572409.776 5   4390523.77423
  20480607.560   -14283261.329 6  -9843273.36826
  22639469.021    -8798309.326 3  -1260400.08121
  18873472.982   -16069455.988 7 -12451973.33029
  21568342.349    -7044671.133 4  -5156103.00124
  21486255.708   -10973863.500 6  -8374921.59925
  18767394.442   -26120433.418 7 -20136702.93128
  19875168.763   -23736737.547 6 -18289000.32426
 95  6  8  2 45 29.9930000  0  8  6 28 22 17  1 26 23 21
  21624065.364     5654007.416 5   4454106.23524
  20460431.903   -14389288.765 6  -9925892.15526
  22644318.052    -8772819.980 2  -1240538.30921
  18872305.481   -16075581.227 7 -12456746.25229
  21542049.794    -7182827.848 4  -5263757.47225
  21496121.536   -10922003.708 6  -8334511.38825
  18763982.997   -26138368.971 7 -20150678.67728
  19859726.099   -23817881.597 6 -18352229.41427
 95  6  8  2 45 59.9930000  0  8  6 28 22 17  1 26 23 21
  21639622.466     5735799.712 5   4517840.39625
  20440338.114   -14494877.072 6 -10008168.75426
  22649202.161    -8747108.589 3  -1220503.50521
  18871207.083   -16081370.938 7 -12461257.72229
  21515800.114    -7320800.237 5  -5371268.31525
  21506059.325   -10869779.347 6  -8293817.09825
  18760628.310   -26155981.518 7 -20164402.73128
  19844347.161   -23898722.629 6 -18415222.39627
 95  6  8  2 46 29.9930000  0  8  6 28 22 17  1 26 23 21
  21655223.192     5817762.962 5   4581707.77123
  20420328.427   -14600017.725 6 -10090096.53726
  22654142.732    -8721161.988 2  -1200285.47421
  18870172.294   -16086801.573 7 -12465489.39929
  21489583.950    -7458578.832 5  -5478628.11925
  21516072.106   -10817182.184 6  -8252832.31925
  18757334.122   -26173294.686 7 -20177893.51228
  19829023.427   -23979262.335 6 -18477980.56727
 95  6  8  2 46 59.9930000  0  8  6 28 22 17  1 26 23 21
  21670849.903     5899887.258 5   4645700.61825
  20400407.849   -14704712.307 6 -10171676.70326
  22659128.497    -8694980.653 3  -1179884.51021
  18869202.997   -16091879.382 7 -12469446.13629
  21463398.575    -7596183.966 5  -5585852.78924
  21526155.185   -10764199.942 6  -8211547.45225
  18754095.036   -26190336.154 7 -20191172.57928
  19813749.786   -24059509.961 6 -18540511.14727
 95  6  8  2 47 29.9930000  0  8  6 28 22 17  1 26 23 21
  21686500.614     5982163.181 5   4709811.60225
  20380571.114   -14808957.039 6 -10252906.32926
  22664150.013    -8668565.649 3  -1159301.40521
  18868302.294   -16096627.362 7 -12473145.87129
  21437244.544    -7733627.881 5  -5692951.81724
  21536302.630   -10710846.975 5  -8169973.74325
  18750900.021   -26207118.138 7 -20204249.43827
  19798528.966   -24139469.717 6 -18602817.41626
 95  6  8  2 47 59.9930000  0  8  6 28 22 17  1 26 23 21
  21702193.653     6064598.208 5   4774046.56325
  20360826.810   -14912730.312 6 -10333768.51926
  22669241.192    -8641894.159 3  -1138518.47321
  18867461.372   -16101042.644 7 -12476586.35429
  21411127.099    -7870882.532 5  -5799903.35023
  21546530.614   -10657108.518 5  -8128099.62625
  18747757.755   -26223617.528 7 -20217106.09228
  19783368.271   -24219147.414 6 -18664903.91226
 95  6  8  2 48 29.9930000  0  8  6 28 22 17  1 26 23 21
  21717908.575     6147181.301 5   4838396.94725
  20341159.106   -15016053.385 6 -10414279.98226
  22674344.935    -8614982.693 2  -1117548.60122
  18866680.372   -16105163.177 7 -12479797.17929
  21385040.341    -8007975.825 5  -5906729.17924
  21556829.567   -10602997.294 5  -8085935.02725
  18744672.427   -26239822.960 7 -20229733.71028
  19768255.880   -24298577.399 6 -18726797.38727
 95  6  8  2 48 59.9930000  0  8  6 28 22 17  1 26 23 21
  21733665.864     6229946.401 5   4902889.11425
  20321585.521   -15118907.288 6 -10494425.86926
  22679513.583    -8587824.489 2  -1096386.41421
  18865950.396   -16108997.032 7 -12482784.61028
  21358979.669    -8144881.630 5  -6013408.88724
  21567193.466   -10548514.882 5  -8043481.23625
  18741651.575   -26255706.830 7 -20242110.75828
  19753195.286   -24377727.742 6 -18788472.95627
 95  6  8  2 49 29.9930000  0  8  6 28 22 17  1 26 23 21
  21749448.771     6312886.609 5   4967517.72025
  20302104.583   -15221293.214 6 -10574207.09226
  22684733.825    -8560425.321 3  -1075036.46321
  18865270.122   -16112545.898 7 -12485549.96329
  21332978.435    -8281585.194 6  -6119931.02025
  21577627.880   -10493683.983 5  -8000755.87125
  18738695.278   -26271265.234 7 -20254234.18628
  19738183.833   -24456593.640 6 -18849926.87527
 95  6  8  2 49 59.9930000  0  8  6 28 22 17  1 26 23 21
  21765258.286     6396008.112 4   5032287.63825
  20282712.966   -15323211.609 6 -10653624.01826
  22689996.028    -8532793.277 2  -1053505.03521
  18864652.052   -16115796.279 7 -12488082.74528
  21307002.075    -8418086.281 6  -6226295.36524
  21588130.396   -10438502.106 6  -7957757.00825
  18735795.263   -26286502.676 7 -20266107.52528
  19723229.630   -24535176.821 6 -18911160.49327
 95  6  8  2 50 29.9930000  0  8  6 28 22 17  1 26 23 21
  21781115.091     6479312.493 3   5097200.09125
  20263408.036   -15424665.823 6 -10732679.24126
  22695274.481          -0.56412
  18864092.286   -16118738.848 7 -12490375.66628
  21281053.536    -8554408.793 5  -6332520.58024
  21598694.560   -10382979.456 5  -7914492.61225
  18732950.872   -26301440.704 7 -20277747.57628
  19708335.067   -24613472.295 6 -18972169.91527
 95  6  8  2 50 59.9930000  0  8  6 28 22 17  1 26 23 21
  21796998.700     6562797.576 4   5162253.33624
  20244189.130   -15525650.333 6 -10811368.48326
  22700617.333          -0.70712
  18863596.997   -16121352.774 7 -12492412.50728
  21255144.864    -8690558.675 5  -6438611.27225
  21609325.872   -10327119.622 6  -7870965.50226
  18730158.778   -26316100.907 7 -20289171.10428
  19693490.036   -24691470.506 6 -19032947.71527
 95  6  8  2 51 29.9930000  0  8  6 28 22 17  1 26 23 21
  21812920.599     6646450.811 3   5227437.56523
  20225063.771   -15626157.468 6 -10889685.72426
  22706003.489       28258.216 2
  18863169.380   -16123614.285 7 -12494174.74429
  21229276.981    -8826537.806 5  -6544568.91425
  21620022.583   -10270910.048 6  -7827165.86825
  18727423.028   -26330485.219 7 -20300379.63628
  19678704.177   -24769175.237 6 -19093496.84027
 95  6  8  2 51 59.9930000  0  8  6 28 22 17  1 26 23 21
  21828856.458     6730264.445 2   5292746.86522
  20206027.950   -15726189.904 6 -10967633.07526
  22711417.474       56716.535 2
  18862806.536   -16125528.462 7 -12495666.33929
  21203428.919    -8962352.994 5  -6650398.82225
  21630786.614   -10214350.386 6  -7783093.42525
  18724733.169   -26344602.195 7 -20311379.88128
  19663970.388   -24846602.981 6 -19153830.13627
 95  6  8  2 52 29.9930000  0  8  6 28 22 17  1 26 23 21
  21844838.794     6814221.047 2   5358167.46221
  20187087.646   -15825737.712 6 -11045202.78426
  22716879.685       85389.080 3        -0.12931
  18862505.911   -16127096.494 7 -12496888.19529
  21177620.075    -9097979.615 5  -6756081.79025
  21641613.208   -10157431.459 5  -7738741.01325
  18722103.239   -26358438.276 7 -20322161.25028
  19649287.817   -24923741.927 6 -19213938.38127
 95  6  8  2 52 59.9930000  0  8  6 28 22 17  1 26 23 21
  21860858.450     6898322.526 2   5423701.02323
  20168232.106   -15924795.875 6 -11122390.96826
  22722357.146                          -0.69311
  18862268.880   -16128320.766 7 -12497842.18929
  21151845.997    -9233397.756 5  -6861602.33125
  21652519.880   -10100150.024 6  -7694106.12425
  18719526.450   -26371971.630 7 -20332706.72128
  19634669.497   -25000591.627 6 -19273821.25127
 95  6  8  2 53 29.9930000  0  8  6 28 22 17  1 26 23 21
  21876863.567     6982557.228 1   5489338.44121
  20149480.192   -16023372.171 6 -11199203.66926
  22727909.216                       29120.426 2
  18862103.302   -16129215.791 7 -12498539.62929
  21126110.458    -9368610.906 5  -6966963.14125
  21663485.888   -10042512.377 5  -7649193.68625
  18717007.747   -26385206.245 7 -20343019.40528
  19620096.552   -25077171.369 7 -19333493.76027
 95  6  8  2 53 59.9930000  0  8  6 28 22 17  1 26 23 21
  21892940.122     7066933.522 2   5555086.14521
  20130815.224   -16121459.726 6 -11275635.53726
  22733501.489                       58469.259 2
  18861994.817   -16129779.596 7 -12498978.98129
  21100425.396    -9503607.736 5  -7072155.39325
  21674519.942    -9984523.045 5  -7604007.26425
  18714549.521   -26398135.544 7 -20353094.19028
  19605572.075   -25153481.891 6 -19392956.48427
 95  6  8  2 54 29.9930000  0  7  6 28 17  1 26 23 21
  21909015.481     7151456.770 3   5620948.24321
  20112241.646   -16219052.783 6 -11351682.06926
  18861952.810   -16130007.066 7
  21074780.294    -9638387.600 5  -7177178.54325
  21685623.786    -9926187.986 6  -7558551.38825
  18712145.786   -26410759.937 7 -20362931.37028
  19591103.880   -25229513.818 6 -19452202.12827
 95  6  8  2 54 59.9930000  0  8  6 28 22 17  1 26 23 21
  21925133.075     7236134.202 3   5686930.62021
  20093759.786   -16316148.995 6 -11427341.45626
  22744807.239       29796.122 2
  18861972.106   -16129887.019 7
  21049170.396    -9772953.784 5  -7282035.23225
  21696784.653    -9867515.499 6  -7512832.62125
  18709797.044   -26423093.832 7 -20372542.19128
  19576686.325   -25305281.106 7 -19511241.58027
 95  6  8  2 55 29.9930000  0  7  6 28 17  1 26 23 21
  21941267.567     7320927.884 3   5753003.51121
  20075375.216   -16412761.211 6 -11502623.70026
  18862058.192   -16129435.593 7
  21023607.888    -9907302.367 5  -7386722.35125
  21708010.466    -9808524.345 6  -7466865.50925
  18707500.349   -26435174.775 7 -20381955.92828
  19562310.646   -25380810.715 6 -19570095.82827
 95  6  8  2 55 59.9930000  0  7  6 28 17  1 26 23 21
  21957422.935     7405830.055 3   5819160.95321
  20057086.872   -16508884.914 6 -11577525.27626
  18862206.458   -16128657.251 7 -12498104.47029
  20998084.349   -10041418.304 5  -7491228.21025
  21719299.138    -9749217.948 5  -7420652.72725
  18705253.317   -26447002.372 7 -20391172.22028
  19547981.403   -25456103.654 6 -19628765.66227
 95  6  8  2 56 29.9930000  0  7  6 28 17  1 26 23 21
  21973593.536     7490841.057 4   5885403.15921
  20038883.591   -16604518.507 6 -11652044.97726
  18862413.802   -16127551.082 7 -12497242.52229
  20972612.403   -10175302.795 5  -7595553.66726
  21730641.630    -9689587.268 6  -7374187.29624
  18703049.614   -26458572.902 7 -20400188.22428
  19533705.325   -25531144.438 6 -19687238.98027
 95  6  8  2 56 59.9930000  0  8  6 28  9 17  1 26 23 21
  21989802.708     7575954.704 5   5951725.33721
  20020785.372   -16699657.312 6 -11726179.15326
  22519463.294          -0.35914
  18862692.903   -16126110.004 7 -12496119.61429
  20947171.724   -10308945.262 5  -7699690.57626
  21742060.388    -9629622.530 5  -7327461.52824
  18700897.200   -26469882.499 7 -20409000.89728
  19519475.505   -25605922.592 6 -19745507.66227
 95  6  8  2 57 29.9930000  0  8  6 28  9 17  1 26 23 21
  22006019.052     7661190.481 5   6018142.67421
  20002774.263   -16794293.283 6 -11799921.49527
  22503193.036      -85494.355 3        -0.07533
  18863030.817   -16124339.662 7 -12494740.14029
  20921791.989   -10442346.456 5  -7803639.46625
  21753528.536    -9569328.411 5  -7280479.12323
  18698796.185   -26480914.610 7 -20417597.35628
  19505296.544   -25680416.126 6 -19803554.54727
 95  6  8  2 57 59.9930000  0  8  6 28  9 17  1 26 23 21
  22022268.106     7746569.393 5   6084671.57421
  19984862.067   -16888427.640 6 -11873272.95426
  22486960.435     -170750.145 3    -66433.12122
  18863428.044   -16122240.378 7 -12493104.34129
  20896444.294   -10575544.001 5  -7907429.67526
  21765066.099    -9508714.897 5  -7233247.84624
  18696756.185   -26491662.968 7 -20425972.70228
  19491179.567   -25754610.807 6 -19861368.53127
 95  6  8  2 58 29.9930000  0  8  6 28  9 17  1 26 23 21
  22038542.583     7832106.566 5   6151323.79522
  19967043.161   -16982053.031 6 -11946227.81726
  22470786.544     -255764.728 4   -132678.16822
  18863892.841   -16119802.258 7 -12491204.51429
  20871137.481   -10708540.729 5  -8011063.40325
  21776656.075    -9447789.628 5  -7185773.64325
  18694761.481   -26502123.427 7 -20434123.71628
  19477120.247   -25828488.752 6 -19918935.72527
 95  6  8  2 58 59.9930000  0  8  6 28  9 17  1 26 23 21
  22054847.036     7917790.082 5   6218090.01121
  19949323.567   -17075166.809 6 -12018784.02426
  22454663.333     -340551.885 5   -198745.98522
  18864420.958   -16117036.821 7 -12489049.62529
  20845870.731   -10841333.688 6  -8114538.32125
  21788309.981    -9386570.053 5  -7138070.10123
  18692825.263   -26512305.586 7 -20442057.88328
  19463121.333   -25902070.597 6 -19976272.22727
 95  6  8  2 59 29.9930000  0  8  6 28  9 17  1 26 23 21
  22071177.052     8003609.352 5   6284962.03221
  19931704.106   -17167772.555 6 -12090944.35626
  22438559.489     -425108.920 3   -264634.56322
  18865005.481   -16113962.971 7 -12486654.42929
  20820629.591   -10973943.546 5  -8217870.62025
  21800004.208    -9325078.567 5  -7090154.64724
  18690938.192   -26522224.165 7 -20449786.66228
  19449173.403   -25975378.905 6 -20033395.57427
 95  6  8  2 59 59.9930000  0  8  6 28  9 17  1 26 23 21
  22087528.981     8089535.571 5   6351917.41221
  19914179.544   -17259869.613 6 -12162708.30527
  22422520.177     -509423.012 5   -330333.85924
  18865644.169   -16110581.254 7 -12484019.32229
  20795437.771   -11106361.369 6  -8321053.24625
  21811761.880    -9263312.569 5  -7042025.32122
  18689097.325   -26531880.371 7 -20457310.95228
  19435268.927   -26048413.735 6 -20090305.81027
 95  6  8  3  0 29.9930000  0  8  6 28  9 17  1 26 23 21
  22103900.427     8175544.862 5   6418937.48721
  19896750.583   -17351450.795 6 -12234070.26526
  22406526.302     -593479.529 5   -395832.39024
  18866345.974   -16106899.288 7 -12481150.25628
  20770272.794   -11238552.877 5  -8424059.52525
  21823568.716    -9201267.813 5  -6993678.80622
  18687314.864   -26541268.080 7 -20464626.04728
  19421422.599   -26121171.887 6 -20147000.47027
 95  6  8  3  0 59.9930000  0  8  6 28  9 17  1 26 23 21
  22120277.372     8261621.140 5   6486009.77321
  19879421.247   -17442511.790 6 -12305026.85026
  22390582.153     -677282.626 5   -461133.50024
  18867106.021   -16102908.909 7 -12478040.87728
  20745170.317   -11370516.726 6  -8526888.41925
  21835430.364    -9138925.227 5  -6945100.19822
  18685573.817   -26550396.707 7 -20471739.26128
  19407634.255   -26193657.535 6 -20203482.74827
 95  6  8  3  1 29.9930000  0  8  6 28  9 17  1 26 23 21
  22136671.708     8347774.352 5   6553142.07122
  19862194.325   -17533055.084 6 -12375580.07726
  22374677.200     -760817.472 5   -526225.48822
  18867926.794   -16098602.991 7 -12474685.63129
  20720088.942   -11502253.003 5  -8629539.98425
  21847351.349    -9076279.882 5  -6896285.66322
  18683887.802   -26559259.643 7 -20478645.45228
  19393894.044   -26265852.686 6 -20259738.66027
 95  6  8  3  1 59.9930000  0  8  6 28  9 17  1 26 23 21
  22153085.278     8434014.758 5   6620342.25221
  19845059.521   -17623082.122 6 -12445731.01226
  22358835.958     -844088.270 5   -591111.74022
  18868811.349   -16093960.202 7 -12471067.86628
  20695079.919   -11633737.494 6  -8731995.35725
  21859333.185    -9013327.339 5  -6847231.77824
  18682255.278   -26567849.229 7 -20485338.63528
  19380206.950   -26337752.658 6 -20315764.58327
 95  6  8  3  2 29.9930000  0  8  6 28  9 17  1 26 23 21
  22169508.958     8520364.166 4   6687627.39321
  19828026.372   -17712585.652 6 -12515474.04026
  22343039.114     -927088.401 5   -655787.15625
  18869763.396   -16088968.511 7 -12467178.24028
  20670109.357   -11764962.988 6  -8834248.91725
  21871369.638    -8950066.184 5  -6797937.39025
  18680668.364   -26576174.996 7 -20491826.25228
  19366581.872   -26409379.525 6 -20371577.71827
 95  6  8  3  2 59.9920000  0  8  6 28  9 17  1 26 23 21
  22185974.211     8606838.752 4   6755010.11921
  19811095.094   -17801564.988 6 -12584808.57726
  22327306.141    -1009804.330 5   -720241.09724
  18870775.727   -16083618.425 7 -12463009.34828
  20645180.203   -11895928.943 6  -8936300.24626
  21883472.250    -8886510.582 5  -6748413.56824
  18679133.359   -26584245.311 7 -20498114.80828
  19353002.117   -26480751.507 7 -20427192.25927
 95  6  8  3  3 29.9920000  0  8  6 28  9 17  1 26 23 21
  22202459.922     8693452.740 3   6822501.42622
  19794262.180   -17890027.153 6 -12653740.13926
  22311620.680    -1092217.909 5   -784459.37722
  18871858.500   -16077924.070 7 -12458572.20928
  20620314.774   -12026628.128 6  -9038143.70125
  21895615.602    -8822685.410 3  -6698679.68923
  18677650.219   -26592053.873 7 -20504199.42129
  19339462.695   -26551881.826 6 -20482618.50027
 95  6  8  3  3 59.9920000  0  8  6 28  9 17  1 26 23 21
  22218955.625     8780194.837 2   6890092.53522
  19777528.586   -17977953.746 6 -12722254.36826
  22295994.586    -1174310.600 5   -848427.71622
  18873012.938   -16071875.700 7 -12453859.19128
  20595496.406   -12157039.925 6  -9139763.22026
  21907805.492    -8758585.291 3  -6648731.53522
  18676215.430   -26599595.813 7 -20510076.26229
  19325973.195   -26622782.107 7 -20537865.46527
 95  6  8  3  4 29.9920000  0  8  6 28  9 17  1 26 23 21
  22235482.016     8867043.768 3   6957766.94223
  19760902.047   -18065336.012 6 -12790344.45326
  22280438.367    -1256068.678 5   -912135.19622
  18874231.492   -16065482.780 7 -12448877.70928
  20570730.336   -12287174.173 6  -9241166.46025
  21920057.484    -8694208.807 3  -6598568.08221
  18674829.195   -26606869.758 7 -20515744.28128
  19312529.359   -26693440.615 7 -20592924.00927
 95  6  8  3  4 59.9920000  0  8  6 28  9 17  1 26 23 21
  22252030.297     8953987.426 3   7025515.10822
  19744378.813   -18152176.965 6 -12858012.71127
  22264938.602    -1337494.909 5   -975584.24023
  18875511.195   -16058746.578 7 -12443628.73128
  20546020.242   -12417047.138 6  -9342366.10126
  21932357.953    -8629558.317 3
  18673497.313   -26613865.855 7 -20521195.78028
  19299135.688   -26763827.641 7 -20647771.00427
 95  6  8  3  5 29.9920000  0  8  6 28  9 17  1 26 23 21
  22268585.774     9041001.563 2   7093318.27622
  19727956.008   -18238479.176 6 -12925261.19426
  22249507.734    -1418608.048 5  -1038789.19525
  18876859.969   -16051668.943 7 -12438113.70229
  20521350.250   -12546678.711 6  -9443377.63326
  21944717.352    -8564624.773 2        -0.46531
  18672215.117   -26620592.592 7 -20526437.41828
  19285790.195   -26833936.888 6 -20702401.57027
 95  6  8  3  5 59.9920000  0  8  6 28  9 17  1 26 23 21
  22285149.234     9128069.224 1   7161163.14921
  19711634.750   -18324243.573 6 -12992090.57626
  22234123.359    -1499430.975 5  -1101768.10023
  18878273.578   -16044240.919 7 -12432325.64529
  20496726.453   -12676077.373 6  -9544207.69226
  21957137.734    -8499394.427 2     50828.28021
  18670985.031   -26627057.361 7 -20531474.91528
  19272504.453   -26903760.852 7 -20756809.76627
 95  6  8  3  6 29.9920000  0  7 28  9 17  1 26 23 21
  19695418.125   -18409468.476 6 -13058499.58026
  22218803.320    -1579962.354 5  -1164519.84422
  18879749.766   -16036461.072 7 -12426263.43029
  20472150.516   -12805243.466 6  -9644856.52526
  21969598.383    -8433872.320 3    101884.42821
  18669802.461   -26633266.103 7 -20536312.86428
  19259275.047   -26973280.170 6 -20810980.66427
 95  6  8  3  6 59.9920000  0  7 28  9 17  1 26 23 21
  19679302.945   -18494157.487 6 -13124491.02226
  22203532.359    -1660199.598 5  -1227042.27721
  18881299.211   -16028336.951 7 -12419932.94929
  20447615.688   -12934165.561 6  -9745315.23526
  21982124.422    -8368063.721 3    153163.82121
  18668671.250   -26639233.064 7 -20540962.45528
  19246103.547   -27042511.802 7 -20864927.37027
 95  6  8  3  7 29.9920000  0  6 28  9 17  1 23 21
  19663289.789   -18578310.415 6 -13190064.70827
  22188324.141    -1740141.169 5  -1289334.42622
  18882905.602   -16019879.462 7 -12413342.71229
  20423128.719   -13062827.917 6  -9845571.55026
  18667580.305   -26644974.024 7 -20545435.93528
  19232976.656   -27111481.150 7 -20918669.70527
 95  6  8  3  7 59.9920000  0  6 28  9 17  1 23 21
  19647375.797   -18661913.437 6 -13255209.92226
  22173174.711    -1819767.636 5  -1351381.01122
  18884579.008   -16011093.298 7 -12406496.36529
  20398700.844   -13191199.882 6  -9945601.58726
  18666531.250   -26650477.817 7 -20549724.59928
  19219902.656   -27180181.646 6 -20972202.55027
 95  6  8  3  8 29.9920000  0  6 28  9 17  1 23 21
  19631574.406   -18744964.405 6 -13319924.95526
  22158081.102    -1899074.277 5  -1413178.30421
  18886313.242   -16001985.596 7 -12399399.46529
  20374328.445   -13319287.683 6 -10045410.20126
  18665524.844   -26655748.486 7 -20553831.62328
  19206881.039   -27248612.204 7 -21025525.05827
 95  6  8  3  8 59.9920000  0  7 28  9 17  1 26 23 21
  19615873.875   -18827458.491 6 -13384206.05026
  22143041.336    -1978065.826 5  -1474730.13422
  18888104.719   -15992558.062 7 -12392053.33629
  20350006.117   -13447084.002 6 -10144991.70526
  22032719.398          -0.08813
  18664571.070   -26660778.905 7 -20557751.42928
  19193911.766   -27316769.199 7 -21078634.42127
 95  6  8  3  9 29.9920000  0  7 28  9 17  1 26 23 21
  19600281.070   -18909398.411 6 -13448055.33326
  22128070.516    -2056762.307 5  -1536052.07822
  18889963.438   -15982815.782 7 -12384461.97029
  20325747.813   -13574591.928 6 -10244348.45426
  22045489.695       67101.371 3        -0.20232
  18663656.195   -26665571.358 7 -20561485.80428
  19180999.055   -27384647.651 6 -21131526.75727
 95  6  8  3  9 59.9920000  0  7 28  9 17  1 26 23 21
  19584797.313   -18990783.974 6 -13511472.61926
  22113146.680    -2135164.843 5  -1597144.93421
  18891874.063   -15972751.327 7 -12376619.55429
  20301533.797   -13701812.919 6 -10343481.64925
  22058305.477      134446.670 3     52476.68321
  18662798.328   -26670121.550 7 -20565031.41528
  19168131.375   -27452247.010 6 -21184201.59127
 95  6  8  3 10 29.9920000  0  7 28  9 17  1 26 23 21
  19569417.781   -19071611.241 6 -13574454.91426
  22098293.508    -2213262.379 5  -1658000.04022
  18893855.820   -15962341.153 7 -12368507.74729
  20277375.805   -13828746.472 6 -10442390.84226
  22071164.844      202042.276 2
  18661972.953   -26674421.922 7 -20568382.35828
  19155318.914   -27519562.288 6 -21236655.06127
 95  6  8  3 10 59.9920000  0  7 28  9 17  1 26 23 21
  19554137.602   -19151880.337 6 -13637002.25726
  22083486.906    -2291045.585 5  -1718610.28622
  18895901.445   -15951587.327 7 -12360128.15529
  20253278.547   -13955378.252 6 -10541064.90026
  22084084.844      269880.416 2         0.00031
  18661204.789   -26678470.574 7 -20571537.15328
  19142560.969   -27586615.246 6 -21288904.08327
 95  6  8  3 11 29.9920000  0  6 28  9 17  1 23 21
  19538974.203   -19231590.936 6 -13699114.39326
  22068748.430    -2368512.338 5  -1778974.00124
  18898016.703   -15940485.114 7 -12351477.09029
  20229245.617   -14081704.728 6 -10639501.04726
  18660482.742   -26682272.575 7 -20574499.73828
  19129849.148   -27653425.893 6 -21340964.32327
 95  6  8  3 11 59.9920000  0  6 28  9 17  1 23 21
  19523911.797   -19310732.427 6 -13760783.09426
  22054070.109    -2445629.980 5  -1839065.60924
  18900198.945   -15929015.294 7 -12342539.58129
  20205261.016   -14207723.861 6 -10737697.71526
  18659804.922   -26685810.476 7 -20577256.52228
  19117184.445   -27719992.790 7 -21392834.62727
 95  6  8  3 12 29.9920000  0  6 28  9 17  1 23 21
  19508957.352   -19389320.009 6 -13822020.15026
  22039459.617    -2522413.926 5  -1898897.19824
  18902448.063   -15917196.855 7 -12333330.41428
  20181342.664   -14333452.972 6 -10835668.38526
  18659178.203   -26689102.808 7 -20579821.97828
  19104560.250   -27786328.722 6 -21444524.96727
 95  6  8  3 12 59.9920000  0  6 28  9 17  1 23 21
  19494110.531   -19467340.911 6 -13882815.66726
  22024917.789    -2598854.748 5  -1958461.44221
  18904761.102   -15905027.846 7 -12323848.08828
  20157469.680   -14458879.406 6 -10933403.19626
  18658597.859   -26692155.624 7 -20582200.80328
  19091978.758   -27852423.628 7 -21496027.50227
 95  6  8  3 13 29.9920000  0  6 28  9 17  1 23 21
  19479375.125   -19544784.159 6 -13943161.05827
  22010435.500    -2674940.139 5  -2017748.73421
  18907147.547   -15892498.271 7 -12314084.79628
  20133660.695   -14584000.108 6 -11030899.80026
  18658067.094   -26694964.728 7 -20584389.71128
  19079453.500   -27918260.205 7 -21547328.71827
 95  6  8  3 13 59.9920000  0  6 28  9 17  1 23 21
  19464746.172   -19621652.990 6 -14003058.86527
  21996027.664    -2750667.508 5  -2076756.98422
  18909599.617   -15879615.130 7 -12304046.00128
  20109903.672   -14708825.533 6 -11128166.31026
  18657572.633   -26697537.592 7 -20586394.54428
  19066976.375   -27983834.746 7 -21598425.77127
 95  6  8  3 14 29.9920000  0  6 28  9 17  1 23 21
  19450225.789   -19697946.032 6 -14062508.00227
  21981676.477    -2826052.959 4  -2135498.88823
  18912116.125   -15866394.305 7 -12293744.07828
  20086203.531   -14833345.528 6 -11225194.82626
  18657125.711   -26699890.810 7 -20588228.22828
  19054543.883   -28049146.801 7 -21649318.28627
 95  6  8  3 14 59.9920000  0  6 28  9 17  1 23 21
  19435819.164   -19773666.990 6 -14121511.35426
  21967396.211    -2901087.929 5  -2193967.70022
  18914694.320   -15852851.001 7 -12283190.87229
  20062578.516   -14957559.984 6 -11321985.24826
  18656720.523   -26702029.951 7 -20589895.09829
  19042163.000   -28114202.861 7 -21700011.30327
 95  6  8  3 15 29.9920000  0  6 28  9 17  1 23 21
  19421514.227   -19848812.032 6 -14180065.93027
  21953192.781    -2975769.622 5  -2252161.17424
  18917327.016   -15838985.137 7 -12272386.31229
  20038998.055   -15081467.442 6 -11418536.45026
  18656358.047   -26703933.117 7 -20591378.10429
  19029832.813   -28178998.132 6 -21750501.10727
 95  6  8  3 15 59.9920000  0  6 28  9 17  1 23 21
  19407329.727   -19923384.267 6
  21939042.125    -3050106.345 5
  18920027.109   -15824801.177 7 -12261333.88828
  20015468.000   -15205076.168 6 -11514854.85826
  18656040.805   -26705603.341 7 -20592679.58728
  19017550.875   -28243529.322 6 -21800785.14627
 95  6  8  3 16 29.9920000  0  6 28  9 17  1 23 21
  19393245.195   -19997385.783 6
  21924966.125    -3124092.438 5
  18922792.242   -15810296.572 7 -12250031.60228
  19992011.750   -15328379.139 6 -11610935.04826
  18655763.234   -26707044.752 7 -20593802.76828
  19005328.938   -28307790.094 7 -21850858.46327
 95  6  8  3 16 59.9920000  0  6 28  9 17  1 23 21
  19379274.953   -20070811.780 6 -14353052.71627
  21910953.445    -3197713.509 5  -2425104.40923
  18925613.875   -15795454.275 7 -12238466.19928
  19968606.031   -15451381.174 6 -11706780.72426
  18655541.313   -26708256.120 7 -20594746.69329
  18993152.336   -28371774.577 6 -21900716.47827
 95  6  8  3 17 29.9920000  0  6 28  9 17  1 23 21
  19365412.016   -20143663.882 6 -14409820.57626
  21897011.117    -3270982.487 5  -2482197.03824
  18928506.820   -15780263.174 7 -12226628.98328
  19945250.695   -15574085.513 6 -11802394.43626
  18655345.031   -26709253.473 7 -20595523.86629
  18981026.438   -28435491.358 6 -21950365.92527
 95  6  8  3 17 59.9920000  0  6 28  9 17  1 23 21
  19351656.758   -20215939.482 6 -14466139.23326
  21883138.680    -3343894.785 5  -2539011.69722
  18931460.008   -15764716.471 7 -12214514.67728
  19921961.938   -15696477.695 6 -11897764.89326
  18655194.477   -26710049.253 7 -20596143.97028
  18968952.898   -28498943.038 7 -21999808.78527
 95  6  8  3 18 29.9920000  0  6 28  9 17  1 23 21
  19338013.594   -20287638.065 6 -14522008.27727
  21869335.133    -3416448.872 3  -2595547.24322
  18934490.289   -15748811.797 7 -12202121.44428
  19898734.656   -15818545.048 6 -11992882.25526
  18655079.438   -26710646.999 7 -20596609.75528
  18956925.031   -28562143.599 7 -22049055.95027
 95  6  8  3 18 59.9920000  0  6 28  9 17  1 23 21
  19324476.641   -20358757.364 6 -14577425.89927
  21855593.023    -3488648.769 3  -2651806.85422
  18937584.367   -15732552.517 7 -12189451.87728
  19875565.969   -15940292.050 6 -12087749.98826
  18655003.523   -26711044.771 7 -20596919.71229
  18944943.094   -28625110.749 7 -22098121.25927
 95  6  8  3 19 29.9920000  0  6 28  9 17  1 23 21
  19311055.938   -20429292.612 6 -14632388.42127
  21841915.813    -3560493.782 3  -2707789.87923
  18940746.070   -15715945.031 7 -12176510.99028
  19852464.539   -16061708.466 6 -12182360.12926
  18654969.172   -26711231.156 7
  18933004.719   -28687844.530 7 -22147004.63227
 95  6  8  3 19 59.9920000  0  6 28  9 17  1 23 21
  19297751.055   -20499239.636 6 -14686892.59227
  21828314.352    -3631969.785 4  -2763485.40623
  18943974.422   -15698990.428 7 -12163299.60828
  19829418.695   -16182792.261 6 -12276711.09226
  18654974.711   -26711193.842 7
  18921110.383   -28750333.818 7 -22195697.58627
 95  6  8  3 20 29.9920000  0  6 28  9 17  1 23 21
  19284550.875   -20568591.080 7 -14740932.68127
  21814783.438    -3703059.625 3  -2818880.05725
  18947262.242   -15681689.694 7 -12149818.53428
  19806440.852   -16303550.023 6 -12370808.02426
  18655026.063   -26710936.262 7
  18909272.711   -28812565.260 7 -22244189.60327
 95  6  8  3 20 59.9920000  0  6 28  9 17  1 23 21
  19271462.125   -20637353.759 6 -14794514.00127
  21801331.844    -3773772.430 5  -2873980.92723
  18950620.203   -15664057.195 7 -12136078.93128
  19783521.492   -16423989.012 6 -12464656.49526
  18655112.266   -26710470.344 7 -20596472.10728
  18897474.000   -28874534.648 7 -22292477.41427
 95  6  8  3 21 29.9920000  0  6 28  9 17  1 23 21
  19258492.984   -20705512.265 6 -14847624.52227
  21787957.609    -3844093.672 5  -2928776.66522
  18954037.148   -15646083.668 7 -12122073.60128
  19760660.195   -16544091.489 6 -12558242.80726
  18655249.578   -26709783.131 7 -20595936.61829
  18885742.227   -28936214.231 7 -22340539.41927
 95  6  8  3 21 59.9920000  0  6 28  9 17  1 23 21
  19245637.328   -20773073.270 6 -14900269.49127
  21774639.945    -3914029.561 5  -2983272.08822
  18957521.172   -15627774.697 7 -12107806.87328
  19737875.117   -16663864.967 6 -12651572.74826
  18655417.281   -26708885.499 7 -20595237.17329
  18874058.102   -28997615.041 7 -22388384.19227
 95  6  8  3 22 29.9920000  0  6 28  9 17  1 23 21
  19232894.977   -20840036.587 6 -14952448.72027
  21761409.649    -3983591.278 5  -3037475.91723
  18961072.094   -15609129.704 7 -12093278.31728
  19715145.563   -16783301.497 6 -12744640.18826
  18655625.266   -26707777.446 7 -20594373.75429
  18862420.203   -29058745.115 7 -22436018.04027
 95  6  8  3 22 59.9920000  0  6 28  9 17  1 23 21
  19220263.320   -20906404.962 6 -15004164.35827
  21748234.969    -4052793.642 5  -3091399.80624
  18964681.024   -15590148.204 7 -12078487.54528
  19692483.039   -16902393.267 6 -12837438.86826
  18655880.867   -26706445.454 7 -20593335.83928
  18850838.703   -29119622.886 7 -22483455.29527
 95  6  8  3 23 29.9920000  0  6 28  9 17  1 23 21
  19207748.789   -20972177.452 6 -15055415.63927
  21735135.055    -4121628.395 5  -3145037.17125
  18968357.688   -15570835.866 7 -12063438.95928
  19669887.750   -17021142.169 6 -12929970.40626
  18656176.063   -26704887.463 7 -20592121.81728
  18839303.914   -29180261.965 7 -22530706.53227
 95  6  8  3 23 59.9920000  0  6 28  9 17  1 23 21
  19195348.031   -21037352.927 6 -15106201.72927
  21722115.227    -4190092.341 4  -3198385.71425
  18972094.789   -15551186.048 7 -12048127.42428
  19647355.688   -17139536.390 6 -13022225.53926
  18656517.320   -26703111.917 7 -20590738.27928
  18827801.914   -29240671.659 7 -22577779.01727
 95  6  8  3 24 29.9920000  0  6 28  9 17  1 23 21
  19183056.008   -21101927.879 6 -15156519.88327
  21709148.305    -4258180.028 3  -3251441.00625
  18975898.883   -15531193.237 7 -12032548.62728
  19624897.578   -17257566.369 6 -13114196.88526
  18656895.359   -26701124.327 7 -20589189.52228
  18816354.727   -29300846.335 7 -22624668.35427
 95  6  8  3 24 59.9920000  0  6 28  9 17  1 23 21
  19170882.242   -21165908.244 7 -15206374.67827
  21696266.281    -4325880.388 4  -3304194.47124
  18979769.703   -15510876.726 7 -12016717.57828
  19602502.320   -17375239.740 6 -13205890.36326
  18657309.789   -26698931.088 7 -20587480.50728
  18804944.406   -29360797.715 7 -22671383.69927
 95  6  8  3 25 29.9920000  0  6 28  9 17  1 23 21
  19158829.258   -21229277.227 6 -15255753.10627
  21683466.336    -4393159.572 5  -3356619.73325
  18983700.617   -15490213.206 7 -12000616.14028
  19580181.609   -17492543.546 6 -13297295.84926
  18657766.172   -26696532.088 7 -20585611.12228
  18793585.000   -29420496.799 7 -22717902.45027
 95  6  8  3 25 59.9920000  0  6 28  9 17  1 23 21
  19146881.688   -21292044.264 6 -15304662.50227
  21670744.313    -4460025.883 5  -3408723.27925
  18987701.477   -15469192.406 7 -11984236.32028
  19557931.484   -17609487.149 6 -13388420.68126
  18658259.484   -26693940.799 7 -20583591.91928
  18782272.063   -29479943.165 7 -22764224.26727
 95  6  8  3 26 29.9920000  0  6 28  9 17  1 23 21
  19135053.680   -21354216.419 6 -15353108.33827
  21658091.500    -4526474.112 5  -3460501.06124
  18991766.133   -15447819.811 7 -11967582.35628
  19535737.227   -17726093.096 6 -13479282.39926
  18658787.211   -26691155.983 7 -20581421.94928
  18771009.219   -29539130.036 7 -22810343.89727
 95  6  8  3 26 59.9920000  0  6 28  9 17  1 23 21
  19123332.578   -21415790.364 6 -15401088.04527
  21645533.273    -4592496.062 4  -3511946.63124
  18995902.750   -15426097.849 7 -11950656.18528
  19513615.891   -17842362.065 6 -13569881.52427
  18659356.922   -26688181.833 7 -20579104.44228
  18759799.156   -29598058.521 7 -22856262.17027
 95  6  8  3 27 29.9920000  0  6 28  9 17  1 23 21
  19111732.570   -21476747.121 6 -15448586.81627
  21633053.078    -4658087.747 5  -3563056.96825
  19000104.828   -15403998.088 7 -11933435.60328
  19491552.398   -17958280.842 6 -13660207.78127
  18659957.563   -26685021.765 7 -20576642.04828
  18748637.430   -29656705.158 7 -22901960.80627
 95  6  8  3 27 59.9920000  0  6 28  9 17  1 23 21
  19100250.219   -21537089.765 6 -15495607.06327
  21620654.273    -4723264.154 5  -3613843.74624
  19004378.961   -15381540.094 7 -11915935.89028
  19469562.836   -18073848.315 6 -13750260.29327
  18660596.422   -26681668.536 7 -20574029.07628
  18737527.563   -29715083.799 7 -22947450.65627
 95  6  8  3 28 29.9920000  0  6 28  9 17  1 23 21
  19088878.281   -21596827.583 6 -15542156.01727
  21608319.578    -4788039.605 4  -3664318.08725
  19008714.328   -15358748.692 7 -11898176.34728
  19447638.195   -18189065.017 6 -13840039.47727
  18661269.305   -26678135.773 7 -20571276.28628
  18726467.453   -29773222.437 7 -22992753.49827
 95  6  8  3 28 59.9920000  0  6 28  9 17  1 23 21
  19077628.399   -21655959.255 6 -15588232.65527
  21596065.008    -4852433.197 5  -3714494.86025
  19013116.281   -15335629.991 7 -11880161.80828
  19425781.297   -18303913.560 6 -13929531.77927
  18661974.289   -26674420.868 7 -20568381.53528
  18715440.438   -29831146.929 7 -23037889.48727
 95  6  8  3 29 29.9920000  0  6 28  9 17  1 23 21
  19066491.508   -21714487.129 6 -15633838.78727
  21583885.188    -4916453.769 5  -3764380.98224
  19017576.227   -15312181.378 7 -11861890.18528
  19403995.774   -18418395.917 6 -14018738.74927
  18662720.844   -26670509.331 7 -20565333.58528
  18704458.531   -29888856.685 7 -23082858.13327
 95  6  8  3 29 59.9920000  0  6 28  9 17  1 23 21
  19055471.133   -21772412.417 6 -15678975.36327
  21571777.344    -4980093.614 5  -3813970.38224
  19022102.984   -15288401.499 7 -11843360.42727
  19382285.727   -18532501.923 6 -14107652.46327
  18663503.227   -26666387.185 7 -20562121.50628
  18693515.563   -29946355.814 7 -23127662.60427
 95  6  8  3 30 29.9920000  0  6 28  9 17  1 23 21
  19044565.281   -21829724.052 6
  21559743.023    -5043338.841 5  -3863252.31624
  19026696.414   -15264272.340 7 -11824558.51627
  19360642.836   -18646219.717 6 -14196263.66827
  18664329.469   -26662052.556 7 -20558743.86228
  18682619.500   -30003628.115 7
 95  6  8  3 30 59.9910000  0  6 28  9 17  1 23 21
  19033774.440   -21886422.540 6        -0.45537
  21547782.667    -5106182.220 5  -3912221.10924
  19031351.089   -15239806.457 7 -11805494.20728
  19339074.722   -18759557.967 6 -14284579.13827
  18665191.862   -26657510.157 7 -20555204.33528
  18671766.105   -30060654.161 7 -23216726.27727
 95  6  8  3 31 29.9910000  0  7 31 28  9 17  1 23 21
  21825651.394          -0.52512
  19023098.417   -21942513.354 6    -43707.58427
  21535902.284    -5168609.393 5  -3960865.58525
  19036070.167   -15215000.262 7 -11786164.75327
  19317575.894   -18872527.484 6 -14372607.32427
  18666095.097   -26652774.836 7 -20551514.45228
  18660967.081   -30117424.870 7 -23260963.20727
 95  6  8  3 31 59.9910000  0  6 28  9 17  1 23 21
  19012536.401   -21998035.702 6    -86971.73927
  21524093.972    -5230657.561 5  -4009214.74125
  19040845.026   -15189903.593 7 -11766608.91628
  19296147.081   -18985143.510 6 -14460360.03127
  18667021.472   -26647900.801 7 -20547716.50528
  18650197.831   -30173986.146 6 -23305036.91627
 95  6  8  3 32 29.9910000  0  6 28  9 17  1 23 21
  19002069.394   -22053032.888 6   -129826.68827
  21512347.784    -5292370.276 5  -4057302.55925
  19045663.573   -15164574.629 6 -11746872.08428
  19274778.198   -19097456.074 7 -14547876.28427
  18667965.183   -26642938.339 7 -20543849.64629
  18639469.237   -30230379.522 7 -23348979.82127
 95  6  8  3 32 59.9910000  0  7 31 28  9 17  1 23 21
  21761260.956          -0.46513
  18991725.956   -22107385.209 6   -172179.11827
  21500698.933    -5353619.674 5  -4105029.34525
  19050550.081   -15138888.986 6 -11726857.30428
  19253482.855   -19209349.626 6 -14635066.01427
  18668946.550   -26637779.489 7 -20539829.77329
  18628792.230   -30286492.791 7 -23392704.40227
 95  6  8  3 33 29.9910000  0  7 31 28  9 17  1 23 21
  21739933.964     -112049.387 2
  18981493.120   -22161140.841 6   -214066.60627
  21489119.761    -5414458.644 5  -4152436.29524
  19055500.776   -15112886.185 6 -11706595.39928
  19232262.425   -19320875.592 7 -14721969.29627
  18669957.753   -26632472.780 7 -20535694.68229
  18618153.683   -30342393.475 7 -23436263.37527
 95  6  8  3 33 59.9910000  0  7 31 28  9 17  1 23 21
  21718675.456     -223692.024 2        -0.38531
  18971388.495   -22214261.876 6   -255459.62727
  21477628.370    -5474849.660 5  -4199494.18424
  19060518.284   -15086538.164 6 -11686064.49728
  19211112.214   -19432008.976 7 -14808566.69027
  18671002.276   -26626982.402 7 -20531416.46729
  18607564.503   -30398044.799 7 -23479628.02927
 95  6  8  3 34 29.9910000  0  7 31 28  9 17  1 23 21
  21697536.472     -334872.674 2    -86634.70221
  18961414.276   -22266682.765 6   -296307.07627
  21466237.347    -5534716.339 5  -4246143.47624
  19065609.472   -15059774.581 7 -11665209.78927
  19190045.394   -19542712.646 6 -14894829.24127
  18672094.753   -26621238.833 7 -20526940.95529
  18597031.620   -30453382.004 7 -23522747.90227
 95  6  8  3 34 59.9910000  0  7 31 28  9 17  1 23 21
  21676440.542     -445726.656 3   -173014.34721
  18951548.769   -22318511.664 6   -336693.25027
  21454920.542    -5594167.663 5  -4292469.11024
  19070765.245   -15032689.914 7 -11644104.89227
  19169044.011   -19653088.268 6 -14980836.17527
  18673217.683   -26615346.529 7 -20522349.54729
  18586541.667   -30508520.930 7 -23565713.28228
 95  6  8  3 35 29.9910000  0  7 31 28  9 17  1 23 21
  21655410.519     -556206.403 3   -259102.52121
  18941808.175   -22369695.861 6   -376577.06027
  21443700.980    -5653157.586 5  -4338435.21624
  19075986.589   -15005240.618 7 -11622715.85327
  19148110.409   -19763070.487 7 -15066536.57527
  18674378.441   -26609237.431 7 -20517589.20429
  18576094.714   -30563401.868 7 -23608477.64028
 95  6  8  3 35 59.9910000  0  7 31 28  9 17  1 23 21
  21634422.909     -666475.726 1   -345026.70021
  18932160.847   -22420394.467 6   -416082.48427
  21432532.675    -5711846.456 5  -4384166.77725
  19081250.503   -14977588.449 7 -11601168.72127
  19127232.237   -19872800.925 6 -15152040.76427
  18675552.706   -26603072.667 7 -20512785.49029
  18565675.409   -30618174.543 7 -23651157.64127
 95  6  8  3 36 29.9910000  0  6 28  9 17  1 23 21
  18922629.456   -22470484.839 6   -455113.99227
  21421443.753    -5770123.839 5  -4429577.68125
  19086577.753   -14949597.305 7 -11579357.44327
  19106422.159   -19982147.860 6 -15237246.13627
  18676759.894   -26596722.613 7 -20507837.40529
  18555291.378   -30672726.180 7 -23693665.38028
 95  6  8  3 36 59.9910000  0  7 31 28  9 17  1 23 21
  21592677.956          -0.18213
  18913225.956   -22519901.397 6   -493620.42427
  21410442.198    -5827923.219 5  -4474616.12725
  19091977.948   -14921211.458 7 -11557238.63327
  19085704.808   -20091026.564 6 -15322086.62927
  18678016.159   -26590130.650 7 -20502700.81228
  18544967.519   -30726994.127 7 -23735952.10027
 95  6  8  3 37 29.9910000  0  7 31 28  9 17  1 23 21
  21571902.534     -109183.694 2
  18903927.894   -22568764.666 6   -531695.73527
  21399511.886    -5885357.172 5  -4519369.80425
  19097427.722   -14892561.046 7 -11534913.67127
  19065050.362   -20199561.235 6 -15406659.07527
  18679291.862   -26583429.338 7 -20497479.01628
  18534669.565   -30781097.536 7 -23778110.54927
 95  6  8  3 37 59.9910000  0  6 28  9 17  1 23 21
  18894746.995   -22616999.637 6   -569281.45127
  21388670.167    -5942340.384 6  -4563772.24425
  19102949.675   -14863561.431 7 -11512316.53127
  19044480.425   -20307682.385 6 -15490909.31027
  18680598.542   -26576549.619 7 -20492118.20829
  18524422.690   -30834963.843 7 -23820084.29327
 95  6  8  3 38 29.9910000  0  6 28  9 17  1 23 21
  18885699.480   -22664562.597 6   -606343.51827
  21377919.550    -5998821.712 5  -4607783.62825
  19108542.675   -14834164.953 7 -11489410.22327
  19023990.565   -20415351.851 6 -15574807.57627
  18681951.464   -26569452.530 7 -20486588.01328
  18514225.300   -30888552.266 7 -23861841.50727
 95  6  8  3 38 59.9910000  0  7 31 28  9 17  1 23 21
  21510016.628     -108037.361 3
  18876756.573   -22711563.937 6   -642967.96727
  21367246.542    -6054900.768 5  -4651481.54025
  19114189.253   -14804489.219 7 -11466286.28027
  19003565.011   -20522676.021 6 -15658436.75727
  18683316.847   -26562258.592 7 -20480982.35328
  18504060.589   -30941960.248 7 -23903458.10527
 95  6  8  3 39 29.9910000  0  7 31 28  9 17  1 23 21
  21489523.292     -215705.067 3        -0.22132
  18867928.034   -22757945.833 6   -679109.73727
  21356660.315    -6110528.248 5  -4694827.56724
  19119899.972   -14774470.628 6 -11442895.17327
  18983217.628   -20629607.441 7 -15741759.88127
  18684715.956   -26554910.883 7 -20475256.86228
  18493943.800   -30995119.904 7 -23944881.19627
 95  6  8  3 39 59.9910000  0  7 31 28  9 17  1 23 21
  21469104.690     -323034.742 4    -83633.74421
  18859208.847   -22803743.555 6   -714796.29727
  21346157.019    -6165743.317 5  -4737852.26325
  19125670.597   -14744142.149 6 -11419262.59627
  18962937.573   -20736178.923 7 -15824802.52828
  18686138.339   -26547440.087 7 -20469435.47128
  18483869.066   -31048069.368 7 -23986140.49827
 95  6  8  3 40 29.9910000  0  7 31 28  9 17  1 23 21
  21448754.542     -429977.707 4   -166965.90722
  18850618.487   -22848919.298 6   -749998.19127
  21335730.534    -6220505.303 5  -4780523.89525
  19131505.159   -14713474.970 6 -11395366.07927
  18942732.144   -20842354.790 7 -15907536.92327
  18687589.355   -26539819.400 7 -20463497.27429
  18473841.409   -31100779.212 7 -24027213.05428
 95  6  8  3 40 59.9910000  0  7 31 28  9 17  1 23 21
  21428474.940     -536510.064 4   -249978.16524
  18842138.136   -22893455.616 6   -784701.83127
  21325402.394    -6274792.870 5  -4822825.94525
  19137407.534   -14682463.223 7 -11371201.07928
  18922606.730   -20948121.034 7 -15989952.11327
  18689069.042   -26532031.804 7 -20457429.02729
  18463857.222   -31153242.519 7 -24068093.53127
 95  6  8  3 41 29.9910000  0  7 31 28  9 17  1 23 21
  21408284.175     -642665.559 5   -332696.68223
  18833782.183   -22937397.262 6   -818942.09227
  21315154.698    -6328651.427 5  -4864793.63625
  19143368.597   -14651149.431 7 -11346800.72928
  18902545.659   -21053521.895 7 -16072082.60828
  18690575.714   -26524120.468 7 -20451264.35429
  18453906.120   -31205509.818 7 -24108821.28227
 95  6  8  3 41 59.9910000  0  7 31 28  9 17  1 23 21
  21388131.316     -748531.961 5   -415190.00522
  18825514.394   -22980841.372 6   -852794.65627
  21304969.956    -6382176.609 5  -4906501.55825
  19149367.011   -14619631.757 7 -11322241.49127
  18882542.995   -21158650.364 7 -16154000.83828
  18692087.441   -26516177.262 7 -20445074.83429
  18443978.464   -31257688.542 7 -24149480.00827
 95  6  8  3 42 29.9910000  0  7 31 28  9 17  1 23 21
  21368068.761     -853968.820 5   -497348.58022
  18817363.870   -23023645.273 6   -886148.34527
  21294872.464    -6435221.304 5  -4947835.06525
  19155426.370   -14587773.702 6 -11297417.06328
  18862617.519   -21263352.064 7 -16235586.53328
  18693632.870   -26508055.409 7 -20438746.12128
  18434094.730   -31309633.833 7 -24189956.86527
 95  6  8  3 42 59.9910000  0  7 31 28  9 17  1 23 21
  21348091.245     -958920.529 5   -579129.13823
  18809357.831   -23065751.389 6   -918958.30827
  21284879.784    -6487742.915 5  -4988760.97425
  19161567.901   -14555520.926 6 -11272285.02027
  18842790.987   -21367558.166 7 -16316786.03428
  18695225.284   -26499689.576 7 -20432227.29228
  18424263.972   -31361273.616 7 -24230195.65528
 95  6  8  3 43 29.9910000  0  7 31 28  9 17  1 23 21
  21328211.503    -1063428.397 5   -660563.85424
  18801473.191   -23107186.829 6   -951245.66327
  21274975.487    -6539772.905 5  -5029303.75125
  19167773.714   -14522898.251 6 -11246864.78027
  18823054.847   -21471284.420 7 -16397611.65428
  18696859.042   -26491099.338 7 -20425533.61528
  18414495.253   -31412626.325 7 -24270210.74127
 95  6  8  3 43 59.9910000  0  7 31 28  9 17  1 23 21
  21308392.886    -1167555.758 4   -741702.03322
  18793705.026   -23148002.204 6   -983049.84827
  21265155.964    -6591356.595 5  -5069498.80025
  19174037.722   -14489964.449 6 -11221202.07827
  18803394.987   -21574572.959 7 -16478096.20228
  18698527.862   -26482338.101 7 -20418706.65628
  18404764.933   -31463750.603 7 -24310047.80527
 95  6  8  3 44 29.9910000  0  7 31 28  9 17  1 23 21
  21288669.917    -1271239.748 5   -822494.73524
  18786065.878   -23188130.621 6  -1014318.74027
  21255448.472    -6642418.008 5
  19180379.472   -14456654.002 6 -11195245.88727
  18783839.276   -21677350.086 7 -16558182.26128
  18700236.894   -26473343.909 7 -20411698.20628
  18395093.120   -31514578.843 7
 95  6  8  3 44 59.9910000  0  7 31 28  9 17  1 23 21
  21269007.831    -1374520.608 5   -902973.33124
  18778552.722   -23227616.025 6  -1045086.57327
  21245821.253    -6693007.986 6
  19186783.261   -14423008.776 6 -11169028.83827
  18764366.511   -21779675.380 7 -16637916.23828
  18701983.612   -26464163.591 7 -20404544.71128
  18385469.464   -31565163.086 7
 95  6  8  3 45 29.9910000  0  7 31 28  9 17  1 23 21
  21249427.136    -1477447.063 5   -983175.78024
  18771151.839   -23266505.833 6  -1075390.29627
  21236275.519    -6743158.888 5  -5187786.78026
  19193239.565   -14389065.076 6 -11142579.20427
  18744970.620   -21881600.891 7 -16717338.68228
  18703753.612   -26454851.240 7 -20397288.32628
  18375875.011   -31615573.113 7 -24428350.96527
 95  6  8  3 45 59.9910000  0  7 31 28  9 17  1 23 21
  21229916.198    -1579977.767 5  -1063069.78524
  18763864.144   -23304789.942 6  -1105222.06627
  21226820.730    -6792855.472 5  -5226511.34825
  19199762.230   -14354804.976 6 -11115883.04027
  18725651.628   -21983121.135 7 -16796445.34628
  18705554.042   -26445416.269 7 -20389936.40928
  18366315.589   -31665808.211 7 -24467495.20127
 95  6  8  3 46 29.9910000  0  7 31 28  9 17  1 23 21
  21210490.105    -1682051.577 5  -1142607.82423
  18756707.128   -23342430.036 6  -1134552.00627
  21217454.315    -6842066.192 6  -5264857.36325
  19206344.308   -14320186.463 6 -11088907.58727
  18706421.214   -22084198.615 7 -16875206.97828
  18707379.948   -26435816.310 7 -20382455.92128
  18356799.269   -31715835.280 7 -24506477.31328
 95  6  8  3 46 59.9910000  0  7 31 28  9 17  1 23 21
  21191152.128    -1783687.630 5  -1221804.74925
  18749662.222   -23379441.617 6  -1163392.22727
  21208181.769    -6890818.988 6  -5302846.56925
  19213002.690   -14285226.712 6 -11061666.21827
  18687262.058   -22184846.708 7 -16953634.02328
  18709234.276   -26426071.165 7 -20374862.27628
  18347311.737   -31765672.531 7 -24545311.55027
 95  6  8  3 47 29.9910000  0  7 31 28  9 17  1 23 21
  21171899.081    -1884859.440 5  -1300639.87823
  18742740.253   -23415800.831 6  -1191724.06927
  21198998.839    -6939075.371 6  -5340448.94225
  19219724.456   -14249891.288 6 -11034132.12027
  18668199.097   -22285027.145 7 -17031696.65528
  18711118.784   -26416164.080 7 -20367142.46828
  18337871.761   -31815282.727 7 -24583968.84028
 95  6  8  3 47 59.9910000  0  7 31 28  9 17  1 23 21
  21152734.940    -1985559.576 5  -1379107.50224
  18735948.683   -23451499.727 6  -1219541.41527
  21189909.651    -6986833.863 5  -5377663.31825
  19226519.464   -14214183.601 6 -11006307.96627
  18649223.651   -22384731.833 7 -17109388.55628
  18713038.784   -26406072.381 7 -20359278.79428
  18328479.034   -31864637.040 7 -24622426.71227
 95  6  8  3 48 29.9910000  0  7 31 28  9 17  1 23 21
  21133658.878    -2085827.525 5  -1457238.39723
  18729277.894   -23486554.932 6  -1246857.17427
  21180910.401    -7034108.635 5  -5414500.81025
  19233381.620   -14178119.044 6 -10978205.71527
  18630337.769   -22483974.256 6 -17186720.26728
  18714995.690   -26395792.659 7 -20351268.61928
  18319135.081   -31913736.433 7 -24660685.96228
 95  6  8  3 48 59.9910000  0  7 31 28  9 17  1 23 21
  21114656.487    -2185669.109 5  -1535037.02824
  18722728.183   -23520964.080 6  -1273669.48827
  21172009.042    -7080876.541 5  -5450943.28425
  19240313.050   -14141683.444 6 -10949814.34727
  18611543.417   -22582758.205 7 -17263694.72428
  18716986.550   -26385331.787 7 -20343117.29428
  18309846.120   -31962560.776 7 -24698730.90428
 95  6  8  3 49 29.9910000  0  7 31 28  9 17  1 23 21
  21095736.878    -2285066.161 5  -1612489.28324
  18716312.050   -23554722.335 6  -1299974.62827
  21163208.659    -7127117.160 5  -5486974.91425
  19247322.308   -14104870.674 6 -10921129.06227
  18592836.050   -22681077.208 7 -17340306.88828
  18719013.722   -26374687.573 7 -20334823.08428
  18300606.230   -32011109.649 7 -24736561.16227
 95  6  8  3 49 59.9910000  0  7 31 28  9 17  1 23 21
  21076893.433    -2384100.605 5  -1689658.98324
  18709990.816   -23587915.224 6  -1325839.23727
  21154490.870    -7172928.833 5  -5522672.26424
  19254377.534   -14067783.966 6 -10892230.33327
  18574196.948   -22779022.940 7 -17416628.20828
  18721057.105   -26363945.102 7 -20326452.32728
  18291400.315   -32059486.911 7 -24774257.70827
 95  6  8  3 50 29.9910000  0  7 31 28  9 17  1 23 21
  21058126.315    -2482710.810 5  -1766498.14025
  18703790.542   -23620498.763 6  -1351229.00727
  21145868.472    -7218259.028 5  -5557994.47124
  19261495.128   -14030379.373 6 -10863083.90527
  18555636.308   -22876546.416 7 -17492620.47128
  18723120.495   -26353089.703 7 -20317993.55227
  18282233.964   -32107660.734 7 -24811795.73728
 95  6  8  3 50 59.9910000  0  7 31 28  9 17  1 23 21
  21039460.409    -2580790.310 3  -1842923.70224
  18697721.042   -23652377.929 6  -1376069.89027
  21137344.659    -7263022.772 5  -5592875.26524
  19268690.065   -13992582.859 6 -10833632.08227
  18537178.019   -22973560.707 7 -17568216.00828
  18725222.534   -26342053.135 7 -20309393.62428
  18273122.558   -32155547.678 7 -24849110.22728
 95  6  8  3 51 29.9910000  0  7 31 28  9 17  1 23 21
  21020893.308    -2678401.865 5  -1918984.66324
  18691775.550   -23683624.530 6  -1400417.90527
  21128920.542    -7307311.855 5  -5627386.18022
  19275938.370   -13954485.753 6 -10803946.02827
  18518798.620   -23070135.004 7 -17643468.69428
  18727343.206   -26330898.978 7 -20300702.05628
  18264048.628   -32203229.890 7 -24886265.18727
 95  6  8  3 51 59.9910000  0  7 31 28  9 17  1 23 21
  21002403.073    -2775566.463 5  -1994697.36025
  18685949.003   -23714257.732 6  -1424287.95327
  21120581.370    -7351153.596 5  -5661548.59925
  19283241.870   -13916109.321 6 -10774042.33827
  18500503.261   -23166293.097 7 -17718396.99328
  18729485.737   -26319648.487 7 -20291935.43128
  18255012.362   -32250706.979 7 -24923260.30828
 95  6  8  3 52 29.9910000  0  7 31 28  9 17  1 23 21
  20983987.503    -2872289.492 5  -2070065.97824
  18680234.362   -23744274.839 6  -1447677.91527
  21112316.167    -7394531.217 4  -5695349.30025
  19290601.097   -13877446.399 6 -10743915.38726
  18482283.401   -23262023.607 7 -17792992.12928
  18731644.917   -26308305.039 7 -20283096.37928
  18246020.245   -32297967.121 7 -24960086.35528
 95  6  8  3 52 59.9910000  0  7 31 28  9 17  1 23 21
  20965677.183    -2968553.429 5  -2145076.86823
  18674648.112   -23773644.836 6  -1470563.63927
  21104165.597    -7437413.733 5  -5728764.23325
  19298019.269   -13838460.738 6 -10713536.97027
  18464152.605   -23357295.201 7 -17867229.73828
  18733833.112   -26296803.837 7 -20274134.38928
  18237074.347   -32344979.059 7 -24996719.01027
 95  6  8  3 53 29.9910000  0  7 31 28  9 17  1 23 21
  20947447.237    -3064386.875 5  -2219752.26025
  18669177.042   -23802391.827 6  -1492963.87727
  21096096.980    -7479808.074 5  -5761798.79125
  19305496.917   -13799153.823 6 -10682908.22927
  18446107.808   -23452120.851 7 -17941119.81328
  18736050.480   -26285147.088 7 -20265051.19828
  18228170.222   -32391760.272 7 -25033171.88927
 95  6  8  3 53 59.9910000  0  7 31 28  9 17  1 23 21
  20929283.878    -3159774.184 5  -2294080.05125
  18663827.144   -23830493.309 6  -1514861.13827
  21088131.347    -7521674.906 5  -5794422.26025
  19313047.003   -13759490.948 6 -10652002.10526
  18428153.722   -23546475.931 7 -18014643.21828
  18738302.472   -26273313.013 7 -20255829.83328
  18219319.667   -32438293.485 7 -25069431.50327
 95  6  8  3 54 29.9910000  0  7 31 28  9 17  1 23 21
  20911219.300    -3254768.361 5  -2368101.52024
  18658597.175   -23858001.193 6  -1536295.82327
  21080252.901    -7563054.379 5  -5826665.98725
  19320653.526   -13719517.070 6 -10620853.61527
  18410279.894   -23640403.942 7 -18087833.80128
  18740577.995   -26261339.339 7 -20246499.68528
  18210495.620   -32484649.670 7 -25105553.17328
 95  6  8  3 54 59.9910000  0  7 31 28  9 17  1 23 21
  20893220.487    -3349330.418 5  -2441786.27225
  18653479.433   -23884884.913 6  -1557244.15727
  21072476.214    -7603926.360 5  -5858514.24025
  19328324.628   -13679197.587 6 -10589435.86427
  18392488.394   -23733879.167 7 -18160671.56928
  18742894.511   -26249185.864 7 -20237029.43528
  18201716.480   -32530795.380 7 -25141510.86627
 95  6  8  3 55 29.9910000  0  7 31 28  9 17  1 23 21
  20875308.659    -3443466.269 5  -2515138.87725
  18648481.190   -23911159.658 6  -1577717.95927
  21064792.940    -7644312.409 5  -5889983.89125
  19336058.534   -13638553.734 6 -10557765.35127
  18374788.120   -23826914.448 7 -18233166.57828
  18745234.316   -26236894.459 7 -20227451.70528
  18192966.659   -32576753.663 7 -25177322.47628
 95  6  8  3 55 59.9910000  0  7 31 28  9 17  1 23 21
  20857470.230    -3537125.526 5  -2588120.10225
  18643599.815   -23936779.506 6  -1597681.47027
  21057203.066    -7684176.515 5  -5921046.83325
  19343860.378   -13597554.947 6 -10525818.26627
  18357179.612   -23919453.739 7 -18305275.06728
  18747605.730   -26224421.300 7 -20217732.35528
  18184263.026   -32622488.862 7 -25212960.29427
 95  6  8  3 56 29.9910000  0  7 31 28  9 17  1 23 21
  20839749.105    -3630303.976 5  -2660726.68525
  18638848.159   -23961746.541 6  -1617136.27727
  21049716.276    -7723536.588 5  -5951717.01425
  19351727.323   -13556209.047 6 -10493600.70126
  18339662.526   -24011493.606 7 -18376994.40628
  18750013.737   -26211771.563 7 -20207875.39628
  18175609.261   -32667994.983 7 -25248419.59428
 95  6  8  3 56 59.9910000  0  7 31 28  9 17  1 23 21
  20822111.081    -3723011.774 5  -2732966.51925
  18634221.151   -23986081.653 6  -1636098.69027
  21042309.753    -7762417.650 4  -5982013.92125
  19359660.026   -13514544.025 6 -10461134.48127
  18322237.245   -24103068.044 7 -18448351.06428
  18752447.081   -26198977.555 7 -20197906.03228
  18166985.448   -32713289.755 7 -25283714.21127
 95  6  8  3 57 29.9910000  0  7 31 28  9 17  1 23 21
  20804554.753    -3815243.854 5  -2804835.70525
  18629716.769   -24009778.274 6  -1654563.59527
  21035013.800    -7800794.143 5  -6011917.62424
  19367644.847   -13472556.257 6 -10428416.74926
  18304898.355   -24194166.530 7 -18519336.85928
  18754913.190   -26186027.136 7 -20187814.80628
  18158408.792   -32758367.372 7 -25318839.60728
 95  6  8  3 57 59.9910000  0  7 31 28  9 17  1 23 21
  20787103.698    -3906999.870 5  -2876333.87125
  18625323.542   -24032833.640 6  -1672528.79627
  21027814.144    -7838643.352 5  -6041410.50125
  19375699.776   -13430232.960 6 -10395437.57926
  18287658.034   -24284794.154 7 -18589955.71928
  18757408.894   -26172911.463 7 -20177594.78028
  18149876.245   -32803204.914 7 -25353777.94728
 95  6  8  3 58 29.9910000  0  7 31 28  9 17  1 23 21
  20769729.386    -3998300.031 5  -2947476.85225
  18621054.480   -24055276.379 6  -1690016.63927
  21020708.347    -7875986.109 5  -6070508.72924
  19383813.355   -13387594.658 6 -10362212.95227
  18270491.214   -24374995.718 7 -18660242.60028
  18759927.526   -26159670.597 7 -20167277.20528
  18141390.112   -32847820.840 7 -25388543.59027
 95  6  8  3 58 59.9910000  0  7 31 28  9 17  1 23 21
  20752440.409    -4089074.969 5  -3018210.55924
  18616914.675   -24077039.703 6  -1706975.07827
  21013706.300    -7912740.832 5  -6099148.75123
  19392001.058   -13344578.584 6 -10328693.95227
  18253420.698   -24464707.098 7 -18730147.53129
  18762484.089   -26146237.563 7 -20156809.89128
  18132948.480   -32892150.251 7 -25423085.96828
 95  6  8  3 59 29.9900000  0  7 31 28  9 17  1 23 21
  20735260.990    -4179405.266 5  -3088597.80624
  18612887.053   -24098208.071 6  -1723469.91727
  21006811.701    -7948987.880 5  -6127393.13123
  19400243.193   -13301265.962 6 -10294943.88127
  18236431.365   -24553987.229 7 -18799716.44928
  18765058.998   -26132705.503 7 -20146265.41428
  18124555.686   -32936274.924 7 -25457468.81628
 95  6  8  3 59 59.9900000  0  7 31 28  9 17  1 23 21
  20718162.537    -4269238.633 5  -3158597.80622
  18608979.553   -24118737.021 6  -1739466.51927
  21000018.943    -7984704.203 5  -6155223.97323
  19408550.029   -13257604.333 6 -10260921.85526
  18219533.232   -24642789.428 7 -18868912.91828
  18767658.693   -26119047.846 7 -20135623.09428
  18116202.084   -32980163.485 7 -25491667.67328
 95  6  8  4  0 29.9900000  0  7 31 28  9 17  1 23 21
  20701176.334    -4358538.907 5  -3228182.44123
  18605193.990   -24138606.339 6  -1754949.10627
  20993316.053    -8019888.576 5  -6182640.34721
  19416924.623   -13213593.226 6 -10226627.50326
  18202735.795   -24731069.289 7 -18937702.37728
  18770284.639   -26105244.143 7 -20124866.97728
  18107895.818   -33023821.340 7 -25525686.77028
 95  6  8  4  0 59.9900000  0  7 31 28  9 17  1 23 21
  20684276.647    -4447331.833 5  -3297371.72023
  18601539.389   -24157839.462 6  -1769935.97127
  20986719.584    -8054560.028 5  -6209657.05721
  19425369.623   -13169255.853 6 -10192078.93126
  18186030.131   -24818834.969 7 -19006091.15328
  18772934.295   -26091312.665 7 -20114011.27527
  18099625.865   -33067279.012 7 -25559549.86928
 95  6  8  4  1 29.9900000  0  7 31 28  9 17  1 23 21
  20667476.772    -4535622.100 5  -3366169.32923
  18597997.076   -24176439.664 6  -1784429.63328
  20980219.725    -8088722.777 4  -6236277.33521
  19433861.748   -13124590.991 6 -10157275.16726
  18169432.514   -24906081.531 7 -19074075.48428
  18775609.881   -26077261.688 7 -20103062.45327
  18091396.389   -33110534.158 7 -25593255.15528
 95  6  8  4  1 59.9900000  0  7 31 28  9 17  1 23 21
  20650766.475    -4623418.033 5  -3434581.72524
  18594581.561   -24194407.790 6  -1798430.78327
  20973811.693    -8122381.858 5  -6262505.14822
  19442427.162   -13079608.660 6 -10122224.02526
  18152921.858   -24992824.975 7 -19141667.75628
  18778308.240   -26063084.717 7 -20092015.43327
  18083199.811   -33153585.176 7 -25626801.37827
 95  6  8  4  2 29.9900000  0  7 31 28  9 17  1 23 21
  20634151.568    -4710739.700 5  -3502624.58624
  18591276.740   -24211750.683 6  -1811944.71927
  20967515.818    -8155518.481 5  -6288325.79522
  19451041.732   -13034310.005 6 -10086926.37526
  18136510.397   -25079076.464 7 -19208876.68628
  18781029.584   -26048777.487 7 -20080866.94428
  18075048.709   -33196415.232 7 -25660175.42728
 95  6  8  4  2 59.9900000  0  7 31 28  9 17  1 23 21
  20617610.818    -4797634.593 5  -3570334.86525
  18588094.545   -24228503.447 6  -1824998.82627
  20961305.115    -8188148.772 5  -6313751.95723
  19459720.951   -12988715.905 6 -10051398.53526
  18120181.662   -25164881.933 7 -19275738.07229
  18783771.982   -26034370.116 7 -20069640.46029
  18066943.553   -33239031.890 7 -25693383.20127
 95  6  8  4  3 29.9900000  0  7 31 28  9 17  1 23 21
  20601177.381    -4884052.051 5  -3637673.08424
  18585023.287   -24244623.667 6  -1837560.03227
  20955198.022    -8220231.843 5  -6338751.71421
  19468458.678   -12942785.383 6 -10015608.54626
  18103944.873   -25250200.846 7 -19342220.33029
  18786539.928   -26019817.680 7 -20058300.90729
  18058880.381   -33281389.893 7 -25726389.41228
 95  6  8  4  3 59.9900000  0  7 31 28  9 17  1 23 21
  20584815.451    -4969977.269 5  -3704627.78923
  18582071.795   -24260104.157 6  -1849622.77427
  20949201.006    -8251758.778 5  -6363318.09223
  19477270.193   -12896505.320 6  -9979546.17526
  18087803.443   -25335020.804 7 -19408313.76929
  18789342.256   -26005100.060 7 -20046832.64328
  18050869.818   -33323493.073 7 -25759197.08428
 95  6  8  4  4 29.9900000  0  7 31 28  9 17  1 23 21
  20568551.772    -5055451.358 5  -3771230.97024
  18579243.178   -24275004.754 6  -1861233.61927
  20943297.490    -8282789.276 5  -6387497.65223
  19486127.990   -12849930.023 6  -9943253.75626
  18071751.936   -25419389.996 7 -19474055.97829
  18792164.209   -25990269.751 7 -20035276.54827
  18042892.045   -33365400.462 7 -25791852.17828
 95  6  8  4  4 59.9900000  0  7 31 28  9 17  1 23 21
  20552388.061    -5140401.833 5  -3837426.14522
  18576528.436   -24289272.100 6  -1872351.03727
  20937489.303    -8313288.988 5  -6411263.64923
  19495053.436   -12803018.600 6  -9906699.41626
  18055789.615   -25503262.244 7 -19539410.94729
  18795016.029   -25975278.295 7 -20023594.88228
  18034959.232   -33407080.750 7 -25824330.31228
 95  6  8  4  5 29.9900000  0  7 31 28  9 17  1 23 21
  20536327.897    -5224803.734 5  -3903193.83623
  18573929.490   -24302899.827 6  -1882970.05227
  20931783.904    -8343262.433 2  -6434619.52222
  19504048.154   -12755760.320 6  -9869874.79126
  18039929.365   -25586620.554 7 -19604365.45428
  18797900.998   -25960130.405 7 -20011791.32427
  18027071.256   -33448544.039 7 -25856639.35328
 95  6  8  4  5 59.9900000  0  7 31 28  9 17  1 23 21
  20520362.412    -5308690.815 5  -3968560.34524
  18571460.029   -24315914.631 6  -1893111.46227
  20926178.537    -8372744.683 3  -6457592.68021
  19513104.732   -12708179.462 6  -9832798.83226
  18024155.232   -25669493.702 7 -19668941.92128
  18800803.967   -25944858.688 7 -19999891.29828
  18019220.850   -33489818.167 7 -25888800.99828
 95  6  8  4  6 29.9900000  0  7 31 28  9 17  1 23 21
  20504501.365    -5392069.008 5  -4033530.32222
  18569097.842   -24328315.178 6  -1902774.23627
  20920662.303    -8401729.699 3  -6480178.47523
  19522217.514   -12660278.210 6  -9795473.20226
  18008475.787   -25751894.522 7 -19733150.32228
  18803733.709   -25929468.557 7 -19987899.00928
  18011401.639   -33530895.252 7 -25920809.10928
 95  6  8  4  6 59.9900000  0  7 31 28  9 17  1 23 21
  20488717.326    -5474990.885 5  -4098144.74622
  18566847.373   -24340143.626 6  -1911991.21727
  20915231.412    -8430252.004 3  -6502403.64022
  19531381.920   -12612097.917 6  -9757930.14826
  17992878.498   -25833862.422 7 -19797021.37728
  18806677.631   -25914000.525 7 -19975845.99528
  18003614.154   -33571814.549 7 -25952694.26928
 95  6  8  4  7 29.9900000  0  7 31 28  9 17  1 23 21
  20473033.514    -5557405.367 5  -4162363.81824
  18564721.592   -24351337.986 6  -1920714.10127
  20909901.311    -8458238.209 5  -6524211.04623
  19540616.990   -12563577.820 6  -9720122.27226
  17977375.529   -25915323.093 7 -19860497.20328
  18809647.139   -25898378.980 7 -19963673.36328
  17995869.740   -33612504.815 7 -25984400.94128
 95  6  8  4  7 59.9900000  0  7 31 28  9 17  1 23 21
  20457445.420    -5639331.313 5  -4226202.22623
  18562703.584   -24361904.229 6  -1928947.55327
  20904691.303    -8485679.191 5  -6545593.59724
  19549914.623   -12514741.196 6  -9682067.77126
  17961967.428   -25996298.805 7 -19923595.11529
  18812655.881   -25882599.623 7 -19951377.75828
  17988172.217   -33652969.151 7 -26015931.59728
 95  6  8  4  8 29.9900000  0  7 31 28  9 17  1 23 21
  20441946.248    -5720803.258 5  -4289686.82925
  18560806.881   -24371890.818 6  -1936729.31427
  20899561.943    -8512615.658 5  -6566582.99225
  19559255.631   -12465646.534 6  -9643812.19026
  17946642.295   -26076831.751 7 -19986348.01729
  18815677.436   -25866708.594 7 -19938995.14628
  17980505.225   -33693251.429 7 -26047320.37928
 95  6  8  4  8 59.9900000  0  7 31 28  9 17  1 23 21
  20426534.865    -5801762.191 5  -4352771.68424
  18559020.295   -24381258.199 6  -1944028.57427
  20894534.178    -8539010.357 3  -6587150.28525
  19568651.998   -12416263.960 6  -9605332.29426
  17931414.545   -26156867.119 7 -20048713.21729
  18818729.850   -25850671.475 7 -19926498.68128
  17972880.756   -33733318.177 7 -26078541.20728
 95  6  8  4  9 29.9900000  0  7 31 28  9 17  1 23 21
  20411221.006    -5882246.787 5  -4415486.93624
  18557352.162   -24390057.938 6  -1950885.51227
  20889609.951    -8564911.269 3  -6607332.70224
  19578094.709   -12366641.948 6  -9566665.80026
  17916267.928   -26236454.725 7 -20110729.50829
  18821798.076   -25834548.748 7 -19913935.52227
  17965285.264   -33773230.254 7 -26109641.51528
 95  6  8  4  9 59.9900000  0  7 31 28  9 17  1 23 21
  20396003.568    -5962202.011 5  -4477789.75922
  18555788.412   -24398253.828 6  -1957271.93727
  20884776.506    -8590285.162 3  -6627104.59225
  19587594.654   -12316731.025 6  -9527774.16826
  17901216.615   -26315549.160 7 -20172361.50329
  18824888.334   -25818316.213 7 -19901286.79127
  17957725.897   -33812952.624 7 -26140593.98828
 95  6  8  4 10 29.9900000  0  7 31 28  9 17  1 23 21
  20380899.233    -6041588.083 5  -4539649.03223
  18554345.600   -24405818.330 6  -1963166.35327
  20880056.404    -8615106.511 3  -6646445.84625
  19597154.928   -12266485.082 6  -9488621.47626
  17886266.373   -26394101.820 7 -20233571.34429
  18828002.428   -25801943.389 7 -19888528.74627
  17950214.842   -33852447.413 7 -26171369.14228
 95  6  8  4 10 59.9900000  0  7 31 28  9 17  1 23 21
  20365901.631    -6120404.577 5  -4601064.46923
  18553028.506   -24412747.476 6  -1968565.69127
  20875432.912    -8639366.586 3  -6665349.84325
  19606783.061   -12215883.633 6  -9449191.76826
  17871423.006   -26472111.066 7 -20294357.75529
  18831146.381   -25785424.445 7 -19875656.84127
  17942740.014   -33891711.704 7 -26201964.67928
 95  6  8  4 11 29.9900000  0  7 31 28  9 17  1 23 21
  20350993.826    -6198704.857 5  -4662077.62325
  18551828.529   -24419070.374 6  -1973492.62027
  20870923.201    -8663092.661 4  -6683837.71024
  19616481.303   -12164934.297 6  -9409490.99426
  17856677.022   -26549603.863 7 -20354741.72629
  18834310.475   -25768792.980 7 -19862697.25527
  17935312.061   -33930761.455 7 -26232393.06528
 95  6  8  4 11 59.9900000  0  7 31 28  9 17  1 23 21
  20336195.272    -6276516.973 5  -4722710.42425
  18550738.842   -24424807.961 6  -1977963.48327
  20866503.795    -8686308.884 4  -6701928.24025
  19626238.772   -12113664.540 6  -9369540.53426
  17842023.014   -26626606.218 7 -20414743.53128
  18837487.725   -25752077.617 7 -19849672.29127
  17927915.272   -33969610.766 7 -26262665.23528
 95  6  8  4 12 29.9900000  0  7 31 28  9 17  1 23 21
  20321483.732    -6353828.734 5  -4782953.31924
  18549761.811   -24429933.824 6  -1981957.65727
  20862191.326    -8708975.379 5  -6719590.47323
  19636056.834   -12062061.411 6  -9329330.32326
  17827468.490   -26703096.312 7 -20474346.16929
  18840691.240   -25735246.841 7 -19836557.39827
  17920566.623   -34008232.492 7 -26292760.08828
 95  6  8  4 12 59.9900000  0  7 31 28  9 17  1 23 21
  20306857.842    -6430666.962 6  -4842827.23422
  18548893.576   -24434468.230 6  -1985490.97627
  20857979.061    -8731113.998 5  -6736841.26424
  19645933.295   -12010164.142 6  -9288890.89526
  17813004.795   -26779096.615 7 -20533567.13929
  18843911.615   -25718329.071 7 -19823374.72327
  17913257.139   -34046651.999 7 -26322697.34928
 95  6  8  4 13 29.9900000  0  7 31 28  9 17  1 23 21
  20292336.818    -6506996.008 6  -4902304.41924
  18548149.764   -24438383.105 6  -1988541.56327
  20853875.412    -8752697.086 5  -6753659.20522
  19655866.826   -11957965.166 6  -9248216.37526
  17798641.233   -26854568.259 7 -20592376.16629
  18847158.764   -25701284.552 7 -19810093.27428
  17905991.186   -34084833.710 7 -26352449.31828
 95  6  8  4 13 59.9900000  0  7 31 28  9 17  1 23 21
  20277908.201    -6582791.305 5  -4961365.65224
  18547523.451   -24441681.447 6  -1991111.69227
  20849877.240    -8773721.969 5  -6770042.18822
  19665850.186   -11905483.808 6  -9207321.80726
  17784379.920   -26929522.028 7 -20650781.66129
  18850427.881   -25684100.692 7 -19796703.26528
  17898766.834   -34122783.939 7 -26382020.91328
 95  6  8  4 14 29.9900000  0  7 31 28  9 17  1 23 21
  20263591.193    -6658065.214 5  -5020020.58525
  18547014.811   -24444382.724 6  -1993216.56227
  20845976.568    -8794205.646 5  -6786003.46422
  19675890.990   -11852729.959 6  -9166214.90626
  17770211.772   -27003967.163 7 -20708790.80629
  18853720.600   -25666782.778 7 -19783208.79928
  17891591.506   -34160514.842 7 -26411421.62128
 95  6  8  4 14 59.9900000  0  7 31 28  9 17  1 23 21
  20249361.115    -6732814.471 5  -5078266.72925
  18546604.701   -24446502.305 6  -1994868.17727
  20842173.311    -8814176.119 4  -6801564.79122
  19685980.217   -11799707.306 6  -9124898.55226
  17756141.811   -27077917.885 7 -20766414.70829
  18857042.201   -25649343.607 7 -19769619.81727
  17884446.272   -34198039.478 7 -26440661.57528
 95  6  8  4 15 29.9900000  0  7 31 28  9 17  1 23 21
  20235248.006    -6807004.586 5  -5136077.19025
  18546317.022   -24448022.479 6  -1996052.71527
  20838471.076    -8833611.540 2  -6816709.22523
  19696126.498   -11746376.322 6  -9083341.95026
  17742165.092   -27151359.988 7 -20823642.28329
  18860382.897   -25631768.446 7 -19755924.87427
  17877352.779   -34235341.955 7 -26469728.41028
 95  6  8  4 15 59.9900000  0  7 31 28  9 17  1 23 21
  20221234.334    -6880606.148 5  -5193429.02825
  18546149.975   -24448919.602 6  -1996751.77727
  20834877.358    -8852488.437 2  -6831418.42221
  19706339.365   -11692698.412 6  -9041515.02326
  17728290.522   -27224275.893 7 -20880459.84129
  18863752.967   -25614050.113 7 -19742118.35427
  17870293.334   -34272417.672 7 -26498618.58428
 95  6  8  4 16 29.9900000  0  7 31 28  9 17  1 23 21
  20207339.647    -6953660.620 5  -5250354.54625
  18546086.248   -24449238.870 6
  20831383.162    -8870859.721 2
  19716612.850   -11638718.830 6  -8999453.02226
  17714511.600   -27296701.172 7 -20936895.09529
  18867144.217   -25596230.530 7 -19728232.97227
  17863272.467   -34309320.724 7 -26527374.19528
 95  6  8  4 16 59.9900000  0  6 31 28 17  1 23 21
  20193542.061    -7026165.411 5  -5306851.75725
  18546132.748   -24448971.779 6
  19726941.803   -11584435.061 6  -8957153.98926
  17700821.131   -27368631.028 7 -20992944.30829
  18870559.615   -25578301.542 6 -19714262.33327
  17856283.201   -34346052.442 7 -26555996.29528
 95  6  8  4 17 29.9900000  0  6 31 28 17  1 23 21
  20179841.756    -7098124.407 5  -5362923.67525
  18546300.631   -24448111.015 6  -1996121.69827
  19737331.834   -11529841.966 6  -8914613.93426
  17687225.475   -27440062.330 7 -21048605.02629
  18873993.326   -25560260.020 7 -19700204.01727
  17849329.764   -34382603.659 7 -26584477.76628
 95  6  8  4 17 59.9900000  0  6 31 28 17  1 23 21
  20166249.287    -7169576.039 5  -5418600.23725
  18546574.193   -24446680.272 6  -1995006.82927
  19747771.857   -11474972.273 6  -8871858.37925
  17673727.826   -27511008.612 7 -21103887.82329
  18877443.850   -25542117.944 7 -19686067.35428
  17842401.733   -34418988.403 7 -26612829.49428
 95  6  8  4 18 29.9900000  0  6 31 28 17  1 23 21
  20152748.623    -7240536.492 5  -5473894.08225
  18546951.779   -24444682.400 6  -1993450.05327
  19758270.732   -11419816.861 6  -8828880.11025
  17660320.482   -27581467.035 7 -21158790.45529
  18880917.068   -25523875.286 7 -19671852.31528
  17835515.529   -34455183.192 7 -26641033.20728
 95  6  8  4 18 59.9900000  0  6 31 28 17  1 23 21
  20139337.412    -7310979.643 5  -5528784.85925
  18547449.225   -24442073.433 6  -1991417.07727
  19768828.436   -11364320.599 6  -8785636.27826
  17647012.459   -27651398.803 7 -21213282.69829
  18884411.951   -25505498.311 7 -19657532.57028
  17828673.178   -34491131.776 7 -26669045.07428
 95  6  8  4 19 29.9900000  0  6 31 28 17  1 23 21
  20126033.326    -7380918.096 5  -5583282.34625
  18548053.662   -24438883.070 6  -1988931.09427
  19779453.170   -11308517.591 6  -8742153.41326
  17633797.897   -27720831.257 7 -21267385.86529
  18887929.858   -25487018.477 7 -19643132.69927
  17821874.795   -34526856.330 7 -26696882.36328
 95  6  8  4 19 59.9900000  0  6 31 28 17  1 23 21
  20112821.100    -7450351.477 5  -5637386.25824
  18548767.100   -24435130.031 6  -1986006.65127
  19790125.014   -11252426.579 6  -8698446.13526
  17620678.623   -27789774.926 7 -21321108.17629
  18891463.568   -25468449.339 7 -19628663.24027
  17815118.740   -34562368.246 7 -26724553.98828
 95  6  8  4 20 29.9900000  0  6 31 28 17  1 23 21
  20099700.818    -7519279.775 5  -5691096.62522
  18549589.342   -24430826.472 6  -1982653.23327
  19800848.303   -11196058.994 6  -8654523.34626
  17607648.264   -27858249.620 7 -21374465.04029
  18895013.920   -25449789.628 7 -19614123.19727
  17808395.545   -34597690.951 7 -26752078.15528
 95  6  8  4 20 59.9900000  0  6 31 28 17  1 23 21
  20086689.584    -7587653.194 5  -5744374.62325
  18550523.529   -24425932.664 6  -1978839.90227
  19811626.873   -11139402.444 6  -8610375.38326
  17594717.568   -27926210.345 7 -21427421.41829
  18898591.982   -25430987.809 7 -19599472.44027
  17801715.592   -34632794.089 7 -26779431.22728
 95  6  8  4 21 29.9900000  0  6 31 28 17  1 23 21
  20073781.147    -7655489.669 5  -5797234.21522
  18551557.256   -24420482.598 6  -1974593.09727
  19822463.256   -11082494.562 6  -8566031.57126
  17581876.568   -27993678.945 7 -21479994.31829
  18902191.154   -25412078.732 7 -19584738.10527
  17795070.279   -34667710.899 7 -26806639.11228
 95  6  8  4 21 59.9900000  0  7 31 28  9 17  1 23 21
  20060971.568    -7722799.319 5  -5849683.30024
  18552700.490   -24414473.210 6  -1969910.47127
  20799469.850          -0.54013
  19833344.772   -11025321.870 6  -8521481.43426
  17569136.709   -28060645.012 7 -21532175.62429
  18905810.107   -25393053.429 7 -19569913.20127
  17788462.717   -34702447.557 7 -26833706.62428
 95  6  8  4 22 29.9900000  0  6 31 28 17  1 23 21
  20048259.053    -7789574.980 5  -5901716.29525
  18553952.951   -24407883.011 6  -1964775.25327
  19844275.061   -10967872.759 6  -8476715.87926
  17556491.490   -28127080.883 7 -21583943.79629
  18909459.217   -25373889.694 7 -19554980.44027
  17781890.162   -34736998.368 7 -26860629.32028
 95  6  8  4 22 59.9900000  0  6 31 28 17  1 23 21
  20035663.498    -7855797.008 6  -5953317.89125
  18555322.217   -24400700.862 6  -1959178.81327
  19855259.068   -10910132.592 6  -8431723.53926
  17543955.342   -28192966.816 7 -21635283.45329
  18913125.803   -25354605.827 7 -19539954.03927
  17775350.787   -34771340.494 7 -26887389.40928
 95  6  8  4 23 29.9900000  0  6 31 28 17  1 23 21
  20023165.475    -7921492.917 6  -6004509.56525
  18556794.545   -24392971.581 6  -1953156.04027
  19866299.733   -10852126.423 6  -8386523.90926
  17531511.420   -28258352.120 7 -21686233.00429
  18916811.178   -25335248.623 7 -19524870.51527
  17768848.522   -34805517.637 7 -26914020.93628
 95  6  8  4 23 59.9900000  0  6 31 28 17  1 23 21
  20010769.545    -7986625.880 5  -6055262.50525
  18558377.373   -24384665.610 6  -1946683.87827
  19877392.029   -10793829.128 6  -8341097.45526
  17519171.123   -28323205.971 7 -21736768.43829
  18920515.006   -25315782.269 7 -19509701.91527
  17762381.272   -34839502.974 7 -26940502.98828
 95  6  8  4 24 29.9900000  0  6 31 28 17  1 23 21
  19998473.787    -8051219.815 5  -6105595.43225
  18560056.928   -24375823.617 6  -1939793.99927
  19888526.443   -10735284.063 5  -8295477.94025
  17506923.295   -28387564.659 7 -21786918.03429
  18924230.092   -25296248.280 6 -19494480.62927
  17755942.897   -34873322.848 7 -26966856.12028
 95  6  8  4 24 59.9900000  0  6 31 28 17  1 23 21
  19986298.217    -8115230.843 5
  18561848.147   -24366408.167 6  -1932457.30927
  19899731.147   -10676437.777 6  -8249623.69025
  17494777.686   -28451389.737 7
  18927969.381   -25276609.569 6 -19479177.73027
  17749551.943   -34906923.353 7 -26993038.32028
 95  6  8  4 25 29.9900000  0  6 31 28 17  1 23 21
  19974223.334    -8178657.401 5
  18563757.662   -24356415.849 7  -1924671.09827
  19910989.225   -10617292.759 6  -8203536.65325
  17482736.818   -28514675.216 7
  18931725.873   -25256849.056 6 -19463779.93227
  17743195.451   -34940302.723 7 -27019048.19528
 95  6  8  4 25 59.9900000  0  6 31 28 17  1 23 21
  19962266.045    -8241536.470 5
  18565760.115   -24345865.986 6  -1916450.42827
  19922295.107   -10557868.601 5  -8157232.08025
  17470792.522   -28577434.271 7
  18935507.131   -25236989.061 7 -19448304.60827
  17736887.459   -34973478.867 7 -27044899.71728
 95  6  8  4 26 29.9900000  0  6 31 28 17  1 23 21
  19950388.967    -8303900.365 6
  18567867.154   -24334780.233 6  -1907812.16927
  19933652.193   -10498182.956 6  -8110723.78425
  17458945.154   -28639694.133 7
  18939301.186   -25217059.080 7 -19432774.75827
  17730607.873   -35006466.193 7 -27070604.11828
 95  6  8  4 26 59.9900000  0  6 31 28 17  1 23 21
  19938630.483    -8365715.882 5
  18570085.326   -24323122.707 6  -1898728.39027
  19945065.826   -10438200.335 5  -8063984.06725
  17447196.131   -28701435.706 7
  18943109.061   -25197031.908 7 -19417169.16627
  17724373.373   -35039228.528 7 -27096133.19428
 95  6  8  4 27 29.9900000  0  6 31 28 17  1 23 21
  19926963.779    -8427020.220 5
  18572403.350   -24310941.845 6  -1889236.80827
  19956520.232   -10377983.343 5  -8017061.74725
  17435535.857   -28762715.419 7
  18946933.764   -25176949.227 7 -19401520.31127
  17718174.998   -35071817.242 7 -27121526.97828
 95  6  8  4 27 59.9900000  0  6 31 28 17  1 23 21
  19915404.295    -8487784.352 6
  18574827.701   -24298206.350 6  -1879313.05127
  19968032.443   -10317499.406 5  -7969931.41725
  17423969.647   -28823506.847 7 -22126613.03129
  18950772.733   -25156770.199 7 -19385796.40127
  17712009.600   -35104195.379 7 -27146756.67428
 95  6  8  4 28 29.9890000  0  6 31 28 17  1 23 21
  19903949.423    -8547965.353 6
  18577360.259   -24284892.901 6  -1868938.97327
  19979595.525   -10256730.570 5  -7922579.09025
  17412497.946   -28883780.709 7
  18954638.837   -25136463.582 7 -19369973.07927
  17705896.798   -35136338.589 7 -27171803.32528
 95  6  8  4 28 59.9890000  0  6 31 28 17  1 23 21
  19892599.759    -8607603.555 6
  18579997.923   -24271049.846 6  -1858152.14927
  19991212.806   -10195713.491 6  -7875033.32325
  17401116.845   -28943575.229 7
  18958522.103   -25116050.736 7 -19354066.96427
  17699816.071   -35168290.708 7 -27196701.07728
 95  6  8  4 29 29.9890000  0  6 31 28 17  1 23 21
  19881363.282    -8666678.501 6  -6549445.96725
  18582734.540   -24256662.574 6  -1846941.29827
  20002873.665   -10134421.088 6  -7827272.99425
  17389837.860   -29002848.216 7 -22266359.46529
  18962433.048   -25095498.601 7 -19338052.31227
  17693775.564   -35200034.602 7 -27221436.55628
 95  6  8  4 29 59.9890000  0  7 31 28  9 17  1 23 21
  19870233.290    -8725169.713 5  -6595023.53125
  18585575.032   -24241713.900 6  -1835292.96527
  20775003.454          -0.20313
  20014600.720   -10072811.538 6  -7779265.55325
  17378665.095   -29061567.394 7 -22312114.64528
  18966374.571   -25074794.258 7 -19321919.05427
  17687775.032   -35231555.888 7 -27245998.58028
 95  6  8  4 30 29.9890000  0  7 31 28  9 17  1 23 21
  19859209.720    -8783079.627 5  -6640148.10125
  18588524.399   -24226217.265 6  -1823217.68127
  20774347.907       -3510.919 5        -0.46332
  20026381.860   -10010889.895 6  -7731014.93126
  17367595.384   -29119731.695 7 -22357437.43928
  18970338.571   -25053951.669 7 -19305678.06527
  17681819.610   -35262868.750 7 -27270398.20729
 95  6  8  4 30 59.9890000  0  7 31 28  9 17  1 23 21
  19848294.493    -8840446.975 6  -6684849.90026
  18591572.673   -24210203.933 6  -1810739.75427
  20773775.064       -6520.368 2     -2345.42224
  20038215.837    -9948684.416 5  -7682543.12325
  17356624.767   -29177377.325 7 -22402356.09828
  18974325.306   -25033005.130 7 -19289356.07527
  17675893.110   -35293998.467 7 -27294655.12629
 95  6  8  4 31 29.9890000  0  7 31 28  9 17  1 23 21
  19837484.743    -8897265.597 6  -6729124.14525
  18594720.243   -24193673.631 6  -1797858.99227
  20773302.806       -9023.689 2     -4296.03023
  20050111.415    -9886210.491 6  -7633862.18125
  17345752.892   -29234514.638 7 -22446878.64028
  18978322.735   -25011978.379 7 -19272971.59827
  17670002.181   -35324960.200 7 -27318781.14028
 95  6  8  4 31 59.9890000  0  7 31 28  9 17  1 23 21
  19826768.907    -8953531.957 5  -6772968.05725
  18597963.774   -24176625.052 6  -1784574.38727
  20772923.017      -11007.762 3     -5842.03922
  20062040.173    -9823496.078 5  -7584993.82725
  17334980.439   -29291144.809 7 -22491006.02228
  18982340.056   -24990879.930 7 -19256531.26027
  17664143.165   -35355754.230 7 -27342776.48128
 95  6  8  4 32 29.9890000  0  7 31 28  9 17  1 23 21
  19816174.696    -9009224.862 5  -6816365.10425
  18601312.149   -24159031.006 6  -1770864.74127
  20772647.181      -12440.283 4     -6958.19522
  20074018.759    -9760542.006 5  -7535938.68325
  17324301.462   -29347251.899 7 -22534725.79628
  18986378.493   -24969671.902 7 -19240005.51627
  17658319.267   -35386345.048 7 -27366613.46229
 95  6  8  4 32 59.9890000  0  7 31 28  9 17  1 23 21
  19805683.868    -9064374.768 6  -6859339.05125
  18604756.423   -24140925.880 6  -1756756.84127
  20772474.978      -13344.647 4     -7662.89721
  20086040.931    -9697385.961 5  -7486726.17025
  17313713.329   -29402876.743 7 -22578069.80228
  18990427.439   -24948390.927 7 -19223422.97027
  17652531.712   -35416763.144 7 -27390315.86428
 95  6  8  4 33 29.9890000  0  7 31 28  9 17  1 23 21
  19795297.439    -9118938.429 6  -6901856.20625
  18608301.907   -24122281.116 6  -1742228.42527
  20772406.212      -13693.465 4
  20098100.103    -9633999.858 5  -7437334.43125
  17303227.275   -29457985.000 7 -22621011.27629
  18994496.392   -24926996.419 7 -19206751.93727
  17646780.259   -35446985.856 7 -27413866.01228
 95  6  8  4 33 59.9890000  0  7 31 28  9 17  1 23 21
  19785022.509    -9172932.779 6  -6943929.73125
  18611949.853   -24103100.703 6  -1727282.62027
  20772444.165      -13489.998 3
  20110212.251    -9570364.320 5  -7387748.33925
  17292841.673   -29512571.685 7 -22663546.33529
  18998593.798   -24905479.178 7 -19189985.24127
  17641070.626   -35477004.291 7 -27437257.00528
 95  6  8  4 34 29.9890000  0  7 31 28  9 17  1 23 21
  19774849.790    -9226371.512 6  -6985570.28025
  18615702.681   -24083402.981 6  -1711933.72927
  20772588.017      -12750.957 5        -0.30031
  20122376.532    -9506457.238 6  -7337950.63125
  17282549.821   -29566655.303 7 -22705689.39329
  19002705.259   -24883855.320 7 -19173135.50428
  17635393.462   -35506831.115 7 -27460498.66028
 95  6  8  4 34 59.9890000  0  7 31 28  9 17  1 23 21
  19764794.071    -9279244.555 6  -7026770.08625
  18619552.306   -24063181.341 6  -1696176.60027
  20772833.759      -11464.103 5      1002.38921
  20134593.860    -9442246.383 5  -7287916.23125
  17272359.470   -29620210.989 7 -22747421.06929
  19006842.540   -24862120.182 6 -19156199.04627
  17629753.829   -35536459.028 7 -27483585.34628
 95  6  8  4 35 29.9890000  0  7 31 28  9 17  1 23 21
  19754835.767    -9331584.458 6  -7067554.40825
  18623492.610   -24042460.612 6  -1680030.57927
  20773177.751       -9661.379 4      2407.26021
  20146857.540    -9377751.934 5  -7237660.85725
  17262265.321   -29673255.896 7 -22788754.75529
  19010997.634   -24840295.416 6 -19139192.73427
  17624151.165   -35565903.388 7 -27506528.99328
 95  6  8  4 35 59.9890000  0  7 31 28  9 17  1 23 21
  19744980.978    -9383355.009 6  -7107895.09225
  18627541.517   -24021192.881 6  -1663458.32327
  20773618.353       -7293.541 3      4252.39922
  20159195.399    -9312921.034 5  -7187143.27825
  17252277.017   -29725734.400 7 -22829647.07028
  19015175.110   -24818335.313 7 -19122080.95627
  17618594.001   -35595093.714 7 -27529274.70128
 95  6  8  4 36 29.9890000  0  7 31 28  9 17  1 23 21
  19735228.931    -9434596.566 5  -7147823.59425
  18631679.001   -23999434.319 6
  20774170.360       -4414.792 3      6495.52622
  20171584.907    -9247833.666 5  -7136425.87425
  17242389.142   -29777706.724 7 -22870144.96028
  19019368.407   -24796290.462 6
  17613077.595   -35624088.119 7 -27551867.73028
 95  6  8  4 36 59.9890000  0  7 31 28  9 17  1 23 21
  19725583.181    -9485297.125 6  -7187330.53125
  18635917.868   -23977166.738 6  -1629152.25727
  20774817.110       -1014.441 3      9145.14921
  20184024.220    -9182501.123 6  -7085517.39925
  17232597.071   -29829161.520 7 -22910239.57828
  19023584.165   -24774141.396 7 -19087644.10727
  17607598.267   -35652871.047 7 -27574295.97728
 95  6  8  4 37 29.9890000  0  7 31 28  9 17  1 23 21
  19716036.282    -9535465.751 5  -7226422.94625
  18640249.993   -23954405.737 6  -1611416.41327
  20775558.970        2883.797 3
  20196490.517    -9116953.684 5  -7034441.50925
  17222899.556   -29880120.126 7 -22949947.57328
  19027816.548   -24751906.285 7 -19070318.03927
  17602164.931   -35681454.689 7 -27596568.94128
 95  6  8  4 37 59.9890000  0  7 31 28  9 17  1 23 21
  19706598.298    -9585055.878 6  -7265064.61625
  18644674.009   -23931127.111 6  -1593277.22827
  20776399.095        7301.924 3
  20209011.189    -9051169.430 5  -6983181.05625
  17213301.626   -29930559.361 7 -22989250.84529
  19032067.470   -24729566.261 7 -19052910.23127
  17596763.743   -35709834.143 7 -27618682.77728
 95  6  8  4 38 29.9890000  0  7 31 28  9 17  1 23 21
  19697270.853    -9634059.786 6  -7303249.48625
  18649202.228   -23907341.909 6  -1574743.29027
  20777339.962       12239.077 4        -0.28532
  20221575.329    -8985156.130 5  -6931742.13825
  17203801.399   -29980490.660 7 -23028158.32829
  19036334.056   -24707134.784 7 -19035431.14127
  17591393.899   -35738045.639 7 -27640665.74928
 95  6  8  4 38 59.9890000  0  7 31 28  9 17  1 23 21
  19688057.892    -9682452.928 6  -7340958.41825
  18653826.993   -23883026.349 6  -1555796.07827
  20778384.009       17717.402 4      4268.56422
  20234183.853    -8918867.453 5  -6880088.60925
  17194400.282   -30029887.625 7 -23066649.45429
  19040628.431   -24684586.527 7 -19017861.06427
  17586063.485   -35766057.434 7 -27662493.11028
 95  6  8  4 39 29.9890000  0  7 31 28  9 17  1 23 21
  19678969.165    -9730243.923 6  -7378198.14325
  18658556.892   -23858206.258 6  -1536455.74327
  20779528.017       23713.914 3      8941.14222
  20246848.556    -8852318.426 5  -6828232.22325
  17185097.134   -30078762.264 7 -23104733.57129
  19044936.470   -24661938.164 6 -19000212.99727
  17580767.892   -35793888.551 7 -27684179.69228
 95  6  8  4 39 59.9890000  0  7 31 28  9 17  1 23 21
  19669987.337    -9777445.214 6  -7414978.36825
  18663376.423   -23832887.717 6  -1516727.01827
  20780775.657       30235.207 3     14022.63122
  20259563.360    -8785505.754 5  -6776170.39825
  17175893.415   -30127132.486 7 -23142424.64629
  19049262.853   -24639190.871 6 -18982487.81227
  17575503.899   -35821541.377 7 -27705727.34128
 95  6  8  4 40 29.9890000  0  7 31 28  9 17  1 23 21
  19661115.290    -9824070.776 6  -7451309.96625
  18668288.634   -23807066.476 6  -1496606.57827
  20782110.259       37292.549 4     19521.90124
  20272329.126    -8718432.735 5  -6723905.71425
  17166788.251   -30174997.455 7 -23179722.01729
  19053613.478   -24616325.395 6 -18964670.53027
  17570282.142   -35848989.812 7 -27727115.74528
 95  6  8  4 40 59.9890000  0  7 31 28  9 17  1 23 21
  19652351.220    -9870135.405 6  -7487204.48725
  18673294.298   -23780754.602 6  -1476103.80827
  20783553.017       44860.250 5     25418.90122
  20285134.962    -8651126.802 5  -6671459.52725
  17157772.400   -30222365.778 7 -23216632.38528
  19057986.915   -24593352.269 6 -18946769.37327
  17565098.704   -35876218.501 7 -27748332.89028
 95  6  8  4 41 29.9890000  0  7 31 28  9 17  1 23 21
  19643698.298    -9915628.012 6  -7522653.26725
  18678395.728   -23753941.705 6  -1455210.65127
  20785087.884       52952.832 4     31724.82921
  20297976.446    -8583588.985 4  -6618832.64925
  17148857.759   -30269218.023 7 -23253140.60628
  19062381.259   -24570266.792 7 -18928780.66227
  17559962.876   -35903209.340 7 -27769364.69828
 95  6  8  4 41 59.9890000  0  7 31 28  9 17  1 23 21
  19635145.212    -9960569.799 6  -7557672.81425
  18683590.790   -23726649.315 6  -1433943.85027
  20786727.860       61564.767 3     38435.40422
  20310876.189    -8515833.076 5  -6566035.79525
  17140033.548   -30315572.170 7 -23289260.69228
  19066793.228   -24547080.704 7 -18910713.56127
  17554868.939   -35929986.517 7 -27790230.02228
 95  6  8  4 42 29.9890000  0  7 31 28  9 17  1 23 21
  19626703.095   -10004916.891 6  -7592228.96926
  18688883.126   -23698848.768 6  -1412281.11427
  20788470.579       70727.715 4     45575.32522
  20323824.657    -8447830.975 5  -6513047.16925
  17131318.939   -30361364.798 7 -23324943.22528
  19071228.157   -24523762.137 7 -18892543.23327
  17549821.720   -35956518.786 7 -27810904.49728
 95  6  8  4 42 59.9890000  0  7 31 28  9 17  1 23 21
  19618372.454   -10048647.919 5  -7626305.10625
  18694271.478   -23670529.064 6  -1390213.83727
  20790328.220       80455.428 5     53155.36521
  20336817.743    -8379552.945 5  -6459843.51925
  17122716.509   -30406577.354 7 -23360173.75628
  19075693.267   -24500302.118 6 -18874262.66227
  17544819.884   -35982797.540 7 -27831381.45428
 95  6  8  4 43 29.9890000  0  7 31 28  9 17  1 23 21
  19610158.196   -10091831.531 6  -7659954.66325
  18699746.189   -23641760.858 6  -1367797.05827
  20792274.071       90688.998 4     61129.61922
  20349843.384    -8311051.258 5  -6406465.58625
  17114210.579   -30451276.901 7 -23395004.54428
  19080171.962   -24476767.117 6 -18855923.70227
  17539853.610   -36008909.073 7 -27851728.08028
 95  6  8  4 43 59.9890000  0  7 31 28  9 17  1 23 21
  19602060.040   -10134426.197 6  -7693145.30625
  18705313.196   -23612494.825 6  -1344992.40627
  20794326.103      101475.075 3     69534.29924
  20362938.040    -8242276.380 5  -6352874.76625
  17105814.126   -30495409.831 7 -23429393.81228
  19084674.774   -24453109.934 6 -18837489.51427
  17534922.415   -36034817.173 7 -27871916.19428
 95  6  8  4 44 29.9890000  0  7 31 28  9 17  1 23 21
  19594059.743   -10176446.546 6  -7725888.41625
  18710981.837   -23582736.796 6  -1321804.36327
  20796475.056      112792.570 3     78353.01522
  20376073.485    -8173237.988 5  -6299078.60425
  17097521.603   -30538988.805 7 -23463351.42028
  19089196.939   -24429343.984 6 -18818970.55226
  17530027.845   -36060520.562 7 -27891944.78828
 95  6  8  4 44 59.9890000  0  7 31 28  9 17  1 23 21
  19586170.439   -10217916.456 6  -7758202.63525
  18716728.595   -23552506.079 6  -1298247.98627
  20798729.860      124612.574 3     87563.49221
  20389256.728    -8103955.336 5  -6245092.16225
  17089325.001   -30582056.056 7 -23496910.28228
  19093735.610   -24405491.473 6 -18800384.15726
  17525174.009   -36086043.645 7 -27911832.88928
 95  6  8  4 45 29.9890000  0  7 31 28  9 17  1 23 21
  19578378.228   -10258841.341 6  -7790092.16225
  18722574.103   -23521805.015 6  -1274325.10027
  20801074.642      136927.322 3
  20402488.032    -8034437.417 5  -6190922.34024
  17081225.829   -30624609.665 7 -23530068.89528
  19098292.868   -24381550.899 6 -18781729.14627
  17520350.923   -36111390.150 7 -27931583.41728
 95  6  8  4 45 59.9890000  0  7 31 28  9 17  1 23 21
  19570700.087   -10299218.124 6  -7821554.54925
  18728506.024   -23490622.771 6  -1250027.27127
  20803505.439      149747.288 4
  20415762.829    -7964681.390 5  -6136567.04322
  17073225.345   -30666656.136 7 -23562832.35228
  19102869.704   -24357505.890 6 -18762992.76126
  17515565.626   -36136533.412 7 -27951175.55228
 95  6  8  4 46 29.9890000  0  7 31 28  9 17  1 23 21
  19563121.634   -10339031.488 6  -7852577.96025
  18734527.954   -23458971.083 6  -1225363.65127
  20806040.876      163067.353 3        -0.07531
  20429075.829    -7894692.732 5  -6082030.46424
  17065314.892   -30708215.226 7 -23595216.03728
  19107464.329   -24333353.094 6 -18744172.37526
  17510820.790   -36161468.588 7 -27970605.54428
 95  6  8  4 46 59.9890000  0  7 31 28  9 17  1 23 21
  19555656.978   -10378276.799 6  -7883158.70925
  18740640.446   -23426854.064 6  -1200337.39827
  20808679.532      176884.028 3
  20442441.743    -7824481.152 5  -6027320.12524
  17057505.439   -30749287.344 7 -23627220.25928
  19112081.157   -24309098.840 6 -18725272.92926
  17506110.181   -36186194.339 7 -27989872.34828
 95  6  8  4 47 29.9890000  0  7 31 28  9 17  1 23 21
  19548291.829   -10416923.207 6  -7913272.80725
  18746844.821   -23394248.239 6  -1174930.27727
  20811392.782      191241.475 3
  20455845.321    -7754030.190 5  -5972423.26224
  17049784.400   -30789841.084 7 -23658820.55728
  19116721.743   -24284712.870 6 -18706270.86626
  17501457.673   -36210673.868 7 -28008947.29729
 95  6  8  4 47 59.9890000  0  7 31 28  9 17  1 23 21
  19541065.485   -10454956.771 6  -7942909.33725
  18753143.400   -23361155.991 6  -1149144.11527
  20814242.579      206146.520 2        -0.00432
  20469302.173    -7683343.389 5  -5917342.64124
  17042169.353   -30829873.557 7 -23690014.68228
  19121385.056   -24260196.504 6 -18687167.17026
  17496844.821   -36234902.762 7 -28027826.93929
 95  6  8  4 48 29.9890000  0  7 31 28  9 17  1 23 21
  19533939.595   -10492376.191 6  -7972067.32225
  18759524.985   -23327603.135 6  -1122999.04827
  20817179.298      221569.790 3     12018.20421
  20482794.837    -7612433.623 5  -5862088.32025
  17034648.587   -30869383.181 7 -23720801.39528
  19126070.962   -24235574.163 6 -18667980.90826
  17492274.837   -36258916.143 7 -28046538.64528
 95  6  8  4 48 59.9890000  0  7 31 28  9 17  1 23 21
  19526937.040   -10529177.041 6  -8000743.30125
  18766007.728   -23293577.747 6  -1096485.76427
  20820214.517      237524.230 3     24450.22721
  20496329.704    -7541281.261 5  -5806644.91925
  17027233.407   -30908344.023 7 -23751160.48528
  19130779.689   -24210829.000 6 -18648698.96226
  17487749.353   -36282709.291 7 -28065078.74228
 95  6  8  4 49 29.9890000  0  6 31 28 17  1 23 21
  19520053.485   -10565375.455 6  -8028949.85925
  18772565.610   -23259103.357 6  -1069622.62727
  20509915.025    -7469894.423 5  -5751018.82025
  17019918.751   -30946774.676 7 -23781106.44128
  19135510.095   -24185975.393 6 -18629332.48926
  17483257.306   -36306311.091 7 -28083469.73528
 95  6  8  4 49 59.9890000  0  6 31 28 17  1 23 21
  19513289.978   -10600931.704 6  -8056656.02025
  18779218.392   -23224142.086 6  -1042380.06527
  20523558.071    -7398214.552 5  -5695164.39925
  17012718.431   -30984631.491 7 -23810605.26128
  19140265.712   -24160970.800 6 -18609848.37726
  17478808.720   -36329691.858 7 -28101688.50828
 95  6  8  4 50 29.9890000  0  6 31 28 17  1 23 21
  19506627.900   -10635909.683 6  -8083911.59825
  18785953.345   -23188745.363 6  -1014798.21127
  20537241.251    -7326287.917 5  -5639117.66625
  17005614.532   -31021967.882 7 -23839698.54328
  19145049.399   -24135861.075 6 -18590282.37326
  17474389.126   -36352899.332 7 -28119772.25528
 95  6  8  4 50 59.9890000  0  6 31 28 17  1 23 21
  19500080.564   -10670329.320 6  -8110732.09225
  18792766.759   -23152909.577 6   -986874.24727
  20550981.009    -7254122.078 5  -5582884.56425
  16998606.899   -31058798.328 7 -23868397.57428
  19149846.110   -24110644.200 6 -18570632.84526
  17470010.556   -36375913.024 7 -28137704.99328
 95  6  8  4 51 29.9890000  0  6 31 28 17  1 23 21
  19493634.048   -10704182.377 6  -8137111.10525
  18799670.603   -23116620.845 6   -958597.33326
  20564760.525    -7181708.267 5  -5526458.23725
  16991693.915   -31095114.466 7 -23896695.85428
  19154662.564   -24085305.164 6 -18550888.12926
  17465675.759   -36398712.716 7 -28155470.98828
 95  6  8  4 51 59.9890000  0  6 31 28 17  1 23 21
  19487309.735   -10737477.695 6  -8163055.50025
  18806663.814   -23079888.686 6   -929974.90727
  20578584.165    -7109056.684 5  -5469846.63925
  16984878.337   -31130917.957 7 -23924594.66228
  19159510.860   -24059848.250 6 -18531051.53126
  17461375.962   -36421298.754 7 -28173070.48129
 95  6  8  4 52 29.9890000  0  7 31 28  9 17  1 23 21
  19481068.985   -10770217.501 6  -8188567.04125
  18813741.345   -23042715.872 6   -901009.09527
  20844245.321          -0.24213
  20592448.040    -7036180.463 5  -5413059.97725
  16978162.548   -31166219.637 7 -23952102.45728
  19164376.837   -24034278.401 6 -18511126.98226
  17457122.126   -36443661.323 7 -28190495.84729
 95  6  8  4 52 59.9890000  0  7 31 28  9 17  1 23 21
  19474947.103   -10802395.795 6  -8213641.03025
  18820898.392   -23005101.558 6   -871699.26827
  20848070.860       20113.641 5
  20606361.454    -6963080.864 5  -5356099.25025
  16971543.712   -31201007.988 7 -23979210.25428
  19169264.446   -24008598.311 5 -18491116.49026
  17452903.962   -36465806.443 7 -28207751.78729
 95  6  8  4 53 29.9890000  0  7 31 28  9 17  1 23 21
  19468933.532   -10834010.747 6  -8238276.06126
  18828138.321   -22967052.817 6   -842050.90826
  20851994.751       40721.494 5
  20620309.493    -6889760.040 4  -5298966.17123
  16965023.493   -31235268.894 7 -24005907.06528
  19174170.024   -23982814.101 6 -18471024.93026
  17448732.353   -36487743.189 7 -28224845.34229
 95  6  8  4 53 59.9890000  0  7 31 28  9 17  1 23 21
  19463018.853   -10865077.334 6  -8262483.80325
  18835459.634   -22928591.617 6   -812081.15426
  20855997.853       61790.915 5        -0.24732
  20634297.110    -6816245.128 4  -5241681.86724
  16958595.798   -31269033.114 7 -24032216.82728
  19179089.509   -23956951.649 6 -18450872.35326
  17444596.376   -36509482.597 7 -28241785.13329
 95  6  8  4 54 29.9890000  0  7 31 28  9 17  1 23 21
  19457205.798   -10895587.660 6  -8286258.07926
  18842852.399   -22889708.213 6   -781782.40626
  20860108.946       83340.927 5     16791.90424
  20648323.970    -6742534.405 4  -5184244.97524
  16952269.626   -31302291.211 7 -24058132.21728
  19184032.243   -23930994.855 6 -18430646.30626
  17440498.923   -36531004.437 7 -28258555.40628
 95  6  8  4 54 59.9890000  0  7 31 28  9 17  1 23 21
  19451516.626   -10925539.313 6  -8309597.03726
  18850332.634   -22850405.492 6   -751156.91226
  20864298.564      105376.930 5     33962.76523
  20662388.126    -6668630.723 3  -5126657.72524
  16946038.095   -31335037.386 7 -24083648.71428
  19188986.720   -23904939.764 6 -18410343.61826
  17436443.907   -36552309.176 7 -28275156.49628
 95  6  8  4 55 29.9890000  0  8 31 28  9 17  1 25 23 21
  19445925.985   -10954907.528 6  -8332481.35926
  18857898.478   -22810676.516 6   -720199.29026
  20868591.837      127917.372 4     51526.77323
  20676479.056    -6594521.366 3  -5068910.23125
  16939901.548   -31367283.284 7 -24108775.38528
  21490637.017          -0.27914
  19193969.267   -23878768.685 6 -18389950.59926
  17432432.204   -36573385.061 7 -28291579.25528
 95  6  8  4 55 59.9890000  0  8 31 28  9 17  1 25 23 21
  19440450.985   -10983667.520 5  -8354891.75425
  18865542.860   -22770509.220 6   -688900.13626
  20872978.743      150989.528 5     69505.10723
  20690642.048    -6520184.268 4  -5010985.24924
  16933864.407   -31399018.586 7 -24133504.17828
  21466730.079     -125689.885 4
  19198972.462   -23852458.399 6 -18369449.04626
  17428467.470   -36594220.166 7 -28307814.39728
 95  6  8  4 56 29.9890000  0  8 31 28  9 17  1 25 23 21
  19435094.860   -11011832.442 6  -8376838.41826
  18873264.853   -22729927.119 6   -657277.73526
  20877466.189      174574.858 5     87883.31125
  20704827.689    -6445639.777 5  -4952898.69025
  16927920.876   -31430245.646 7 -24157836.94728
  21442792.243     -251426.491 3
  19204004.540   -23826031.495 6 -18348856.64826
  17424541.970   -36614845.291 7 -28323885.92828
 95  6  8  4 56 59.9890000  0  8 31 28  9 17  1 25 23 21
  19429842.798   -11039390.563 6  -8398312.29625
  18881062.126   -22688922.454 6   -625326.03726
  20882052.439      198676.273 5    106663.70725
  20719052.704    -6370875.480 5  -4894640.80624
  16922073.478   -31460956.591 7 -24181767.56028
  21418851.970     -377204.786 3
  19209055.415   -23799484.390 6 -18328170.57726
  17420661.196   -36635262.733 7 -28339795.62429
 95  6  8  4 57 29.9890000  0  8 31 28  9 17  1 25 23 21
  19424711.314   -11066372.216 6  -8419336.95425
  18888939.962   -22647526.886 6   -593069.73926
  20886729.384      223262.053 5    125821.45324
  20733319.587    -6295922.736 4  -4836236.08024
  16916326.407   -31491184.294 7 -24205321.61328
  21394899.478     -503056.117 3
  19214125.743   -23772848.958 6 -18307415.67726
  17416802.556   -36655508.169 7 -28355571.27729
 95  6  8  4 57 59.9890000  0  8 31 28  9 17  1 25 23 21
  19419689.790   -11092762.872 6  -8439901.11725
  18896900.274   -22605716.170 6   -560489.95626
  20891508.759      248357.371 3    145376.24725
  20747611.001    -6220761.755 3  -4777669.06924
  16910669.001   -31520887.770 7 -24228467.16228
  21370931.603     -628968.398 2
  19219215.673   -23746104.418 6 -18286575.78626
  17412996.493   -36675549.819 7 -28371188.14929
 95  6  8  4 58 29.9880000  0  8 31 28  9 17  1 25 23 21
  19414768.676   -11118605.613 6  -8460038.29425
  18904926.184   -22563525.922 6   -527614.44726
  20896374.754      273927.988 5    165301.39325
  20761945.301    -6145435.651 3  -4718973.36922
  16905107.043   -31550107.638 7 -24251235.87528
  21346959.559     -754974.566 3
  19224319.340   -23719285.024 6 -18265677.57526
  17409216.418   -36695417.917 7 -28386669.77729
 95  6  8  4 58 59.9880000  0  8 31 28  9 17  1 25 23 21
  19409967.902   -11143875.059 6  -8479728.77625
  18913035.527   -22520923.936 6   -494418.09626
  20901338.301      300009.271 5    185624.45625
  20776330.949    -6069896.571 3  -4660111.75223
  16899643.473   -31578827.426 7 -24273614.92928
  21322962.504     -881053.582 2        -0.01731
  19229442.816   -23692357.913 6 -18244695.40826
  17405467.152   -36715082.160 7 -28401992.57129
 95  6  8  4 59 29.9880000  0  8 31 28  9 17  1 25 23 21
  19405266.684   -11168579.230 6  -8498978.78526
  18921210.340   -22477925.158 6   -460912.56726
  20906397.012      326585.792 4    206333.44124
  20790745.457    -5994159.388 3  -4601095.73822
  16894277.449   -31607056.374 7 -24295611.52528
  21298978.645    -1007209.757 3    -98303.50921
  19234586.660   -23665329.406 6 -18223634.25525
  17401765.012   -36734544.591 7 -28417158.09429
 95  6  8  4 59 59.9880000  0  8 31 28  9 17  1 25 23 21
  19400668.004   -11192723.294 6  -8517792.33826
  18929474.567   -22434528.075 6   -427096.67026
  20911543.691      353638.079 5
  20805183.215    -5918223.054 3  -4541924.53624
  16888997.379   -31634774.540 7 -24317210.09028
  21274950.262    -1133430.378 3
  19239751.816   -23638188.090 6
  17398108.004   -36753786.210 7 -28432151.54928
 95  6  8  5  0 29.9880000  0  8 31 28  9 17  1 25 23 21
  19396176.020   -11216323.647 6  -8536182.23626
  18937802.965   -22390744.457 6   -392979.59626
  20916775.590      381135.560 4    248839.84123
  20819682.598    -5842092.253 5  -4482601.85823
  16883818.746   -31661996.154 7 -24338421.72227
  21250919.231    -1259706.321 3
  19244937.574   -23610934.267 6 -18181248.44126
  17394486.692   -36772808.085 7 -28446973.78828
 95  6  8  5  0 59.9880000  0  8 31 28  9 17  1 25 23 21
  19391794.316   -11239350.837 6  -8554125.48426
  18946216.301   -22346559.926 6   -358550.10626
  20922100.051      409078.733 3    270613.67025
  20834212.512    -5765751.760 5  -4423115.74721
  16878739.145   -31688702.026 7 -24359231.48228
  21226892.215    -1386013.695 3        -0.15331
  19250146.246   -23583544.898 6 -18159906.06726
  17390907.731   -36791592.773 7 -28461611.21028
 95  6  8  5  1 29.9880000  0  8 31 28  9 17  1 25 23 21
  19387521.817   -11261818.271 6  -8571632.57326
  18954695.113   -22301983.198 6   -323815.01126
  20927491.488      437459.744 3    292728.72625
  20848771.254    -5689221.126 3  -4363481.52121
  16873755.402   -31714888.943 7 -24379636.87328
  21202851.535    -1512355.562 5    -98448.26421
  19255389.356   -23556021.174 6 -18138458.97825
  17387378.645   -36810138.572 7 -28476062.47929
 95  6  8  5  1 59.9880000  0  8 31 28  9 17  1 25 23 21
  19383354.004   -11283726.093 6  -8588703.62925
  18963257.856   -22257017.823 6   -288777.06326
  20932984.910      466288.470 2    315192.68523
  20863363.113    -5612496.627 3  -4303696.29221
  16868867.465   -31740559.325 7 -24399639.75328
  21178800.668    -1638722.468 5   -196915.96121
  19260649.176   -23528371.133 6 -18116913.50125
  17383897.270   -36828449.988 7 -28490331.11128
 95  6  8  5  2 29.9880000  0  7 31 28 17  1 25 23 21
  19379293.590   -11305053.160 6  -8605322.11626
  18971882.371   -22211663.507 6   -253436.02726
  20878000.606    -5535566.998 4  -4243751.09821
  16864079.754   -31765725.857 7 -24419250.03228
  21154740.027    -1765125.373 5   -295411.65122
  19265931.957   -23500602.141 6 -18095275.33526
  17380458.090   -36846533.800 7 -28504422.38128
 95  6  8  5  2 59.9880000  0  8 31 28  9 17  1 25 23 21
  19375345.793   -11325802.952 6  -8621490.78826
  18980583.746   -22165943.766 6   -217810.24726
  20944229.676          -0.54213
  20892683.379    -5458461.209 3  -4183668.70822
  16859383.434   -31790403.770 7 -24438479.57028
  21130680.707    -1891591.832 4   -393956.86022
  19271233.856   -23472739.756 6 -18073564.34525
  17377055.559   -36864421.094 7 -28518360.54029
 95  6  8  5  3 29.9880000  0  8 31 28  9 17  1 25 23 21
  19371512.395   -11345955.465 6  -8637194.04726
  18989356.145   -22119836.014 6   -181882.12726
  20950001.629       30342.302 2
  20907398.301    -5381151.255 3  -4123427.24823
  16854788.574   -31814559.260 7 -24457302.02328
  21106592.942    -2018098.575 4   -492533.45122
  19276555.574   -23444763.863 6 -18051764.92525
  17373685.590   -36882082.601 7 -28532122.75329
 95  6  8  5  3 59.9880000  0  8 31 28  9 17  1 25 23 21
  19367782.215   -11365527.645 6  -8652445.08326
  18998201.090   -22073365.651 6   -145671.45526
  20955868.793       61211.051 2
  20922143.879    -5303648.406 3  -4063035.41023
  16850284.762   -31838231.382 7 -24475747.81628
  21082521.817    -2144662.395 3   -591154.55422
  19281898.152   -23416692.750 6 -18029891.36025
  17370365.176   -36899546.205 7 -28545730.75229
 95  6  8  5  4 29.9880000  0  8 31 28  9 17  1 25 23 21
  19364174.348   -11384520.799 6  -8667244.96725
  19007116.629   -22026531.817 6   -109177.56726
  20961843.059       92597.329 3
  20936922.871    -5225953.726 3  -4002494.10124
  16845870.270   -31861421.454 7 -24493818.00228
  21058414.207    -2271282.379 3   -689819.39521
  19287260.324   -23388516.201 6 -18007935.62025
  17367083.543   -36916804.452 7 -28559178.73428
 95  6  8  5  4 59.9880000  0  8 31 28  9 17  1 25 23 21
  19360669.785   -11402943.077 6  -8681600.00125
  19016094.363   -21979333.143 6    -72399.39526
  20967924.113      124487.199 2
  20951741.262    -5148068.384 3  -3941804.23225
  16841546.215   -31884129.397 7 -24511512.48928
  21034322.137    -2397939.222 5   -788512.92321
  19292644.738   -23360225.973 6 -17985891.25125
  17363842.840   -36933858.157 7 -28572467.33828
 95  6  8  5  5 29.9880000  0  8 31 28  9 17  1 25 23 21
  19357265.129   -11420827.892 6  -8695536.22725
  19025143.941   -21931781.947 6    -35346.54326
  20974068.832          -0.75012
  20966600.738    -5069999.783 3  -3880971.54825
  16837319.793   -31906369.393 7 -24528842.35128
  21010206.410    -2524633.073 3   -887235.28823
  19298047.293   -23331835.741 6 -17963768.98325
  17360626.645   -36950706.959 7 -28585596.27828
 95  6  8  5  5 59.9880000  0  8 31 28  9 17  1 25 23 21
  19353957.793   -11438164.357 6  -8709045.17726
  19034263.051   -21883867.391 6      1989.43526
  20980317.402       32812.855 2
  20981484.707    -4991745.235 3  -3819994.00125
  16833174.824   -31928129.042 7 -24545797.91328
  20986105.902    -2651345.125 5   -985971.85322
  19303469.441   -23303333.224 6 -17941559.25124
  17357470.957   -36967332.731 7 -28598551.43729
 95  6  8  5  6 29.9880000  0  8 31 28  9 17  1 25 23 21
  19350766.090   -11454954.905 6  -8722128.71526
  19043443.449   -21835589.376 6     39608.67526
  20986646.699       66066.043 1
  20996418.270    -4913317.465 5  -3758881.47625
  16829128.137   -31949393.982 7 -24562367.98327
  20961976.871    -2778074.125 4  -1084721.61724
  19308914.481   -23274715.325 6 -17919259.58726
  17354352.199   -36983729.957 7 -28611328.49829
 95  6  8  5  6 59.9880000  0  7 31 28 17  1 25 23 21
  19347671.293   -11471217.611 6
  19052702.637   -21786968.020 6     77495.40926
  21011373.488    -4834733.844 5  -3697647.51225
  16825171.449   -31970182.146 7 -24578566.53127
  20937865.707    -2904826.274 4  -1183489.37625
  19314381.973   -23246000.550 6 -17896884.44326
  17351270.871   -36999920.934 7
 95  6  8  5  7 29.9880000  0  7 31 28 17  1 25 23 21
  19344673.379   -11486957.107 6  -8747065.51225
  19062021.348   -21738009.200 6    115645.12026
  21026352.426    -4756001.047 5  -3636297.28224
  16821308.512   -31990489.844 7 -24594390.70528
  20913734.520    -3031592.703 4  -1282268.26424
  19319862.152   -23217186.725 6 -17874432.10325
  17348226.176   -37015898.568 7 -28636394.94928
 95  6  8  5  7 59.9880000  0  7 31 28 17  1 25 23 21
  19341783.895   -11502141.859 6  -8758897.76725
  19071402.051   -21688696.985 6    154070.21726
  21041370.277    -4677095.507 5  -3574812.48421
  16817540.918   -32010310.666 7 -24609835.49228
  20889611.816    -3158350.542 4  -1381040.49523
  19325373.027   -23188241.046 6 -17851877.01725
  17345222.887   -37031667.942 7 -28648682.74729
 95  6  8  5  8 29.9880000  0  7 31 28 17  1 25 23 21
  19338998.160   -11516779.675 6  -8770303.86725
  19080850.184   -21639047.225 6    192758.31826
  21056417.965    -4598018.422 4  -3513193.92522
  16813851.129   -32029666.350 7 -24624917.82028
  20865493.543    -3285109.873 5  -1479813.87324
  19330901.957   -23159178.816 6 -17829231.12725
  17342261.973   -37047249.298 7 -28660824.06629
 95  6  8  5  8 59.9880000  0  7 31 28 17  1 25 23 21
  19336326.387   -11530848.835 6  -8781266.87526
  19090364.488   -21589052.044 6    231715.57926
  21071500.457    -4518752.152 3  -3451428.07621
  16810261.277   -32048540.952 7 -24639625.29027
  20841382.934    -3411856.077 5  -1578577.01724
  19336454.715   -23129994.786 6 -17806490.31125
  17339337.371   -37062631.268 7 -28672810.00729
 95  6  8  5  9 29.9880000  0  7 31 28 17  1 25 23 21
  19333760.254   -11544338.804 6  -8791778.54326
  19099938.020   -21538708.766 6    270944.11226
  21086614.801    -4439302.443 2
  16806762.207   -32066922.336 7 -24653948.42327
  20817260.754    -3538597.755 5  -1677336.68825
  19342033.754   -23100681.925 6 -17783649.11825
  17336445.145   -37077804.496 7 -28684633.31429
 95  6  8  5  9 59.9880000  0  6 31 28  1 25 23 21
  19331298.871   -11557271.490 6  -8801855.94926
  19109577.817   -21488045.979 6    310421.59026
  16803354.676   -32084829.273 7 -24667901.87028
  20793129.293    -3665377.690 5  -1776126.16425
  19347631.762   -23071271.275 6 -17760731.73825
  17333597.371   -37092791.548 7 -28696311.52029
 95  6  8  5 10 29.9880000  0  7 31 28 15  1 25 23 21
  19328948.887   -11569636.969 6  -8811491.35425
  19119282.145   -21437047.112 6    350160.95826
  20783916.535          -0.63012
  16800045.004   -32102227.593 7 -24681458.99128
  20769005.332    -3792181.239 5  -1874934.05125
  19353246.973   -23041758.332 6 -17737734.64725
  17330786.301   -37107539.078 7 -28707803.09629
 95  6  8  5 10 59.9880000  0  7 31 28 15  1 25 23 21
  19326696.137   -11581455.922 6  -8820700.92125
  19129051.887   -21385709.077 6    390164.58026
  20758830.340     -131799.268 3        -0.19431
  16796832.770   -32119119.533 7 -24694621.54028
  20744869.363    -3918998.126 5  -1973752.32424
  19358883.418   -23012124.418 6 -17714643.25425
  17328024.715   -37122040.437 7 -28719102.84029
 95  6  8  5 11 29.9880000  0  7 31 28 15  1 25 23 21
  19324541.004   -11592808.140 6  -8829546.81625
  19138876.277   -21334094.091 6    430384.01026
  20733752.738     -263573.807 3   -102681.58221
  16793699.168   -32135570.464 7 -24707440.43128
  20720726.027    -4045884.055 5  -2072624.46924
  19364534.621   -22982429.973 6 -17691504.73725
  17325307.801   -37136345.544 7 -28730249.67229
 95  6  8  5 11 59.9880000  0  7 31 28 15  1 25 23 21
  19322467.317   -11603660.278 5  -8838003.01125
  19148766.371   -21282167.085 6    470846.56026
  20708683.527     -395283.956 2
  16790658.684   -32151547.094 7 -24719889.74527
  20696579.770    -4172784.325 5  -2171507.69723
  19370204.981   -22952645.749 6 -17668296.25526
  17322633.856   -37150407.309 7 -28741206.87029
 95  6  8  5 12 29.9880000  0  7 31 28 15  1 25 23 21
  19320492.824   -11614021.916 5  -8846076.98425
  19158693.840   -21229940.809 6    511542.37026
  20683643.738     -526937.195 3
  16787703.559   -32167079.950 7 -24731993.25027
  20672419.067    -4299696.915 4  -2270400.56323
  19375889.238   -22922778.945 6 -17645023.41626
  17319998.488   -37164246.814 7 -28751990.88029
 95  6  8  5 12 59.9880000  0  7 31 28 15  1 25 23 21
  19318631.262   -11623835.573 6  -8853723.95125
  19168699.840   -21177378.215 6    552500.23426
  20658602.606     -658491.430 2        -0.28431
  16784836.301   -32182133.396 7 -24743723.19128
  20648281.473    -4426571.875 4  -2369264.08022
  19381595.777   -22892780.151 6 -17621647.73726
  17317414.152   -37177842.889 7 -28762585.21129
 95  6  8  5 13 29.9880000  0  6 31 28  1 25 23 21
  19316863.988   -11633103.757 6  -8860945.89725
  19178758.199   -21124524.136 6    593685.23925
  16782060.465   -32196736.941 7 -24755102.56827
  20624134.668    -4553451.421 3  -2468131.22122
  19387325.379   -22862686.235 6 -17598197.94326
  17314860.918   -37191236.789 7 -28773022.00329
 95  6  8  5 13 59.9880000  0  6 31 28  1 25 23 21
  19315217.988   -11641793.337 6  -8867716.97326
  19188877.770   -21071362.264 6    635110.05125
  16779369.895   -32210882.087 7 -24766124.73927
  20599998.746    -4680313.907 5  -2566985.04121
  19393073.168   -22832458.202 6 -17574643.64426
  17312347.863   -37204427.347 7 -28783300.35629
 95  6  8  5 14 29.9880000  0  7 31 28 15  1 25 23 21
  19313668.160   -11649895.780 6  -8874030.53926
  19199052.449   -21017881.452 6    676783.40926
  20583583.762     -131315.010 4
  16776764.863   -32224552.918 7 -24776777.32128
  20575862.317    -4807148.142 5  -2665816.89321
  19398857.082   -22802065.391 6 -17550960.95726
  17309881.660   -37217411.809 7 -28793418.09929
 95  6  8  5 14 59.9880000  0  7 31 28 15  1 25 23 21
  19312239.137   -11657408.812 6  -8879884.82025
  19209289.145   -20964077.564 6    718708.51126
  20558610.613     -262521.228 4
  16774259.715   -32237727.145 7 -24787042.92428
  20551734.309    -4933938.135 5  -2764614.18622
  19404676.684   -22771493.605 6 -17527138.81425
  17307453.934   -37230170.155 7 -28803359.66029
 95  6  8  5 15 29.9880000  0  7 31 28 15  1 25 23 21
  19310918.660   -11664360.199 6  -8885301.46325
  19219587.324   -20909970.718 5    760869.70226
  20533669.840     -393634.110 5        -0.35831
  16771844.957   -32250419.495 7
  20527611.512    -5060701.143 5  -2863390.47921
  19410522.059   -22740778.186 6 -17503204.73626
  17305067.488   -37242708.469 7
 95  6  8  5 15 59.9880000  0  7 31 28 15  1 25 23 21
  19309701.887   -11670779.472 6  -8890303.46925
  19229940.840   -20855568.789 6    803260.81526
  20508736.137     -524655.925 5   -102095.11322
  16769520.879   -32262635.411 7 -24806451.95428
  20503495.504    -5187426.921 5  -2962137.75521
  19416386.598   -22709957.770 6 -17479188.85626
  17302725.973   -37255016.035 7 -28822720.06129
 95  6  8  5 16 29.9880000  0  7 31 28 15  1 25 23 21
  19308578.082   -11676663.923 6  -8894888.71525
  19240352.254   -20800867.137 6    845885.46326
  20483819.129     -655576.637 5   -204111.14622
  16767287.816   -32274361.437 7 -24815589.11328
  20479395.410    -5314096.797 5  -3060841.51822
  19422264.223   -22679050.907 6 -17455105.57326
  17300432.152   -37267066.168 7 -28832109.76329
 95  6  8  5 16 59.9880000  0  7 31 28 15  1 25 23 21
  19307554.613   -11682019.598 5  -8899061.96225
  19250816.395   -20745875.837 6    888735.83325
  20458927.566     -786400.745 4   -306051.86722
  16765152.184   -32285607.312 7 -24824352.11828
  20455305.926    -5440706.794 5  -3159498.56822
  19428164.731   -22648079.824 6 -17430972.29625
  17298184.848   -37278860.247 7 -28841299.94129
 95  6  8  5 17 29.9880000  0  7 31 28 15  1 25 23 21
  19306640.059   -11686858.190 6  -8902832.25425
  19261328.691   -20690607.057 6    931802.40825
  20434047.598     -917134.790 5   -407922.43622
  16763092.879   -32296394.335 7 -24832757.58228
  20431212.059    -5567277.130 5  -3258124.74822
  19434062.285   -22617061.965 6 -17406802.52426
  17295990.176   -37290418.933 7 -28850306.69329
 95  6  8  5 17 59.9880000  0  7 31 28 15  1 25 23 21
  19305823.160   -11691178.487 6  -8906198.69425
  19271901.473   -20635053.286 6    975091.03625
  20409190.746    -1047765.981 5   -509712.81421
  16761132.863   -32306725.200 7 -24840807.61328
  20407140.621    -5693802.104 5  -3356715.62422
  19439984.426   -22585960.893 6 -17382567.93926
  17293829.051   -37301749.411 7 -28859135.63429
 95  6  8  5 18 29.9880000  0  7 31 28 15  1 25 23 21
  19305096.012   -11694969.726 5  -8909152.93825
  19282534.137   -20579208.511 6   1018606.40425
  20384350.504    -1178282.628 5   -611413.90522
  16759250.879   -32316601.759 7 -24848503.62028
  20383070.160    -5820290.682 5  -3455278.13222
  19445924.809   -22554729.898 6 -17358232.10726
  17291713.887   -37312866.038 7 -28867797.93928
 95  6  8  5 18 59.9880000  0  7 31 28 15  1 25 23 21
  19304476.410   -11698224.034 5  -8911688.76125
  19293211.527   -20523079.011 6   1062343.65825
  20359535.590    -1308685.070 5   -713026.03022
  16757459.270   -32326023.096 7 -24855844.90628
  20359000.801    -5946760.992 5  -3553826.37024
  19451897.387   -22523354.344 6 -17333783.65126
  17289635.832   -37323785.797 7 -28876306.83529
 95  6  8  5 19 29.9880000  0  7 31 28 15  1 25 23 21
  19303956.731   -11700951.959 5  -8913814.42125
  19303944.942   -20466683.871 5   1106287.93125
  20334747.067    -1438987.018 5   -814559.89322
  16755750.160   -32335014.687 7 -24862851.34028
  20334934.785    -6073230.864 5  -3652374.25824
  19457891.535   -22491839.348 6 -17309226.50026
  17287594.574   -37334519.771 7 -28884670.97828
 95  6  8  5 19 59.9880000  0  7 31 28 15  1 25 23 21
  19303530.613   -11703156.027 6  -8915531.84425
  19314725.465   -20410030.524 5   1150433.39225
  20309967.293    -1569190.261 5   -916016.83123
  16754119.207   -32343577.848 7 -24869523.95328
  20310861.723    -6199681.780 5  -3750907.37224
  19463915.567   -22460182.157 6 -17284558.56326
  17285586.559   -37345066.028 7 -28892888.83529
 95  6  8  5 20 29.9880000  0  7 31 28 15  1 25 23 21
  19303220.910   -11704805.507 6  -8916817.15025
  19325560.449   -20353104.458 5   1194791.35426
  20285212.402    -1699274.673 5  -1017381.21424
  16752572.856   -32351690.917 7 -24875845.81928
  20286823.027    -6326079.616 5  -3849399.11424
  19469967.629   -22428373.234 6 -17259772.39726
  17283625.309   -37355388.638 7 -28900932.42629
 95  6  8  5 20 59.9880000  0  7 31 28 15  1 25 23 21
  19303012.348   -11705909.031 5  -8917677.06525
  19336437.801   -20295910.838 5   1239357.79525
  20260479.074    -1829239.699 5  -1118652.58724
  16751117.356   -32359357.357 7 -24881819.65928
  20262777.082    -6452410.534 5  -3947838.73424
  19476049.207   -22396427.016 6 -17234879.23926
  17281704.113   -37365470.762 7 -28908788.64529
 95  6  8  5 21 29.9880000  0  7 31 28 15  1 25 23 21
  19302904.738   -11706495.139 6  -8918133.73525
  19347377.145   -20238456.312 6   1284127.51626
  20235767.957    -1959086.324 5  -1219831.69224
  16749739.238   -32366591.992 7 -24887457.02828
  20238741.879    -6578663.564 5  -4046217.65725
  19482150.824   -22364353.837 6 -17209887.17825
  17279829.660   -37375309.711 7 -28916455.35929
 95  6  8  5 21 59.9880000  0  7 31 28 15  1 25 23 21
  19302883.762   -11706571.334 6
  19358354.543   -20180744.708 6   1329097.58726
  20211072.012    -2088813.101 5  -1320917.39224
  16748447.317   -32373378.916 7 -24892745.54728
  20214738.215    -6704839.645 5  -4144536.67625
  19488283.809   -22332163.310 6 -17184803.61126
  17278007.527   -37384910.247 7 -28923936.31729
 95  6  8  5 22 29.9880000  0  7 31 28 15  1 25 23 21
  19302967.520   -11706159.403 6
  19369384.777   -20122792.787 6   1374254.89225
  20186418.238    -2218430.475 5  -1421917.89325
  16747232.504   -32379729.283 7 -24897693.88428
  20190734.254    -6830963.396 5  -4242814.84825
  19494425.442   -22299869.466 6 -17159639.62325
  17276223.535   -37394282.637 7 -28931239.47829
 95  6  8  5 22 59.9880000  0  7 31 28 15  1 25 23 21
  19303132.793   -11705264.507 5  -8917174.82025
  19380463.309   -20064596.070 6   1419602.92926
  20161777.543    -2347928.816 5  -1522825.62725
  16746115.902   -32385626.728 7 -24902289.28728
  20166751.809    -6957025.397 5  -4341044.91325
  19500591.559   -22267472.798 6 -17134395.46526
  17274481.934   -37403425.768 7 -28938363.99229
 95  6  8  5 23 29.9880000  0  7 31 28 15  1 25 23 21
  19303400.551   -11703867.354 5  -8916086.11525
  19391577.098   -20006153.628 6   1465142.46026
  20137159.621    -2477301.524 5  -1623635.45125
  16745084.863   -32391059.608 7 -24906522.69628
  20142778.996    -7083011.994 5  -4439216.24725
  19506774.965   -22234971.095 6 -17109069.45826
  17272781.832   -37412345.917 7 -28945314.76128
 95  6  8  5 23 59.9880000  0  7 31 28 15  1 25 23 21
  19303765.582   -11701969.069 5  -8914606.95525
  19402745.879   -19947478.976 5   1510862.94226
  20112557.754    -2606556.375 5  -1724353.47025
  16744129.582   -32396043.517 7 -24910406.25828
  20118815.527    -7208937.313 5  -4537339.83025
  19512980.856   -22202362.686 6 -17083660.35726
  17271129.277   -37421057.923 7 -28952103.33928
 95  6  8  5 24 29.9880000  0  7 31 28 15  1 25 23 21
  19304224.551   -11699556.426 6  -8912727.01025
  19413959.941   -19888557.603 5   1556775.71826
  20087983.504    -2735673.146 5  -1824963.88224
  16743273.106   -32400582.097 7 -24913942.80028
  20094864.340    -7334785.088 5  -4635402.98425
  19519207.777   -22169625.622 6 -17058150.96426
  17269507.543   -37429551.708 7 -28958721.89128
 95  6  8  5 24 59.9880000  0  7 31 28 15  1 25 23 21
  19304780.473   -11696618.553 5  -8910437.77025
  19425207.652   -19829393.755 5   1602877.39726
  20063446.481    -2864650.157 5  -1925465.37324
  16742488.082   -32404687.865 7 -24917142.08928
  20070933.801    -7460556.043 5  -4733406.29525
  19525459.988   -22136770.679 6 -17032549.73426
  17267935.332   -37437828.120 7 -28965171.03029
 95  6  8  5 25 29.9880000  0  7 31 28 15  1 25 23 21
  19305439.926   -11693152.349 5  -8907736.86825
  19436520.926   -19769985.168 5   1649169.80825
  20038927.340    -2993479.123 5  -2025851.49424
  16741782.293   -32408365.775 7 -24920007.99128
  20047018.629    -7586255.984 5  -4831354.28325
  19531737.215   -22103782.329 6 -17006844.55226
  17266406.754   -37445874.850 8 -28971441.20029
 95  6  8  5 25 59.9880000  0  7 31 28 15  1 25 23 21
  19306189.660   -11689178.666 5  -8904640.52325
  19447868.340   -19710342.395 5   1695644.68026
  20014447.238    -3122164.941 5  -2126126.04825
  16741168.590   -32411621.088 7 -24922544.60828
  20023105.418    -7711898.447 5  -4929257.46625
  19538039.020   -22070671.416 6 -16981043.85526
  17264921.848   -37453683.815 7 -28977526.09729
 95  6  8  5 26 29.9880000  0  7 31 28 15  1 25 23 21
  19307053.606   -11684692.430 6  -8901144.79525
  19459262.285   -19650470.615 5   1742297.99125
  19989976.551    -3250707.440 5  -2226288.96025
  16740633.426   -32414437.234 7 -24924739.00328
  19999212.746    -7837475.978 6  -5027110.05125
  19544359.574   -22037460.337 6 -16955165.09926
  17263480.731   -37461245.901 7 -28983418.62829
 95  6  8  5 26 59.9880000  0  7 31 28 15  1 25 23 21
  19308002.824   -11679690.114 6  -8897246.93125
  19470699.879   -19590372.082 6   1789128.00225
  19965543.387    -3379103.192 5  -2326337.51025
  16740182.020   -32416804.108 7 -24926583.31928
  19975328.356    -7962979.652 6  -5124905.05824
  19550697.106   -22004144.588 6 -16929204.77726
  17262087.934   -37468549.052 7 -28989109.38428
 95  6  8  5 27 29.9880000  0  7 31 28 15  1 25 23 21
  19309047.551   -11674189.385 5  -8892960.66125
  19482181.012   -19530050.991 6   1836131.43625
  19941147.887    -3507350.325 5  -2426270.24925
  16739820.551   -32418716.748 7 -24928073.69528
  19951461.223    -8088403.333 6  -5222637.74825
  19557060.879   -21970715.820 6 -16903156.41726
  17260748.496   -37475597.800 7 -28994601.89629
 95  6  8  5 27 59.9880000  0  7 31 28 15  1 25 23 21
  19310182.691   -11668177.630 5  -8888276.21325
  19493698.731   -19469499.637 5   1883314.27425
  19916765.371    -3635435.746 5  -2526076.97625
  16739541.692   -32420167.749 7 -24929204.34228
  19927611.543    -8213729.277 6  -5320294.28025
  19563446.785   -21937164.675 6 -16877012.66626
  17259457.887   -37482394.231 7 -28999897.81429
 95  6  8  5 28 29.9880000  0  7 31 28 15  1 25 23 21
  19311432.848   -11661677.589 5  -8883211.29825
  19505259.551   -19408735.943 5   1930662.58525
  19892423.973    -3763371.250 5  -2625766.89325
  16739353.090   -32421184.096 7 -24929996.30228
  19903778.387    -8338967.962 6  -5417882.77025
  19569849.434   -21903497.439 6 -16850778.44526
  17258200.934   -37488970.412 7 -29005022.11929
 95  6  8  5 28 59.9870000  0  7 31 28 15  1 25 23 21
  19312760.265   -11654694.179 5  -8877769.70925
  19516875.804   -19347753.395 5   1978181.45425
  19868108.093    -3891138.043 5  -2725325.33125
  16739243.491   -32421768.919 7 -24930452.00228
  19879975.124    -8464095.694 6  -5515384.79325
  19576284.507   -21869679.971 6 -16824427.20725
  17256990.468   -37495318.849 7 -29009968.94029
 95  6  8  5 29 29.9870000  0  7 31 28 15  1 25 23 21
  19314176.046   -11647245.587 5  -8871965.65525
  19528518.257   -19286560.124 5   2025864.53725
  19843829.827    -4018750.968 5  -2824763.87325
  16739208.132   -32421932.715 7
  19856175.265    -8589116.949 5  -5612803.88525
  19582753.116   -21835712.991 6 -16797959.45026
  17255827.405   -37501445.130 7 -29014742.64129
 95  6  8  5 29 59.9870000  0  7 31 28 15  1 25 23 21
  19315677.132   -11639315.351 5  -8865786.28125
  19540192.452   -19225154.428 5   2073713.08725
  19819578.288    -4146196.451 5  -2924071.99324
  16739255.163   -32421667.490 7
  19832402.319    -8714015.641 5  -5710127.47022
  19589248.351   -21801590.274 6 -16771370.34626
  17254707.515   -37507332.533 7 -29019330.21829
 95  6  8  5 30 29.9870000  0  7 31 28 15  1 25 23 21
  19317284.866   -11630897.230 5  -8859226.74825
  19551920.194   -19163538.974 5   2121725.11125
  19795348.390    -4273471.526 5  -3023247.30025
  16739391.859   -32420978.887 7 -24929836.37229
  19808664.726    -8838785.058 6  -5807350.33124
  19595768.944   -21767313.405 6 -16744661.11026
  17253632.046   -37512972.634 7 -29023725.09229
 95  6  8  5 30 59.9870000  0  7 31 28 15  1 25 23 21
  19318987.687   -11621996.390 6  -8852291.07725
  19563684.343   -19101728.850 5   2169888.84325
  19771171.085    -4400585.408 5  -3122297.03024
  16739600.874   -32419881.960 7 -24928981.62029
  19784944.484    -8963443.246 5  -5904486.51424
  19602313.288   -21732904.086 6 -16717848.68726
  17252606.499   -37518363.485 7 -29027925.73529
 95  6  8  5 31 29.9870000  0  7 31 28 15  1 25 23 21
  19320767.874   -11612603.981 5  -8844972.35125
  19575484.569   -19039727.374 5   2218201.67225
  19747015.015    -4527535.025 5  -3221218.80825
  16739879.562   -32418379.714 7 -24927811.01329
  19761241.351    -9088008.983 5  -6001550.64424
  19608885.374   -21698375.893 6 -16690943.61826
  17251635.530   -37523514.193 7 -29031939.28129
 95  6  8  5 31 59.9870000  0  7 31 28 15  1 25 23 21
  19322659.429   -11602708.889 6  -8837261.93225
  19587319.585   -18977532.177 5   2266665.45925
  19722885.624    -4654312.679 5  -3320006.57425
  16740247.155   -32416474.100 7 -24926326.10829
  19737553.171    -9212481.263 5  -6098541.94325
  19615478.171   -21663735.911 6 -16663951.44225
  17250690.226   -37528440.395 7 -29035777.86929
 95  6  8  5 32 29.9870000  0  7 31 28 15  1 25 23 21
  19324628.749   -11592331.132 5  -8829175.43725
  19599192.296   -18915147.907 5   2315276.57525
  19698790.359    -4780917.269 5  -3418659.47025
  16740680.101   -32414166.763 7 -24924528.17629
  19713889.702    -9336850.774 5  -6195453.17525
  19622089.452   -21628983.836 6 -16636871.91426
  17249800.773   -37533143.463 7 -29039442.58829
 95  6  8  5 32 59.9870000  0  7 31 28 15  1 25 23 21
  19326681.249   -11581478.204 5  -8820718.62725
  19611097.483   -18852576.922 5   2364033.18525
  19674733.780    -4907345.309 5  -3517174.86625
  16741201.210   -32411454.491 7 -24922414.70729
  19690242.734    -9461109.032 5  -6292277.72424
  19628723.319   -21594118.026 5 -16609703.74625
  17248944.413   -37537614.773 7 -29042926.70829
 95  6  8  5 33 29.9870000  0  7 31 28 15  1 25 23 21
  19328855.702   -11570145.485 5  -8811887.98325
  19623031.460   -18789818.328 5   2412935.99625
  19650706.952    -5033590.217 5  -3615547.48925
  16741798.976   -32408324.911 7 -24919976.03828
  19666616.796    -9585230.073 5  -6388995.29124
  19635383.077   -21559124.871 6 -16582436.38525
  17248137.194   -37541854.626 7 -29046230.48528
 95  6  8  5 33 59.9870000  0  7 31 28 15  1 25 23 21
  19331105.038   -11558329.937 6  -8802681.09225
  19635013.179   -18726878.800 5   2461979.80025
  19626723.132    -5159652.326 5  -3713777.71325
  16742473.155   -32404773.750 7 -24917208.87829
  19643031.007    -9709194.995 6  -6485591.23525
  19642066.312   -21524003.964 6 -16555069.45026
  17247380.140   -37545842.071 7 -29049337.58429
 95  6  8  5 34 29.9870000  0  7 31 28 15  1 25 23 21
  19333434.405   -11546024.985 5  -8793092.87125
  19647027.108   -18663758.526 5   2511164.42825
  19602771.538    -5285525.766 5  -3811860.87425
  16743231.163   -32400798.104 7 -24914110.95229
  19619469.624    -9833003.507 6  -6582065.34524
  19648772.804   -21488750.343 5 -16527599.09725
  17246672.366   -37549554.525 7 -29052230.40929
 95  6  8  5 34 59.9870000  0  7 31 28 15  1 25 23 21
  19335869.483   -11533246.824 5  -8783135.89725
  19659069.335   -18600483.371 5   2560469.77025
  19578845.046    -5411230.957 5  -3909812.96725
  16744064.491   -32396420.695 7 -24910699.96828
  19595932.499    -9956681.928 6  -6678438.10024
  19655502.937   -21453390.838 6 -16500046.27525
  17246010.734   -37553028.666 7 -29054937.51629
 95  6  8  5 35 29.9870000  0  7 31 28 15  1 25 23 21
  19338390.819   -11519984.801 5  -8772801.86325
  19671147.429   -18537038.878 5   2609907.08425
  19554958.273    -5536747.898 5  -4007618.34925
  16744979.343   -32391612.535 7 -24906953.33028
  19572428.874   -10080215.738 6  -6774698.13225
  19662255.343   -21417902.818 6 -16472393.27926
  17245398.554   -37556255.831 7 -29057452.18729
 95  6  8  5 35 59.9870000  0  7 31 28 15  1 25 23 21
  19341014.444   -11506231.424 5  -8762084.95425
  19683251.390   -18473405.430 5   2659491.57624
  19531120.593    -5662050.876 5  -4105256.99525
  16745974.773   -32386361.938 7 -24902861.94228
  19548952.616   -10203593.368 6  -6870836.44625
  19669037.085   -21382270.985 6 -16444628.23625
  17244838.632   -37559209.002 7 -29059753.34229
 95  6  8  5 36 29.9870000  0  7 31 28 15  1 25 23 21
  19343710.819   -11492029.599 6  -8751018.60625
  19695384.023   -18409601.323 5   2709209.07323
  19507311.538    -5787151.919 5  -4202738.32324
  16747053.749   -32380699.948 7 -24898449.99228
  19525497.241   -10326833.376 6  -6966867.58125
  19675844.968   -21346502.785 6 -16416756.95425
  17244320.116   -37561919.808 7 -29061865.64629
 95  6  8  5 36 59.9870000  0  7 31 28 15  1 25 23 21
  19346500.273   -11477391.903 5  -8739612.63525
  19707562.874   -18345637.881 5   2759050.67425
  19483543.484    -5912056.350 5  -4300066.41425
  16748207.226   -32374636.042 7 -24893724.87928
  19502072.983   -10449945.966 6  -7062799.41425
  19682674.984   -21310598.267 6 -16388779.40826
  17243849.460   -37564404.239 7 -29063801.57029
 95  6  8  5 37 29.9870000  0  7 31 28 15  1 25 23 21
  19349370.726   -11462307.494 6  -8727858.54525
  19719768.952   -18281513.785 5   2809017.54325
  19459817.866    -6036757.181 5  -4397235.85024
  16749439.523   -32368183.252 7 -24888696.72728
  19478668.093   -10572933.939 6  -7158634.10125
  19689535.890   -21274547.184 6 -16360687.67025
  17243418.593   -37566651.616 7 -29065552.76329
 95  6  8  5 37 59.9870000  0  7 31 28 15  1 25 23 21
  19352322.577   -11446789.156 5  -8715766.32125
  19731991.882   -18217246.985 4   2859095.56525
  19436120.952    -6161266.636 5  -4494256.17624
  16750729.882   -32361380.115 7 -24883395.57128
  19455285.109   -10695809.086 6  -7254380.91125
  19696422.976   -21238371.479 6 -16332498.83625
  17243035.749   -37568676.241 7 -29067130.39928
 95  6  8  5 38 29.9870000  0  7 31 28 15  1 25 23 21
  19355364.132   -11430817.851 5  -8703321.14425
  19744254.257   -18152835.384 5   2909286.42625
  19412465.155    -6285576.404 5  -4591120.87124
  16752091.671   -32354211.488 7 -24877809.61528
  19431930.663   -10818555.213 6  -7350027.18725
  19703328.312   -21202065.192 6 -16304208.27325
  17242692.202   -37570487.673 7 -29068541.90328
 95  6  8  5 38 59.9870000  0  7 31 28 15  1 25 23 21
  19358496.038   -11414363.639 5  -8690499.69225
  19756538.038   -18088265.721 5   2959600.45625
  19388849.507    -6409667.616 5  -4687815.23925
  16753532.319   -32346650.785 7 -24871918.14629
  19408600.108   -10941151.833 6  -7445556.98225
  19710260.468   -21165640.131 6 -16275825.10925
  17242390.944   -37572071.325 7 -29069775.92529
 95  6  8  5 39 29.9870000  0  7 31 28 15  1 25 23 21
  19361704.101   -11397452.072 5  -8677321.86325
  19768859.616   -18023556.121 5   3010023.49225
  19365273.851    -6533552.620 6  -4784348.95924
  16755041.257   -32338711.135 7 -24865731.40629
  19385294.187   -11063591.683 6  -7540964.60225
  19717211.601   -21129118.733 5 -16247366.88725
  17242130.108   -37573435.174 7 -29070838.65829
 95  6  8  5 39 59.9870000  0  7 31 28 15  1 25 23 21
  19365008.390   -11380093.588 5  -8663795.77625
  19781190.226   -17958708.823 5   3060553.84925
  19341741.523    -6657227.531 6  -4880718.97224
  16756630.265   -32330381.143 7 -24859240.48329
  19362030.179   -11185862.095 6  -7636240.21725
  19724172.569   -21092514.069 5 -16218843.82525
  17241908.507   -37574574.684 7 -29071726.57629
 95  6  8  5 40 29.9870000  0  7 31 28 15  1 25 23 21
  19368401.194   -11362287.312 5  -8649920.77925
  19793559.523   -17893716.680 5   3111197.06623
  19318247.757    -6780679.421 6  -4976915.17225
  16758295.507   -32321636.121 7 -24852426.18529
  19338798.429   -11307953.442 6  -7731376.31625
  19731157.179   -21055811.185 5 -16190244.18025
  17241742.679   -37575475.854 7 -29072428.77829
 95  6  8  5 40 59.9870000  0  7 31 28 15  1 25 23 21
  19371878.851   -11344041.958 6  -8635703.60325
  19805955.663   -17828584.332 5   3161949.50924
  19294804.882    -6903906.884 6  -5072936.47425
  16760033.257   -32312487.485 7 -24845297.35528
  19315595.655   -11429864.431 6  -7826371.84625
  19738169.046   -21018999.713 6 -16161559.92425
  17241617.374   -37576121.586 7 -29072931.96029
 95  6  8  5 41 29.9870000  0  7 31 28 15  1 25 23 21
  19375429.273   -11325369.713 6  -8621153.81624
  19818375.679   -17763319.454 5   3212805.19324
  19271388.858    -7026911.642 5  -5168784.26125
  16761849.515   -32302945.289 7 -24837861.87828
  19292433.007   -11551595.193 6  -7921226.92525
  19745199.507   -20982046.167 6 -16132764.96125
  17241543.538   -37576511.868 7
 95  6  8  5 41 59.9870000  0  7 31 28 15  1 25 23 21
  19379067.929   -11306281.060 6  -8606279.54825
  19830814.491   -17697940.740 5   3263749.64224
  19248029.468    -7149706.076 6  -5264468.19724
  16763734.960   -32293034.817 7 -24830139.44328
  19269300.913   -11673164.345 6  -8015956.10125
  19752255.851   -20944952.628 6 -16103860.93525
  17241521.655   -37576659.241 7
 95  6  8  5 42 29.9870000  0  7 31 28 15  1 25 23 21
  19382779.374   -11286731.995 6  -8591046.54725
  19843284.765   -17632411.263 5   3314811.54925
  19224707.749    -7272247.841 6  -5359955.20325
  16765698.858   -32282719.772 7 -24822101.73629
  19246200.421   -11794530.255 6  -8110526.89526
  19759357.444   -20907652.379 6 -16074795.85925
  17241539.054   -37576524.012 7
 95  6  8  5 42 59.9870000  0  7 31 28 15  1 25 23 21
  19386584.335   -11266737.673 5  -8575466.57625
  19855779.046   -17566753.380 5   3365973.53724
  19201434.241    -7394553.267 6  -5455258.08325
  16767731.444   -32272027.350 7 -24813769.97228
  19223146.187   -11915708.822 6  -8204951.67726
  19766487.140   -20870167.322 6 -16045586.77824
  17241614.827   -37576126.543 7
 95  6  8  5 43 29.9870000  0  7 31 28 15  1 25 23 21
  19390469.562   -11246293.596 5  -8559536.16025
  19868300.999   -17500964.326 5   3417237.72025
  19178212.124    -7516613.705 6  -5550370.05425
  16769837.460   -32260949.888 7 -24805138.17829
  19200122.632   -12036699.169 6  -8299229.82826
  19773655.093   -20832506.376 6 -16016240.62725
  17241747.499   -37575458.508 7 -29072415.29828
 95  6  8  5 43 59.9870000  0  7 31 28 15  1 25 23 21
  19394453.155   -11225404.547 5  -8543258.97425
  19880852.108   -17435055.019 5   3468595.61525
  19155022.468    -7638434.080 6  -5645294.97625
  16772023.093   -32249480.972 7 -24796201.35929
  19177134.858   -12157507.484 6  -8393366.12626
  19780852.858   -20794701.885 6 -15986782.57525
  17241923.155   -37574515.617 7 -29071680.56628
 95  6  8  5 44 29.9870000  0  7 31 28 15  1 25 23 21
  19398509.874   -11204085.399 5  -8526646.65625
  19893410.718   -17369028.299 5   3520044.97825
  19131890.054    -7760011.225 6  -5740030.38925
  16774281.023   -32237622.053 7 -24786960.63929
  19154178.374   -12278147.164 6  -8487371.03726
  19788067.444   -20756770.313 5 -15957225.52725
  17242156.702   -37573300.550 7 -29070733.75628
 95  6  8  5 44 59.9870000  0  7 31 28 15  1 25 23 21
  19402641.843   -11182357.900 5  -8509716.12725
  19905989.491   -17302901.991 5   3571571.97825
  19108793.312    -7881357.168 6  -5834585.66625
  16776607.765   -32225395.121 7 -24777433.13929
  19131248.398   -12398622.067 6  -8581247.54325
  19795299.929   -20718748.048 6 -15927597.77925
  17242433.890   -37571826.554 7 -29069585.19328
 95  6  8  5 45 29.9870000  0  7 31 28 15  1 25 23 21
  19406853.898   -11160213.576 5  -8492460.80325
  19918595.882   -17236670.379 5   3623181.00424
  19085753.937    -8002460.370 6  -5928951.78825
  16779005.999   -32212793.321 7 -24767613.53629
  19108360.788   -12518911.742 6  -8674979.74326
  19802558.569   -20680615.284 5 -15897883.95325
  17242767.937   -37570085.074 7 -29068228.18829
 95  6  8  5 45 59.9870000  0  7 31 28 15  1 25 23 21
  19411159.991   -11137656.252 5  -8474883.64925
  19931218.859   -17170332.287 5   3674873.01425
  19062763.038    -8123313.809 6  -6023123.26925
  16781472.382   -32199818.826 7 -24757503.52229
  19085505.210   -12639013.221 6  -8768565.27425
  19809840.210   -20642345.111 6 -15868063.06425
  17243147.968   -37568082.825 7 -29066668.00629
 95  6  8  5 46 29.9870000  0  7 31 28 15  1 25 23 21
  19415517.421   -11114705.406 5  -8456999.86925
  19943858.687   -17103905.126 5   3726634.44724
  19039802.007    -8243928.702 6  -6117108.89625
  16784004.007   -32186508.975 7 -24747132.20729
  19062684.530   -12758932.513 6  -8862008.84125
  19817151.898   -20603934.051 6 -15838132.39925
  17243575.952   -37565849.438 7 -29064927.72428
 95  6  8  5 46 59.9870000  0  7 31 28 15  1 25 23 21
  19419959.069   -11091325.883 5  -8438782.06723
  19956520.718   -17037371.034 5   3778479.16824
  19016903.163    -8364281.133 6  -6210890.00225
  16786610.124   -32172829.258 7 -24736472.66329
  19039909.101   -12878629.934 6  -8955279.53025
  19824493.585   -20565353.708 6 -15808069.79025
  17244046.288   -37563361.686 7 -29062989.22328
 95  6  8  5 47 29.9870000  0  7 31 28 15  1 25 23 21
  19424480.937   -11067557.111 5  -8420260.93425
  19969200.515   -16970767.621 5   3830377.94022
  18994047.202    -8484402.892 6  -6304491.38025
  16789281.405   -32158803.124 7 -24725543.19729
  19017161.710   -12998153.487 6  -9048414.74125
  19831862.210   -20526636.834 5 -15777900.79425
  17244565.163   -37560646.809 7 -29060873.72528
 95  6  8  5 47 59.9870000  0  7 31 28 15  1 25 23 21
  19429083.194   -11043406.454 5  -8401442.24425
  19981885.999   -16904095.422 5   3882330.29323
  18971221.359    -8604288.811 6  -6397908.98625
  16792011.023   -32144427.718 7 -24714341.56629
  18994456.179   -13117498.244 6  -9141410.64326
  19839248.944   -20487798.881 5 -15747637.47326
  17245125.976   -37557699.667 7 -29058577.26328
 95  6  8  5 48 29.9870000  0  7 31 28 15  1 25 23 21
  19433751.374   -11018852.173 5  -8382309.06124
  19994580.499   -16837346.935 4   3934342.08824
  18948463.327    -8723925.144 6  -6491132.11225
  16794820.882   -32129696.894 7 -24702862.99429
  18971783.421   -13236634.874 6  -9234244.31826
  19846658.663   -20448854.312 5 -15717291.00725
  17245730.304   -37554503.341 7 -29056086.59928
 95  6  8  5 48 59.9870000  0  7 31 28 15  1 25 23 21
  19438518.913   -10993857.997 5  -8362833.09725
  20007310.882   -16770486.281 4   3986441.31824
  18925751.101    -8843270.010 6  -6584128.11725
  16797696.843   -32114568.574 7 -24691074.67829
  18949154.476   -13355526.994 6  -9326887.52526
  19854100.413   -20409776.976 6 -15686841.18925
  17246399.069   -37551011.716 7 -29053365.85029
 95  6  8  5 49 29.9870000  0  7 31 28 15  1 25 23 21
  19443352.874   -10968411.582 5  -8343004.74825
  20020045.648   -16703496.525 3   4038641.12623
  18903102.374    -8962301.050 6  -6676879.57025
  16800651.757   -32099037.362 7 -24678972.41729
  18926581.851   -13474153.901 6  -9419324.03026
  19861566.468   -20370536.474 6 -15656264.15825
  17247118.749   -37547222.317 7 -29050413.07629
 95  6  8  5 49 59.9870000  0  7 31 28 15  1 25 23 21
  19448270.062   -10942573.698 5  -8322871.30825
  20032808.812   -16636446.285 4   4090888.03824
  18880498.327    -9081080.657 6  -6769435.10825
  16803668.187   -32083192.351 7 -24666625.64429
  18904053.905   -13592573.923 6  -9511599.35326
  19869048.718   -20331195.252 5 -15625608.67525
  17247878.640   -37543206.786 7 -29047284.08128
 95  6  8  5 50 29.9870000  0  7 31 28 15  1 25 23 21
  19453262.124   -10916334.935 5  -8302425.49925
  20045590.843   -16569323.583 5   4143191.47825
  18857948.929    -9199590.700 6  -6861780.58326
  16806741.460   -32067023.881 7 -24654026.82529
  18881551.491   -13710783.344 6  -9603710.57726
  19876560.366   -20291723.397 5 -15594851.45424
  17248693.609   -37538951.777 7 -29043968.49028
 95  6  8  5 50 59.9870000  0  7 31 28 15  1 25 23 21
  19458332.132   -10889706.921 5  -8281676.38525
  20058373.148   -16502133.049 5   4195547.73525
  18835445.976    -9317830.409 6
  16809880.273   -32050533.387 7 -24641177.07029
  18859093.382   -13828805.193 6
  19884102.249   -20252114.316 5 -15563987.25725
  17249551.085   -37534459.872 7 -29040468.30829
 95  6  8  5 51 29.9870000  0  7 31 28 15  1 25 23 21
  19463474.741   -10862677.800 5  -8260614.71625
  20071170.249   -16434867.653 5   4247962.31924
  18813001.030    -9435786.669 6
  16813080.132   -32033718.743 7 -24628074.73328
  18836675.187   -13946628.579 6
  19891667.452   -20212352.515 5 -15533004.02625
  17250451.804   -37529713.881 7 -29036770.12229
 95  6  8  5 51 59.9870000  0  7 31 28 15  1 25 23 21
  19468701.148   -10835245.969 5  -8239239.29625
  20083988.523   -16367520.135 5   4300440.91924
  18790608.749    -9553446.224 6
  16816348.679   -32016567.666 7 -24614710.23628
  18814291.827   -14064236.522 6
  19899258.702   -20172442.602 5 -15501905.37025
  17251404.452   -37524683.971 7 -29032850.70328
 95  6  8  5 52 29.9870000  0  7 31 28 15  1 25 23 21
  19473980.476   -10807443.217 5  -8217574.80825
  20096814.671   -16300118.680 5   4352961.57425
  18768276.085    -9670831.361 6
  16819674.601   -31999087.823 7 -24601089.54829
  18791947.241   -14181641.290 6
  19906871.101   -20132406.669 5 -15470708.57425
  17252411.538   -37519402.495 7 -29028735.26228
 95  6  8  5 52 59.9870000  0  7 31 28 15  1 25 23 21
  19479355.109   -10779209.362 5  -8195574.36625
  20109659.859   -16232614.543 5   4405562.18422
  18745999.226    -9787887.528 6
  16823074.171   -31981223.222 7 -24587169.09329
  18769664.554   -14298771.586 6
  19914532.687   -20092191.843 5 -15439372.33325
  17253473.007   -37513821.861 7 -29024386.70928
 95  6  8  5 53 29.9870000  0  7 31 28 15  1 25 23 21
  19484797.124   -10750598.959 5  -8173280.55125
  20122520.483   -16165054.322 5   4458206.50624
  18723775.038    -9904655.163 6
  16826541.499   -31963007.862 7 -24572975.29029
  18747422.280   -14415635.517 6
  19922210.694   -20051830.978 5 -15407922.34425
  17254584.484   -37507988.140 7 -29019840.93428
 95  6  8  5 53 59.9870000  0  7 31 28 15  1 25 23 21
  19490322.804   -10721625.323 5  -8150703.66525
  20135374.952   -16097451.551 4   4510883.99924
  18701611.234   -10021141.971 6
  16830073.374   -31944436.222 7 -24558503.86729
  18725232.249   -14532237.591 6
  19929917.890   -20011334.337 5 -15376366.54725
  17255736.335   -37501926.371 7 -29015117.45428
 95  6  8  5 54 29.9870000  0  7 31 28 15  1 25 23 21
  19495910.483   -10692275.162 5  -8127833.42325
  20148256.085   -16029804.839 3   4563595.71023
  18679495.609   -10137340.941 6
  16833672.773   -31925503.880 7 -24543751.39529
  18703095.702   -14648586.549 6
  19937652.694   -19970688.905 5 -15344694.78025
  17256941.452   -37495629.882 7 -29010211.09028
 95  6  8  5 54 59.9870000  0  7 31 28 15  1 25 23 21
  19501561.726   -10662553.171 5  -8104673.40125
  20161118.421   -15962124.607 3   4616333.57922
  18657440.030   -10253256.123 6  -7682818.39626
  16837344.273   -31906222.588 7 -24528727.00829
  18680998.148   -14764696.960 6 -10424941.76626
  19945412.968   -19929900.807 6 -15312911.83624
  17258181.226   -37489091.428 7 -29005116.18428
 95  6  8  5 55 29.9870000  0  7 31 28 15  1 25 23 21
  19507283.515   -10632454.877 5  -8081220.18525
  20174011.538   -15894405.113 3   4669102.04222
  18635436.452   -10368876.179 6  -7772911.95126
  16841082.265   -31886586.278 7 -24513425.99229
  18658955.921   -14880571.859 6 -10515233.86126
  19953202.515   -19888971.818 6 -15281019.09625
  17259473.093   -37482284.372 7 -28999811.97028
 95  6  8  5 55 59.9870000  0  7 31 28 15  1 25 23 21
  19513086.194   -10601963.576 5  -8057460.72725
  20186917.640   -15826632.921 4   4721911.49422
  18613493.819   -10484181.468 6  -7862760.19826
  16844883.593   -31866587.579 7 -24497842.57929
  18636943.999   -14996212.626 6 -10605343.53426
  19961022.148   -19847900.252 6 -15249015.32125
  17260833.210   -37475176.067 7 -28994273.01729
 95  6  8  5 56 29.9870000  0  7 31 28 15  1 25 23 21
  19518965.390   -10571092.507 5  -8033405.31325
  20199827.515   -15758814.245 5   4774757.23723
  18591616.827   -10599172.388 6  -7952363.51025
  16848755.827   -31846245.822 7 -24481991.86329
  18614982.562   -15111614.359 6 -10695266.91326
  19968858.085   -19806687.767 6 -15216901.69925
  17262239.773   -37467755.687 7 -28988490.91629
 95  6  8  5 56 59.9870000  0  7 31 28 15  1 25 23 21
  19524900.796   -10539852.503 5  -8009062.46025
  20212739.835   -15690949.315 5   4827639.00822
  18569797.202   -10713843.411 6  -8041717.54825
  16852691.499   -31825575.213 7 -24465884.90729
  18593074.499   -15226752.467 6 -10784984.87926
  19976729.241   -19765326.302 5 -15184671.97725
  17263711.960   -37460022.006 7 -28982464.64329
 95  6  8  5 57 29.9870000  0  7 31 28 15  1 25 23 21
  19530910.851   -10508290.988 5  -7984469.08825
  20225649.921   -15623075.607 5   4880527.60022
  18548025.780   -10828226.179 6  -8130846.97325
  16856673.999   -31804629.239 7 -24449563.35529
  18571211.499   -15341648.281 6 -10874514.05526
  19984621.038   -19723863.061 5 -15152362.95225
  17265234.343   -37452025.018 7 -28976233.23129
 95  6  8  5 57 59.9870000  0  7 31 28 15  1 25 23 21
  19536988.202   -10476379.753 5  -7959603.18125
  20238576.163   -15555162.281 5   4933447.05922
  18526323.741   -10942284.326 6  -8219723.44625
  16860722.327   -31783381.696 7 -24433006.82229
  18549400.226   -15456248.668 6 -10963813.03826
  19992542.155   -19682254.289 5 -15119940.55625
  17266807.116   -37443748.808 7 -28969784.24528
 95  6  8  5 58 29.9870000  0  7 31 28 15  1 25 23 21
  19543120.280   -10444148.656 5  -7934488.04225
  20251505.202   -15487251.562 5   4986364.52222
  18504672.280   -11056053.986 6  -8308375.13326
  16864808.109   -31761884.392 7 -24416255.67529
  18527645.202   -15570583.005 6 -11052904.69626
  20000480.671   -19640525.307 5 -15087424.48424
  17268427.655   -37435259.242 7 -28963168.99028
 95  6  8  5 58 59.9870000  0  7 31 28 15  1 25 23 21
  19549325.015   -10411549.621 5  -7909086.17825
  20264425.484   -15419295.470 5   5039317.35022
  18483083.812   -11169480.986 6  -8396759.78825
  16868961.007   -31740080.181 7 -24399265.38329
  18505950.702   -15684603.135 6 -11141751.52526
  20008453.765   -19598634.119 5 -15054782.05524
  17270085.226   -37426514.546 7 -28956354.93428
 95  6  8  5 59 29.9870000  0  7 31 28 15  1 25 23 21
  19555591.085   -10378607.328 5  -7883416.86225
  20277364.007   -15351319.122 4   5092285.97222
  18461565.382   -11282584.867 6  -8484892.69126
  16873165.054   -31717969.376 7 -24382036.18229
  18484304.319   -15798342.307 6 -11230379.42926
  20016447.382   -19556609.245 5 -15022035.38625
  17271795.359   -37417542.004 7 -28949363.33428
 95  6  8  5 59 59.9870000  0  7 31 28 15  1 25 23 21
  19561927.124   -10345322.730 5  -7857480.81825
  20290296.819   -15283325.375 3   5145268.10922
  18440106.866   -11395362.454 6  -8572771.31226
  16877436.921   -31695533.402 7 -24364553.59729
  18462711.648   -15911810.317 6 -11318796.03526
  20024473.866   -19514433.308 5 -14989171.04625
  17273545.827   -37408327.012 7 -28942182.81528
 95  6  8  6  0 29.9860000  0  7 31 28 15  1 25 23 21
  19568321.424   -10311721.995 5  -7831298.42225
  20303238.705   -15215331.599 4   5198250.29322
  18418707.275   -11507819.485 6  -8660400.15126
  16881765.932   -31672777.124 7 -24346821.43629
  18441168.979   -16025032.799 6 -11407021.31926
  20032523.377   -19472132.558 4 -14956209.39425
  17275350.486   -37398872.483 7 -28934815.65228
 95  6  8  6  0 59.9860000  0  7 31 28 15  1 25 23 21
  19574771.674   -10277812.744 5  -7804875.65225
  20316175.541   -15147326.430 3   5251241.35224
  18397369.150   -11619950.858 6  -8747775.23726
  16886161.580   -31649672.754 7 -24328818.02329
  18419666.057   -16138009.404 6 -11495055.00726
  20040602.994   -19429700.914 5 -14923145.70923
  17277202.315   -37389141.612 7 -28927233.14429
 95  6  8  6  1 29.9860000  0  7 31 28 15  1 25 23 21
  19581283.182   -10243588.149 5  -7778207.13725
  20329112.510   -15079315.608 3   5304236.85024
  18376097.268   -11731750.331 6  -8834891.69426
  16890626.799   -31626223.838 7 -24310546.13529
  18398219.385   -16250735.687 6 -11582893.65226
  20048701.252   -19387123.310 5 -14889968.33824
  17279104.799   -37379123.953 7 -28919427.16829
 95  6  8  6  1 59.9860000  0  7 31 28 15  1 25 23 21
  19587853.072   -10209043.295 5  -7751289.08425
  20342071.025   -15011301.848 4   5357234.61523
  18354887.471   -11843214.986 6  -8921747.24326
  16895151.205   -31602448.238 7 -24292019.68229
  18376817.627   -16363197.712 6 -11670526.37026
  20056829.580   -19344407.780 5 -14856683.55023
  17281065.822   -37368820.077 7 -28911398.16929
 95  6  8  6  2 29.9860000  0  7 31 28 15  1 25 23 21
  19594495.377   -10174165.567 5  -7724111.60325
  20355003.744   -14943282.562 4   5410236.71623
  18333728.018   -11954336.110 6  -9008335.10626
  16899734.049   -31578350.027 7 -24273241.86729
  18355467.447   -16475381.228 6 -11757942.05326
  20064982.627   -19301547.748 5 -14823286.17222
  17283083.018   -37358233.494 7 -28903148.87829
 95  6  8  6  2 59.9860000  0  7 31 28 15  1 25 23 21
  19601200.861   -10138930.786 5  -7696655.89825
  20367953.065   -14875257.726 5   5463243.03922
  18312655.900   -12065107.889 6  -9094650.74326
  16904376.783   -31553943.462 7 -24254223.76629
  18334175.627   -16587271.848 6 -11845129.51826
  20073171.940   -19258522.272 5 -14789759.83823
  17285150.463   -37347367.161 7 -28894681.60928
 95  6  8  6  3 29.9860000  0  7 31 28 15  1 25 23 21
  19607975.447   -10103325.144 5  -7668911.20825
  20380908.072   -14807231.715 5   5516250.30223
  18291646.932   -12175529.169 6  -9180693.25026
  16909079.111   -31529248.953 7 -24234981.29429
  18312941.705   -16698868.802 6 -11932088.18726
  20081397.104   -19215336.379 5 -14756108.45423
  17287268.572   -37336236.822 7 -28886008.63428
 95  6  8  6  3 59.9860000  0  7 31 28 15  1 25 23 21
  19614805.596   -10067432.624 5  -7640943.01125
  20393829.682   -14739278.295 5   5569201.01722
  18270684.010   -12285667.858 6  -9266515.54726
  16913819.986   -31504342.986 7 -24215574.04329
  18291746.104   -16810242.029 6 -12018872.49526
  20089627.229   -19172074.765 5 -14722398.09024
  17289412.791   -37324928.423 7 -28877196.89828
 95  6  8  6  4 29.9860000  0  7 31 28 15  1 25 23 21
  19621699.799   -10031180.120 5  -7612694.31625
  20406773.033   -14671327.908 5   5622149.36222
  18249785.830   -12395448.358 6  -9352058.72926
  16918612.697   -31479152.095 7 -24195944.78329
  18270610.338   -16921326.134 7 -12105431.53526
  20097882.736   -19128655.054 5 -14688564.53225
  17291618.432   -37313363.014 7 -28868184.89728
 95  6  8  6  4 59.9860000  0  7 31 28 15  1 25 23 21
  19628675.604    -9994569.443 5  -7584166.49425
  20419700.400   -14603372.513 4   5675101.63324
  18228973.190   -12504857.112 6  -9437312.26626
  16923462.252   -31453662.295 7 -24176082.60929
  18249526.049   -17032105.368 7 -12191752.98627
  20106178.541   -19085078.038 5 -14654608.43025
  17293871.315   -37301517.651 7 -28858954.74728
 95  6  8  6  5 29.9860000  0  7 31 28 15  1 25 23 21
  19635713.947    -9957597.317 5  -7555357.07125
  20432631.010   -14535389.554 3   5728075.37223
  18208229.471   -12613865.709 6  -9522253.96626
  16928376.799   -31427842.004 7 -24155962.91329
  18228513.447   -17142546.633 6 -12277811.09926
  20114504.158   -19041334.293 5 -14620522.37225
  17296191.815   -37289358.820 7 -28849480.32528
 95  6  8  6  5 59.9860000  0  7 31 28 15  1 25 23 21
  19642798.760    -9920332.177 5  -7526319.32125
  20445559.432   -14467430.041 3   5781030.83822
  18187550.963   -12722519.381 6  -9606919.11626
  16933344.940   -31401730.111 7 -24135615.98929
  18207553.260   -17252687.324 6 -12363634.99927
  20122845.346   -18997461.354 5 -14586335.66222
  17298555.502   -37276926.271 7 -28839792.62128
 95  6  8  6  6 29.9860000  0  7 31 28 15  1 25 23 21
  19649939.502    -9882785.536 5  -7497062.17625
  20458492.861   -14399503.721 3   5833960.47924
  18166941.791   -12830822.100 6  -9691310.82026
  16938366.994   -31375330.052 7 -24115044.51829
  18186649.197   -17362532.270 6 -12449228.45927
  20131227.783   -18953458.428 5 -14552047.74921
  17300976.291   -37264206.013 7 -28829880.74028
 95  6  8  6  6 59.9860000  0  7 31 28 15  1 25 23 21
  19657139.643    -9845000.149 5  -7467619.03125
  20471393.494   -14331638.193 3   5886842.69323
  18146396.783   -12938795.920 6  -9775446.21626
  16943441.400   -31348672.729 7 -24094272.57129
  18165797.783   -17472096.467 6 -12534603.15527
  20139619.252   -18909353.807 5 -14517680.58322
  17303446.635   -37251218.615 7 -28819760.68428
 95  6  8  6  7 29.9860000  0  7 31 28 15  1 25 23 21
  19664377.775    -9806951.403 5  -7437970.69624
  20484297.518   -14263815.307 3   5939691.70423
  18125914.861   -13046416.952 6  -9859306.73526
  16948567.635   -31321734.145 7 -24073281.45029
  18145007.143   -17581360.682 6 -12619744.08827
  20148034.619   -18865121.380 5 -14483213.72824
  17305970.955   -37237950.467 7 -28809421.87728
 95  6  8  6  7 59.9860000  0  7 31 28 15  1 25 23 21
  19671676.658    -9768569.487 5  -7408062.78325
  20497218.963   -14195980.266 3   5992550.19422
  18105514.635   -13153625.200 6  -9942845.59826
  16953759.799   -31294450.525 7 -24052021.49329
  18124285.604   -17690270.061 6 -12704608.51927
  20156484.830   -18820688.779 5 -14448590.97024
  17308559.174   -37224351.403 7 -28798825.21028
 95  6  8  6  8 29.9860000  0  7 31 28 15  1 25 23 21
  19679026.143    -9729927.783 5  -7377952.41324
  20510111.119   -14128220.254 3   6045350.15423
  18085180.479   -13260501.610 6 -10026125.90526
  16959003.127   -31266910.131 7 -24030561.44629
  18103604.127   -17798907.341 6 -12789260.93627
  20164967.697   -18776141.812 5 -14413879.02924
  17311188.815   -37210515.230 7 -28788043.76928
 95  6  8  6  8 59.9860000  0  7 31 28 15  1 25 23 21
  19686440.611    -9690985.550 5  -7347607.85725
  20522995.932   -14060511.144 3   6098110.50922
  18064913.268   -13367016.085 6 -10109124.16626
  16964295.377   -31239091.225 7 -24008884.38529
  18082993.494   -17907234.452 6 -12873671.67327
  20173467.643   -18731453.377 5 -14379056.83124
  17313869.666   -37196432.832 7 -28777070.45828
 95  6  8  6  9 29.9860000  0  7 31 28 15  1 25 23 21
  19693919.400    -9651702.997 5  -7316998.11425
  20535882.650   -13992827.534 3   6150850.96322
  18044718.729   -13473137.641 6 -10191816.27726
  16969647.346   -31210964.903 7 -23986967.76229
  18062445.557   -18015216.988 6 -12957813.91327
  20182005.299   -18686593.096 5 -14344100.74523
  17316599.236   -37182091.112 7 -28765895.10428
 95  6  8  6  9 59.9860000  0  7 31 28 15  1 25 23 21
  19701450.236    -9612111.172 5  -7286147.38025
  20548740.893   -13925188.397 3   6203556.78821
  18024596.033   -13578879.834 6 -10274212.77526
  16975050.174   -31182567.737 7 -23964840.09429
  18041966.377   -18122866.626 7 -13041696.72626
  20190576.768   -18641568.242 5 -14309016.51523
  17319376.549   -37167498.399 7 -28754524.13928
 95  6  8  6 10 29.9860000  0  7 31 28 15  1 25 23 21
  19709053.143    -9572186.409 5  -7255037.17125
  20561610.018   -13857549.427 3   6256262.42621
  18004551.221   -13684192.715 6 -10356274.75026
  16980508.635   -31153873.664 7 -23942481.06629
  18021548.549   -18230131.289 6 -13125279.56126
  20199185.627   -18596348.975 5 -14273780.79624
  17322212.518   -37152591.416 7 -28742908.30227
 95  6  8  6 10 59.9860000  0  7 31 28 15  1 25 23 21
  19716686.486    -9532026.753 5  -7223743.95425
  20574480.791   -13789998.743 3   6308899.29422
  17984577.572   -13789158.447 6 -10438066.20426
  16986006.971   -31124977.810 7 -23919964.81229
  18001191.111   -18337101.271 6 -13208632.77627
  20207801.275   -18551020.964 5 -14238460.18123
  17325098.565   -37137434.628 7 -28731097.83827
 95  6  8  6 11 29.9860000  0  7 31 28 15  1 25 23 21
  19724375.627    -9491615.305 5  -7192254.53024
  20587323.650   -13722499.265 3   6361496.27822
  17964680.885   -13893734.343 6 -10519553.93126
  16991550.033   -31095838.014 7 -23897258.47229
  17980902.330   -18443743.398 7 -13291730.52627
  20216457.424   -18505547.401 5 -14203026.33023
  17328041.111   -37121979.375 7 -28719054.77228
 95  6  8  6 11 59.9860000  0  7 31 28 15  1 25 23 21
  19732104.440    -9450955.512 5  -7160571.58825
  20600157.565   -13655041.162 3   6414061.02622
  17944855.197   -13997905.449 6 -10600726.21826
  16997149.940   -31066433.153 7 -23874345.58929
  17960671.979   -18550052.430 7 -13374568.73227
  20225141.971   -18459913.368 5 -14167467.32824
  17331042.900   -37106199.607 7 -28706758.84628
 95  6  8  6 12 29.9860000  0  7 31 28 15  1 25 23 21
  19739894.596    -9410075.212 5  -7128716.78925
  20612977.963   -13587678.415 3   6466551.45923
  17925106.299   -14101719.782 6 -10681620.49326
  17002790.416   -31036802.801 7 -23851256.98429
  17940497.674   -18656071.366 7 -13457180.86127
  20233845.377   -18414183.538 5 -14131833.67323
  17334095.940   -37090156.515 7 -28694257.74728
 95  6  8  6 12 59.9860000  0  7 31 28 15  1 25 23 21
  19747733.893    -9368908.805 5  -7096639.08225
  20625776.252   -13520370.058 3   6518999.51524
  17905420.807   -14205130.677 6 -10762200.39826
  17008485.033   -31006875.100 7 -23827936.68829
  17920386.346   -18761758.917 7 -13539534.76327
  20242576.729   -18368306.955 5 -14096085.69524
  17337199.557   -37073826.191 7 -28681532.82228
 95  6  8  6 13 29.9860000  0  6 31 15  1 25 23 21
  19755617.260    -9327449.326 5  -7064332.99624
  17885819.229   -14308140.739 6 -10842467.95526
  17014238.736   -30976641.742 7 -23804378.21829
  17900338.236   -18867107.706 7 -13621624.72627
  20251329.619   -18322300.212 5 -14060236.31824
  17340357.135   -37057233.703 7 -28668603.60028
 95  6  8  6 13 59.9860000  0  6 31 15  1 25 23 21
  19763563.979    -9285689.298 5  -7031792.70325
  17866291.627   -14410756.377 6 -10922428.14226
  17020047.252   -30946119.497 7 -23780594.65529
  17880356.588   -18972114.912 7 -13703448.49427
  20260108.190   -18276171.412 5 -14024291.79625
  17343564.150   -37040390.452 7 -28655478.98928
 95  6  8  6 14 29.9860000  0  6 31 15  1 25 23 21
  19771574.611    -9243607.805 5  -6999001.96424
  17846851.244   -14512954.993 6 -11002063.38226
  17025907.494   -30915304.937 7 -23756583.30129
  17860443.690   -19076761.173 7 -13784991.00227
  20268912.393   -18229907.314 5 -13988241.90724
  17346818.682   -37023283.952 7 -28642149.24828
 95  6  8  6 14 59.9860000  0  6 31 15  1 25 23 21
  19779636.744    -9201270.742 5  -6966012.06024
  17827470.393   -14614760.360 6 -11081392.21026
  17031820.096   -30884234.930 7 -23732372.90629
  17840587.838   -19181082.348 6 -13866280.20527
  20277739.650   -18183532.338 4 -13952105.63224
  17350121.049   -37005938.582 7 -28628633.36627
 95  6  8  6 15 29.9860000  0  6 31 15  1 25 23 21
  19787736.190    -9158688.388 5  -6932831.01325
  17808176.830   -14716149.185 6 -11160396.40927
  17037778.268   -30852918.040 7 -23707970.12029
  17820807.682   -19285049.707 7 -13947293.69227
  20286592.924   -18137020.446 5 -13915862.55723
  17353473.518   -36988326.271 7 -28614909.48927
 95  6  8  6 15 59.9860000  0  6 31 15  1 25 23 21
  19795879.830    -9115897.447 5  -6899487.42724
  17788965.283   -14817130.751 7 -11239083.30027
  17043781.080   -30821385.334 7 -23683399.18029
  17801086.361   -19388676.836 7 -14028042.06927
  20295465.791   -18090356.761 5 -13879501.30222
  17356877.205   -36970441.033 7 -28600972.93227
 95  6  8  6 16 29.9860000  0  6 31 15  1 25 23 21
  19804058.127    -9072900.191 5  -6865983.05424
  17769828.861   -14917690.426 7 -11317441.46627
  17049826.283   -30789625.451 7 -23658651.21529
  17781432.307   -19491951.552 7 -14108515.81527
  20304382.588   -18043528.213 3 -13843011.53224
  17360335.752   -36952257.014 7 -28586803.57028
 95  6  8  6 16 59.9860000  0  6 31 15  1 25 23 21
  19812279.291    -9029685.683 5  -6832309.43024
  17750773.830   -15017819.925 6 -11395464.40727
  17055915.041   -30757628.350 7 -23633718.41829
  17761848.502   -19594850.821 7 -14188697.03627
  20313319.432   -17996519.384 3 -13806381.28422
  17363853.104   -36933762.223 7 -28572392.01527
 95  6  8  6 17 29.9860000  0  6 31 15  1 25 23 21
  19820550.369    -8986248.280 5  -6798462.09525
  17731794.768   -15117540.454 6 -11473168.66527
  17062041.080   -30725416.028 7 -23608617.91629
  17742338.854   -19697390.291 7 -14268597.89327
  20322303.025   -17949340.715 3 -13769618.71921
  17367432.400   -36914973.026 7 -28557751.08827
 95  6  8  6 17 59.9860000  0  6 31 15  1 25 23 21
  19828857.963    -8942559.437 5  -6764418.86624
  17712895.994   -15216838.375 6 -11550543.64227
  17068217.557   -30692972.767 7 -23583337.45929
  17722900.611   -19799554.237 7 -14348206.12327
  20331313.822   -17901986.476 3 -13732719.37522
  17371067.588   -36895876.568 7 -28542870.72428
 95  6  8  6 18 29.9860000  0  6 31 15  1 25 23 21
  19837223.322    -8898610.257 5  -6730172.78124
  17694080.260   -15315715.499 6 -11627590.72027
  17074438.322   -30660291.779 7 -23557871.73529
  17703526.080   -19901346.358 7 -14427524.63427
  20340352.197   -17854490.871 3 -13695709.87121
  17374752.205   -36876494.778 7 -28527768.02428
 95  6  8  6 18 59.9860000  0  6 31 15  1 25 23 21
  19845629.541    -8854406.575 5  -6695728.33224
  17675349.330   -15414169.925 6 -11704308.42727
  17080696.893   -30627374.317 7 -23532221.76929
  17684228.424   -20002771.003 7 -14506556.79027
  20349415.197   -17806855.158 3 -13658591.23724
  17378495.822   -36856841.508 7 -28512453.78628
 95  6  8  6 19 29.9860000  0  6 31 15  1 25 23 21
  19854095.369    -8809988.074 5  -6661116.49323
  17656687.416   -15512223.558 6 -11780713.82027
  17087001.877   -30594248.044 7 -23506409.09929
  17664987.432   -20103860.963 7 -14585328.14227
  20358498.299   -17759111.730 4 -13621388.58824
  17382276.690   -36836953.093 7 -28496956.31728
 95  6  8  6 19 59.9860000  0  6 31 15  1 25 23 21
  19862564.541    -8765430.806 5  -6626396.54424
  17638098.861   -15609922.060 6 -11856842.49327
  17093336.596   -30560962.561 7 -23480472.35829
  17645810.799   -20204666.461 7 -14663877.85127
  20367589.697   -17711329.419 3 -13584155.70323
  17386099.377   -36816877.715 7 -28481313.16128
 95  6  8  6 20 29.9860000  0  6 31 15  1 25 23 21
  19871094.166    -8720624.549 5  -6591482.57823
  17619602.729   -15707141.943 7 -11932598.20527
  17099723.252   -30527395.654 7 -23454316.32729
  17626700.572   -20305074.221 7 -14742117.64127
  20376718.713   -17663393.749 2 -13546803.21021
  17389978.096   -36796489.041 7 -28465425.88428
 95  6  8  6 20 59.9860000  0  6 31 15  1 25 23 21
  19879685.580    -8675547.709 5  -6556357.74524
  17601197.291   -15803841.480 7 -12007948.46127
  17106172.205   -30493506.456 7 -23427909.13029
  17607679.572   -20405042.095 7 -14820014.63427
  20385876.674   -17615255.468 3 -13509292.90821
  17393923.252   -36775743.608 7 -28449260.61127
 95  6  8  6 21 29.9860000  0  6 31 15  1 25 23 21
  19888278.525    -8630328.937 5  -6521122.33423
  17582868.197   -15900148.985 6 -12082993.24626
  17112659.049   -30459420.167 7 -23401348.39529
  17588716.065   -20504686.646 7 -14897659.72128
  20395042.494   -17567049.677 3 -13471730.07021
  17397919.768   -36754770.152 7 -28432917.67727
 95  6  8  6 21 59.9860000  0  5 31 15  1 25 21
  19896918.940    -8584925.536 5  -6485743.08124
  17564626.549   -15996023.849 6 -12157700.91026
  17119194.221   -30425093.292 7 -23374600.18129
  17569825.143   -20603955.905 7 -14975012.35927
  17401957.057   -36733522.102 7 -28416360.75328
 95  6  8  6 22 29.9860000  0  5 31 15  1 25 21
  19905613.682    -8539244.974 5  -6450147.81724
  17546481.158   -16091380.546 6 -12232004.80227
  17125788.557   -30390433.211 7 -23347592.34229
  17551026.791   -20702754.856 7 -15051998.53427
  17406068.565   -36711928.860 7 -28399534.85027
 95  6  8  6 22 59.9860000  0  5 31 15  1 25 21
  19914342.744    -8493364.307 5  -6414396.62623
  17528413.658   -16186297.144 6 -12305965.76927
  17132432.096   -30355525.976 7 -23320391.89229
  17532303.166   -20801153.362 7 -15128672.65427
  17410227.182   -36690077.025 7 -28382507.45527
 95  6  8  6 23 29.9860000  0  5 31 15  1 25 21
  19923104.877    -8447258.467 4  -6378470.01823
  17510443.065   -16280761.710 7 -12379574.51427
  17139117.393   -30320386.966 7 -23293010.84429
  17513651.322   -20899144.561 7 -15205029.39627
  17414438.908   -36667945.491 7 -28365262.09628
 95  6  8  6 23 59.9860000  0  5 31 15  1 25 21
  19931931.260    -8400920.710 5  -6342362.65724
  17492554.697   -16374761.767 7 -12452821.31127
  17145848.760   -30285021.172 7 -23265453.07429
  17495085.018   -20996731.854 7 -15281071.41227
  17418704.471   -36645519.197 7 -28347787.05128
 95  6  8  6 24 29.9860000  0  5 31 15  1 25 21
  19940800.057    -8354358.838 5  -6306080.69223
  17474754.979   -16468302.045 7 -12525709.83427
  17152618.752   -30249447.066 7 -23237732.99329
  17476586.236   -21093936.266 7 -15356815.07427
  17423028.658   -36622797.179 7 -28330081.58928
 95  6  8  6 24 59.9860000  0  5 31 15  1 25 21
  19949695.104    -8307589.877 5  -6269637.35023
  17457041.588   -16561391.552 7 -12598247.10627
  17159419.815   -30213697.121 7 -23209875.88228
  17458156.994   -21190785.348 7 -15432281.84827
  17427408.822   -36599778.883 6 -28312145.24428
 95  6  8  6 25 29.9860000  0  5 31 15  1 25 21
  19958633.604    -8260620.857 5  -6233038.11324
  17439412.041   -16654021.122 7 -12670425.98427
  17166256.393   -30177754.304 7 -23181868.48328
  17439797.080   -21287270.298 7 -15507464.89427
  17431849.072   -36576456.075 7 -28293971.63727
 95  6  8  6 25 59.9860000  0  5 31 15  1 25 21
  19967600.697    -8213493.286 5  -6196315.35324
  17421870.510   -16746212.539 7 -12742263.45127
  17173131.229   -30141625.133 7 -23153715.87528
  17421501.690   -21383397.754 7 -15582369.36527
  17436337.893   -36552862.110 7 -28275586.71927
